<?xml version="1.0" encoding="UTF-8" standalone="no" ?>
<gpx xmlns="http://www.topografix.com/GPX/1/1" xmlns:xsi="http://www.w3.org/2001/XMLSchema-instance" xsi:schemaLocation="http://www.topografix.com/GPX/1/1 http://www.topografix.com/GPX/1/1/gpx.xsd" version="1.1" creator="VisuGPX - https://www.visugpx.com">
  <metadata>
    <name>Longuesse - Saillancourt - Sagy</name>
  </metadata>
  <trk>
    <name><![CDATA[Longuesse - Saillancourt - Sagy_1]]></name>
    <extensions>
      <line xmlns="http://www.topografix.com/GPX/gpx_style/0/2">
        <color>0000FF</color>
        <width>4</width>
      </line>
    </extensions>
    <trkseg>
      <trkpt lat="49.06026" lon="1.93103">
        <ele>56</ele>
        <time>2022-03-27T07:02:56Z</time>
      </trkpt>
      <trkpt lat="49.06028" lon="1.9311">
        <ele>57.7</ele>
        <time>2022-03-27T07:03:39Z</time>
      </trkpt>
      <trkpt lat="49.0603" lon="1.93116">
        <ele>55.6</ele>
        <time>2022-03-27T07:04:35Z</time>
      </trkpt>
      <trkpt lat="49.06035" lon="1.93118">
        <ele>53.9</ele>
        <time>2022-03-27T07:04:44Z</time>
      </trkpt>
      <trkpt lat="49.0604" lon="1.93118">
        <ele>54.7</ele>
        <time>2022-03-27T07:04:49Z</time>
      </trkpt>
      <trkpt lat="49.06045" lon="1.93119">
        <ele>55.8</ele>
        <time>2022-03-27T07:04:55Z</time>
      </trkpt>
      <trkpt lat="49.06048" lon="1.93123">
        <ele>58.6</ele>
        <time>2022-03-27T07:05:01Z</time>
      </trkpt>
      <trkpt lat="49.06053" lon="1.93126">
        <ele>64</ele>
        <time>2022-03-27T07:05:08Z</time>
      </trkpt>
      <trkpt lat="49.06058" lon="1.93125">
        <ele>64.1</ele>
        <time>2022-03-27T07:05:12Z</time>
      </trkpt>
      <trkpt lat="49.06063" lon="1.93123">
        <ele>63.7</ele>
        <time>2022-03-27T07:05:17Z</time>
      </trkpt>
      <trkpt lat="49.06068" lon="1.93125">
        <ele>62.2</ele>
        <time>2022-03-27T07:05:22Z</time>
      </trkpt>
      <trkpt lat="49.06073" lon="1.93121">
        <ele>61.8</ele>
        <time>2022-03-27T07:05:27Z</time>
      </trkpt>
      <trkpt lat="49.06078" lon="1.93119">
        <ele>63.5</ele>
        <time>2022-03-27T07:05:31Z</time>
      </trkpt>
      <trkpt lat="49.06083" lon="1.93118">
        <ele>64</ele>
        <time>2022-03-27T07:05:35Z</time>
      </trkpt>
      <trkpt lat="49.06087" lon="1.93114">
        <ele>62.5</ele>
        <time>2022-03-27T07:05:40Z</time>
      </trkpt>
      <trkpt lat="49.06092" lon="1.93114">
        <ele>59.9</ele>
        <time>2022-03-27T07:05:46Z</time>
      </trkpt>
      <trkpt lat="49.06098" lon="1.93117">
        <ele>59.1</ele>
        <time>2022-03-27T07:05:51Z</time>
      </trkpt>
      <trkpt lat="49.06102" lon="1.93117">
        <ele>59.2</ele>
        <time>2022-03-27T07:05:54Z</time>
      </trkpt>
      <trkpt lat="49.06108" lon="1.93118">
        <ele>58.5</ele>
        <time>2022-03-27T07:05:58Z</time>
      </trkpt>
      <trkpt lat="49.06113" lon="1.9312">
        <ele>57.6</ele>
        <time>2022-03-27T07:06:02Z</time>
      </trkpt>
      <trkpt lat="49.06118" lon="1.93122">
        <ele>55.8</ele>
        <time>2022-03-27T07:06:05Z</time>
      </trkpt>
      <trkpt lat="49.06124" lon="1.93123">
        <ele>53.6</ele>
        <time>2022-03-27T07:06:10Z</time>
      </trkpt>
      <trkpt lat="49.06129" lon="1.93124">
        <ele>52</ele>
        <time>2022-03-27T07:06:14Z</time>
      </trkpt>
      <trkpt lat="49.06133" lon="1.93127">
        <ele>51.8</ele>
        <time>2022-03-27T07:06:18Z</time>
      </trkpt>
      <trkpt lat="49.06138" lon="1.93128">
        <ele>52.1</ele>
        <time>2022-03-27T07:06:22Z</time>
      </trkpt>
      <trkpt lat="49.06144" lon="1.93129">
        <ele>52.8</ele>
        <time>2022-03-27T07:06:26Z</time>
      </trkpt>
      <trkpt lat="49.06149" lon="1.9313">
        <ele>53.6</ele>
        <time>2022-03-27T07:06:30Z</time>
      </trkpt>
      <trkpt lat="49.06154" lon="1.93131">
        <ele>54.5</ele>
        <time>2022-03-27T07:06:34Z</time>
      </trkpt>
      <trkpt lat="49.06158" lon="1.93133">
        <ele>54.8</ele>
        <time>2022-03-27T07:06:38Z</time>
      </trkpt>
      <trkpt lat="49.06163" lon="1.93135">
        <ele>54.9</ele>
        <time>2022-03-27T07:06:42Z</time>
      </trkpt>
      <trkpt lat="49.06167" lon="1.93138">
        <ele>54.6</ele>
        <time>2022-03-27T07:06:46Z</time>
      </trkpt>
      <trkpt lat="49.06172" lon="1.93141">
        <ele>54.5</ele>
        <time>2022-03-27T07:06:51Z</time>
      </trkpt>
      <trkpt lat="49.06178" lon="1.93142">
        <ele>54.7</ele>
        <time>2022-03-27T07:06:54Z</time>
      </trkpt>
      <trkpt lat="49.06183" lon="1.93141">
        <ele>55.6</ele>
        <time>2022-03-27T07:06:58Z</time>
      </trkpt>
      <trkpt lat="49.06188" lon="1.93142">
        <ele>55.8</ele>
        <time>2022-03-27T07:07:02Z</time>
      </trkpt>
      <trkpt lat="49.06193" lon="1.93141">
        <ele>56</ele>
        <time>2022-03-27T07:07:06Z</time>
      </trkpt>
      <trkpt lat="49.06199" lon="1.93141">
        <ele>56.4</ele>
        <time>2022-03-27T07:07:10Z</time>
      </trkpt>
      <trkpt lat="49.06205" lon="1.93142">
        <ele>57.4</ele>
        <time>2022-03-27T07:07:14Z</time>
      </trkpt>
      <trkpt lat="49.0621" lon="1.93144">
        <ele>58.3</ele>
        <time>2022-03-27T07:07:18Z</time>
      </trkpt>
      <trkpt lat="49.06215" lon="1.93144">
        <ele>58.7</ele>
        <time>2022-03-27T07:07:21Z</time>
      </trkpt>
      <trkpt lat="49.06219" lon="1.93146">
        <ele>58.5</ele>
        <time>2022-03-27T07:07:25Z</time>
      </trkpt>
      <trkpt lat="49.06224" lon="1.93147">
        <ele>58.7</ele>
        <time>2022-03-27T07:07:29Z</time>
      </trkpt>
      <trkpt lat="49.06228" lon="1.93149">
        <ele>59.1</ele>
        <time>2022-03-27T07:07:32Z</time>
      </trkpt>
      <trkpt lat="49.06233" lon="1.93148">
        <ele>60.3</ele>
        <time>2022-03-27T07:07:39Z</time>
      </trkpt>
      <trkpt lat="49.06237" lon="1.93151">
        <ele>59.7</ele>
        <time>2022-03-27T07:07:42Z</time>
      </trkpt>
      <trkpt lat="49.06242" lon="1.93152">
        <ele>59.2</ele>
        <time>2022-03-27T07:07:46Z</time>
      </trkpt>
      <trkpt lat="49.06247" lon="1.93155">
        <ele>59.4</ele>
        <time>2022-03-27T07:07:50Z</time>
      </trkpt>
      <trkpt lat="49.06252" lon="1.93157">
        <ele>59.3</ele>
        <time>2022-03-27T07:07:54Z</time>
      </trkpt>
      <trkpt lat="49.06257" lon="1.93156">
        <ele>59.5</ele>
        <time>2022-03-27T07:07:59Z</time>
      </trkpt>
      <trkpt lat="49.06261" lon="1.93161">
        <ele>59.4</ele>
        <time>2022-03-27T07:08:03Z</time>
      </trkpt>
      <trkpt lat="49.06267" lon="1.93164">
        <ele>58.6</ele>
        <time>2022-03-27T07:08:08Z</time>
      </trkpt>
      <trkpt lat="49.06271" lon="1.93165">
        <ele>57.7</ele>
        <time>2022-03-27T07:08:12Z</time>
      </trkpt>
      <trkpt lat="49.06276" lon="1.93166">
        <ele>57.4</ele>
        <time>2022-03-27T07:08:16Z</time>
      </trkpt>
      <trkpt lat="49.0628" lon="1.9317">
        <ele>56.2</ele>
        <time>2022-03-27T07:08:20Z</time>
      </trkpt>
      <trkpt lat="49.06284" lon="1.93173">
        <ele>54.9</ele>
        <time>2022-03-27T07:08:24Z</time>
      </trkpt>
      <trkpt lat="49.06289" lon="1.93177">
        <ele>54.6</ele>
        <time>2022-03-27T07:08:28Z</time>
      </trkpt>
      <trkpt lat="49.06293" lon="1.93179">
        <ele>54.6</ele>
        <time>2022-03-27T07:08:31Z</time>
      </trkpt>
      <trkpt lat="49.06299" lon="1.93181">
        <ele>55</ele>
        <time>2022-03-27T07:08:35Z</time>
      </trkpt>
      <trkpt lat="49.06304" lon="1.93183">
        <ele>55.2</ele>
        <time>2022-03-27T07:08:39Z</time>
      </trkpt>
      <trkpt lat="49.0631" lon="1.93186">
        <ele>54.9</ele>
        <time>2022-03-27T07:08:43Z</time>
      </trkpt>
      <trkpt lat="49.06315" lon="1.93189">
        <ele>54.8</ele>
        <time>2022-03-27T07:08:47Z</time>
      </trkpt>
      <trkpt lat="49.0632" lon="1.9319">
        <ele>55.1</ele>
        <time>2022-03-27T07:08:50Z</time>
      </trkpt>
      <trkpt lat="49.06325" lon="1.9319">
        <ele>55.6</ele>
        <time>2022-03-27T07:08:53Z</time>
      </trkpt>
      <trkpt lat="49.0633" lon="1.93194">
        <ele>54.9</ele>
        <time>2022-03-27T07:08:57Z</time>
      </trkpt>
      <trkpt lat="49.06331" lon="1.93201">
        <ele>54.5</ele>
        <time>2022-03-27T07:09:00Z</time>
      </trkpt>
      <trkpt lat="49.06333" lon="1.93208">
        <ele>54.4</ele>
        <time>2022-03-27T07:09:03Z</time>
      </trkpt>
      <trkpt lat="49.06334" lon="1.93215">
        <ele>55.3</ele>
        <time>2022-03-27T07:09:06Z</time>
      </trkpt>
      <trkpt lat="49.06335" lon="1.93223">
        <ele>54.5</ele>
        <time>2022-03-27T07:09:10Z</time>
      </trkpt>
      <trkpt lat="49.06335" lon="1.93231">
        <ele>53.4</ele>
        <time>2022-03-27T07:09:14Z</time>
      </trkpt>
      <trkpt lat="49.06335" lon="1.93239">
        <ele>53.3</ele>
        <time>2022-03-27T07:09:18Z</time>
      </trkpt>
      <trkpt lat="49.06336" lon="1.93247">
        <ele>53.5</ele>
        <time>2022-03-27T07:09:22Z</time>
      </trkpt>
      <trkpt lat="49.06337" lon="1.93255">
        <ele>53.4</ele>
        <time>2022-03-27T07:09:26Z</time>
      </trkpt>
      <trkpt lat="49.0634" lon="1.93262">
        <ele>53.8</ele>
        <time>2022-03-27T07:09:29Z</time>
      </trkpt>
      <trkpt lat="49.06342" lon="1.93269">
        <ele>55</ele>
        <time>2022-03-27T07:09:33Z</time>
      </trkpt>
      <trkpt lat="49.06345" lon="1.93276">
        <ele>55</ele>
        <time>2022-03-27T07:09:37Z</time>
      </trkpt>
      <trkpt lat="49.06347" lon="1.93284">
        <ele>55.6</ele>
        <time>2022-03-27T07:09:41Z</time>
      </trkpt>
      <trkpt lat="49.06349" lon="1.93291">
        <ele>56.4</ele>
        <time>2022-03-27T07:09:46Z</time>
      </trkpt>
      <trkpt lat="49.06349" lon="1.93299">
        <ele>56.3</ele>
        <time>2022-03-27T07:09:49Z</time>
      </trkpt>
      <trkpt lat="49.06351" lon="1.93306">
        <ele>55.4</ele>
        <time>2022-03-27T07:09:53Z</time>
      </trkpt>
      <trkpt lat="49.06353" lon="1.93314">
        <ele>52.9</ele>
        <time>2022-03-27T07:09:58Z</time>
      </trkpt>
      <trkpt lat="49.06355" lon="1.93323">
        <ele>52.1</ele>
        <time>2022-03-27T07:10:02Z</time>
      </trkpt>
      <trkpt lat="49.06356" lon="1.93331">
        <ele>52.7</ele>
        <time>2022-03-27T07:10:06Z</time>
      </trkpt>
      <trkpt lat="49.06358" lon="1.9334">
        <ele>53</ele>
        <time>2022-03-27T07:10:10Z</time>
      </trkpt>
      <trkpt lat="49.0636" lon="1.93347">
        <ele>53.4</ele>
        <time>2022-03-27T07:10:14Z</time>
      </trkpt>
      <trkpt lat="49.06361" lon="1.93355">
        <ele>54</ele>
        <time>2022-03-27T07:10:18Z</time>
      </trkpt>
      <trkpt lat="49.06362" lon="1.93363">
        <ele>54.5</ele>
        <time>2022-03-27T07:10:22Z</time>
      </trkpt>
      <trkpt lat="49.06362" lon="1.93371">
        <ele>54.6</ele>
        <time>2022-03-27T07:10:26Z</time>
      </trkpt>
      <trkpt lat="49.06364" lon="1.93378">
        <ele>54.8</ele>
        <time>2022-03-27T07:10:30Z</time>
      </trkpt>
      <trkpt lat="49.06365" lon="1.93385">
        <ele>54.9</ele>
        <time>2022-03-27T07:10:34Z</time>
      </trkpt>
      <trkpt lat="49.06367" lon="1.93391">
        <ele>55</ele>
        <time>2022-03-27T07:10:38Z</time>
      </trkpt>
      <trkpt lat="49.06369" lon="1.93398">
        <ele>54.3</ele>
        <time>2022-03-27T07:10:44Z</time>
      </trkpt>
      <trkpt lat="49.0637" lon="1.93406">
        <ele>53.1</ele>
        <time>2022-03-27T07:10:48Z</time>
      </trkpt>
      <trkpt lat="49.06373" lon="1.93413">
        <ele>52.7</ele>
        <time>2022-03-27T07:10:52Z</time>
      </trkpt>
      <trkpt lat="49.06374" lon="1.93422">
        <ele>52.3</ele>
        <time>2022-03-27T07:10:57Z</time>
      </trkpt>
      <trkpt lat="49.06373" lon="1.93429">
        <ele>51.8</ele>
        <time>2022-03-27T07:11:01Z</time>
      </trkpt>
      <trkpt lat="49.06371" lon="1.93436">
        <ele>51.4</ele>
        <time>2022-03-27T07:11:06Z</time>
      </trkpt>
      <trkpt lat="49.06366" lon="1.93441">
        <ele>51.6</ele>
        <time>2022-03-27T07:11:09Z</time>
      </trkpt>
      <trkpt lat="49.06361" lon="1.93444">
        <ele>51.9</ele>
        <time>2022-03-27T07:11:13Z</time>
      </trkpt>
      <trkpt lat="49.06356" lon="1.93448">
        <ele>52.3</ele>
        <time>2022-03-27T07:11:17Z</time>
      </trkpt>
      <trkpt lat="49.06351" lon="1.93451">
        <ele>52.6</ele>
        <time>2022-03-27T07:11:22Z</time>
      </trkpt>
      <trkpt lat="49.06346" lon="1.93455">
        <ele>52.4</ele>
        <time>2022-03-27T07:11:25Z</time>
      </trkpt>
      <trkpt lat="49.06342" lon="1.93459">
        <ele>52.1</ele>
        <time>2022-03-27T07:11:30Z</time>
      </trkpt>
      <trkpt lat="49.06338" lon="1.93463">
        <ele>52.3</ele>
        <time>2022-03-27T07:11:34Z</time>
      </trkpt>
      <trkpt lat="49.06333" lon="1.93466">
        <ele>53.5</ele>
        <time>2022-03-27T07:11:39Z</time>
      </trkpt>
      <trkpt lat="49.0633" lon="1.93471">
        <ele>54.9</ele>
        <time>2022-03-27T07:11:43Z</time>
      </trkpt>
      <trkpt lat="49.06327" lon="1.93477">
        <ele>56</ele>
        <time>2022-03-27T07:11:46Z</time>
      </trkpt>
      <trkpt lat="49.06327" lon="1.93484">
        <ele>57.2</ele>
        <time>2022-03-27T07:11:50Z</time>
      </trkpt>
      <trkpt lat="49.06326" lon="1.93492">
        <ele>58</ele>
        <time>2022-03-27T07:11:54Z</time>
      </trkpt>
      <trkpt lat="49.06324" lon="1.93499">
        <ele>57.3</ele>
        <time>2022-03-27T07:11:58Z</time>
      </trkpt>
      <trkpt lat="49.06323" lon="1.93507">
        <ele>55.8</ele>
        <time>2022-03-27T07:12:03Z</time>
      </trkpt>
      <trkpt lat="49.06323" lon="1.93515">
        <ele>56.4</ele>
        <time>2022-03-27T07:12:08Z</time>
      </trkpt>
      <trkpt lat="49.06324" lon="1.93523">
        <ele>57.8</ele>
        <time>2022-03-27T07:12:12Z</time>
      </trkpt>
      <trkpt lat="49.06328" lon="1.93519">
        <ele>55.7</ele>
        <time>2022-03-27T07:12:21Z</time>
      </trkpt>
      <trkpt lat="49.06332" lon="1.93514">
        <ele>54.4</ele>
        <time>2022-03-27T07:12:31Z</time>
      </trkpt>
      <trkpt lat="49.06326" lon="1.93516">
        <ele>51.3</ele>
        <time>2022-03-27T07:12:51Z</time>
      </trkpt>
      <trkpt lat="49.06324" lon="1.93524">
        <ele>51.7</ele>
        <time>2022-03-27T07:12:55Z</time>
      </trkpt>
      <trkpt lat="49.06326" lon="1.93531">
        <ele>52.6</ele>
        <time>2022-03-27T07:12:59Z</time>
      </trkpt>
      <trkpt lat="49.0633" lon="1.93536">
        <ele>54.9</ele>
        <time>2022-03-27T07:13:04Z</time>
      </trkpt>
      <trkpt lat="49.06332" lon="1.93544">
        <ele>56.3</ele>
        <time>2022-03-27T07:13:07Z</time>
      </trkpt>
      <trkpt lat="49.06336" lon="1.9355">
        <ele>57.5</ele>
        <time>2022-03-27T07:13:10Z</time>
      </trkpt>
      <trkpt lat="49.06339" lon="1.93554">
        <ele>58.3</ele>
        <time>2022-03-27T07:13:12Z</time>
      </trkpt>
      <trkpt lat="49.06342" lon="1.93561">
        <ele>59.3</ele>
        <time>2022-03-27T07:13:15Z</time>
      </trkpt>
      <trkpt lat="49.06346" lon="1.93568">
        <ele>59.5</ele>
        <time>2022-03-27T07:13:19Z</time>
      </trkpt>
      <trkpt lat="49.06348" lon="1.93575">
        <ele>59.2</ele>
        <time>2022-03-27T07:13:23Z</time>
      </trkpt>
      <trkpt lat="49.06353" lon="1.93576">
        <ele>57.6</ele>
        <time>2022-03-27T07:13:30Z</time>
      </trkpt>
      <trkpt lat="49.06356" lon="1.93582">
        <ele>56.8</ele>
        <time>2022-03-27T07:13:35Z</time>
      </trkpt>
      <trkpt lat="49.06353" lon="1.93576">
        <ele>57.5</ele>
        <time>2022-03-27T07:13:45Z</time>
      </trkpt>
      <trkpt lat="49.06353" lon="1.93584">
        <ele>56.8</ele>
        <time>2022-03-27T07:14:02Z</time>
      </trkpt>
      <trkpt lat="49.06356" lon="1.9359">
        <ele>56</ele>
        <time>2022-03-27T07:14:05Z</time>
      </trkpt>
      <trkpt lat="49.0636" lon="1.93595">
        <ele>55.3</ele>
        <time>2022-03-27T07:14:09Z</time>
      </trkpt>
      <trkpt lat="49.06363" lon="1.93601">
        <ele>55</ele>
        <time>2022-03-27T07:14:13Z</time>
      </trkpt>
      <trkpt lat="49.06365" lon="1.93608">
        <ele>55</ele>
        <time>2022-03-27T07:14:18Z</time>
      </trkpt>
      <trkpt lat="49.06368" lon="1.93615">
        <ele>55.4</ele>
        <time>2022-03-27T07:14:21Z</time>
      </trkpt>
      <trkpt lat="49.06372" lon="1.93622">
        <ele>55.9</ele>
        <time>2022-03-27T07:14:25Z</time>
      </trkpt>
      <trkpt lat="49.06376" lon="1.93627">
        <ele>56</ele>
        <time>2022-03-27T07:14:29Z</time>
      </trkpt>
      <trkpt lat="49.0638" lon="1.93631">
        <ele>56.3</ele>
        <time>2022-03-27T07:14:33Z</time>
      </trkpt>
      <trkpt lat="49.06384" lon="1.93637">
        <ele>56.6</ele>
        <time>2022-03-27T07:14:38Z</time>
      </trkpt>
      <trkpt lat="49.06388" lon="1.93643">
        <ele>57.5</ele>
        <time>2022-03-27T07:14:41Z</time>
      </trkpt>
      <trkpt lat="49.06391" lon="1.93648">
        <ele>59.2</ele>
        <time>2022-03-27T07:14:46Z</time>
      </trkpt>
      <trkpt lat="49.06395" lon="1.93653">
        <ele>61</ele>
        <time>2022-03-27T07:14:49Z</time>
      </trkpt>
      <trkpt lat="49.06399" lon="1.93659">
        <ele>62.9</ele>
        <time>2022-03-27T07:14:53Z</time>
      </trkpt>
      <trkpt lat="49.06403" lon="1.93665">
        <ele>64.6</ele>
        <time>2022-03-27T07:14:57Z</time>
      </trkpt>
      <trkpt lat="49.06406" lon="1.93673">
        <ele>65</ele>
        <time>2022-03-27T07:15:01Z</time>
      </trkpt>
      <trkpt lat="49.06408" lon="1.93679">
        <ele>63.7</ele>
        <time>2022-03-27T07:15:05Z</time>
      </trkpt>
      <trkpt lat="49.06411" lon="1.93686">
        <ele>62.1</ele>
        <time>2022-03-27T07:15:09Z</time>
      </trkpt>
      <trkpt lat="49.06415" lon="1.93691">
        <ele>61.2</ele>
        <time>2022-03-27T07:15:13Z</time>
      </trkpt>
      <trkpt lat="49.06419" lon="1.93696">
        <ele>60.5</ele>
        <time>2022-03-27T07:15:17Z</time>
      </trkpt>
      <trkpt lat="49.06422" lon="1.93702">
        <ele>60</ele>
        <time>2022-03-27T07:15:21Z</time>
      </trkpt>
      <trkpt lat="49.06426" lon="1.93709">
        <ele>59.2</ele>
        <time>2022-03-27T07:15:25Z</time>
      </trkpt>
      <trkpt lat="49.06429" lon="1.93714">
        <ele>59.2</ele>
        <time>2022-03-27T07:15:28Z</time>
      </trkpt>
      <trkpt lat="49.06433" lon="1.9372">
        <ele>59.6</ele>
        <time>2022-03-27T07:15:32Z</time>
      </trkpt>
      <trkpt lat="49.06433" lon="1.93728">
        <ele>59.6</ele>
        <time>2022-03-27T07:15:36Z</time>
      </trkpt>
      <trkpt lat="49.06427" lon="1.93731">
        <ele>59.7</ele>
        <time>2022-03-27T07:15:41Z</time>
      </trkpt>
      <trkpt lat="49.06423" lon="1.93734">
        <ele>59.9</ele>
        <time>2022-03-27T07:15:45Z</time>
      </trkpt>
      <trkpt lat="49.06418" lon="1.93737">
        <ele>60.1</ele>
        <time>2022-03-27T07:15:49Z</time>
      </trkpt>
      <trkpt lat="49.06414" lon="1.93741">
        <ele>60.2</ele>
        <time>2022-03-27T07:15:53Z</time>
      </trkpt>
      <trkpt lat="49.06411" lon="1.93746">
        <ele>60.4</ele>
        <time>2022-03-27T07:15:57Z</time>
      </trkpt>
      <trkpt lat="49.06406" lon="1.9375">
        <ele>60.4</ele>
        <time>2022-03-27T07:16:02Z</time>
      </trkpt>
      <trkpt lat="49.06402" lon="1.93755">
        <ele>60.5</ele>
        <time>2022-03-27T07:16:06Z</time>
      </trkpt>
      <trkpt lat="49.06398" lon="1.9376">
        <ele>61</ele>
        <time>2022-03-27T07:16:10Z</time>
      </trkpt>
      <trkpt lat="49.06394" lon="1.93765">
        <ele>62.7</ele>
        <time>2022-03-27T07:16:14Z</time>
      </trkpt>
      <trkpt lat="49.0639" lon="1.93769">
        <ele>63.5</ele>
        <time>2022-03-27T07:16:18Z</time>
      </trkpt>
      <trkpt lat="49.06386" lon="1.93773">
        <ele>63.7</ele>
        <time>2022-03-27T07:16:22Z</time>
      </trkpt>
      <trkpt lat="49.06382" lon="1.93777">
        <ele>64</ele>
        <time>2022-03-27T07:16:26Z</time>
      </trkpt>
      <trkpt lat="49.06378" lon="1.93781">
        <ele>64.3</ele>
        <time>2022-03-27T07:16:30Z</time>
      </trkpt>
      <trkpt lat="49.06374" lon="1.93786">
        <ele>63.9</ele>
        <time>2022-03-27T07:16:34Z</time>
      </trkpt>
      <trkpt lat="49.06369" lon="1.93793">
        <ele>62.6</ele>
        <time>2022-03-27T07:16:39Z</time>
      </trkpt>
      <trkpt lat="49.06366" lon="1.93799">
        <ele>61.4</ele>
        <time>2022-03-27T07:16:43Z</time>
      </trkpt>
      <trkpt lat="49.06362" lon="1.93804">
        <ele>60.9</ele>
        <time>2022-03-27T07:16:47Z</time>
      </trkpt>
      <trkpt lat="49.06358" lon="1.93808">
        <ele>61</ele>
        <time>2022-03-27T07:16:50Z</time>
      </trkpt>
      <trkpt lat="49.06354" lon="1.93814">
        <ele>61.3</ele>
        <time>2022-03-27T07:16:54Z</time>
      </trkpt>
      <trkpt lat="49.0635" lon="1.9382">
        <ele>61.6</ele>
        <time>2022-03-27T07:16:59Z</time>
      </trkpt>
      <trkpt lat="49.06346" lon="1.93827">
        <ele>62.1</ele>
        <time>2022-03-27T07:17:03Z</time>
      </trkpt>
      <trkpt lat="49.06343" lon="1.93832">
        <ele>62.9</ele>
        <time>2022-03-27T07:17:07Z</time>
      </trkpt>
      <trkpt lat="49.06339" lon="1.93838">
        <ele>63.4</ele>
        <time>2022-03-27T07:17:11Z</time>
      </trkpt>
      <trkpt lat="49.06335" lon="1.93844">
        <ele>64</ele>
        <time>2022-03-27T07:17:15Z</time>
      </trkpt>
      <trkpt lat="49.06331" lon="1.93849">
        <ele>63.8</ele>
        <time>2022-03-27T07:17:19Z</time>
      </trkpt>
      <trkpt lat="49.06327" lon="1.93854">
        <ele>63.1</ele>
        <time>2022-03-27T07:17:23Z</time>
      </trkpt>
      <trkpt lat="49.06324" lon="1.9386">
        <ele>62.6</ele>
        <time>2022-03-27T07:17:27Z</time>
      </trkpt>
      <trkpt lat="49.06321" lon="1.93866">
        <ele>63.5</ele>
        <time>2022-03-27T07:17:31Z</time>
      </trkpt>
      <trkpt lat="49.06318" lon="1.93873">
        <ele>64.8</ele>
        <time>2022-03-27T07:17:35Z</time>
      </trkpt>
      <trkpt lat="49.06315" lon="1.93879">
        <ele>66.6</ele>
        <time>2022-03-27T07:17:39Z</time>
      </trkpt>
      <trkpt lat="49.06312" lon="1.93886">
        <ele>67.8</ele>
        <time>2022-03-27T07:17:44Z</time>
      </trkpt>
      <trkpt lat="49.06309" lon="1.93893">
        <ele>67.9</ele>
        <time>2022-03-27T07:17:48Z</time>
      </trkpt>
      <trkpt lat="49.06307" lon="1.93899">
        <ele>68.7</ele>
        <time>2022-03-27T07:17:52Z</time>
      </trkpt>
      <trkpt lat="49.06303" lon="1.93904">
        <ele>70.1</ele>
        <time>2022-03-27T07:17:56Z</time>
      </trkpt>
      <trkpt lat="49.06299" lon="1.93909">
        <ele>70.7</ele>
        <time>2022-03-27T07:18:00Z</time>
      </trkpt>
      <trkpt lat="49.06297" lon="1.93916">
        <ele>70.9</ele>
        <time>2022-03-27T07:18:04Z</time>
      </trkpt>
      <trkpt lat="49.06293" lon="1.93921">
        <ele>70.8</ele>
        <time>2022-03-27T07:18:08Z</time>
      </trkpt>
      <trkpt lat="49.06289" lon="1.93926">
        <ele>71.7</ele>
        <time>2022-03-27T07:18:12Z</time>
      </trkpt>
      <trkpt lat="49.06285" lon="1.93932">
        <ele>73.3</ele>
        <time>2022-03-27T07:18:16Z</time>
      </trkpt>
      <trkpt lat="49.06282" lon="1.93938">
        <ele>73.7</ele>
        <time>2022-03-27T07:18:20Z</time>
      </trkpt>
      <trkpt lat="49.06278" lon="1.93943">
        <ele>73.4</ele>
        <time>2022-03-27T07:18:24Z</time>
      </trkpt>
      <trkpt lat="49.06274" lon="1.93949">
        <ele>73.1</ele>
        <time>2022-03-27T07:18:28Z</time>
      </trkpt>
      <trkpt lat="49.06271" lon="1.93954">
        <ele>72.9</ele>
        <time>2022-03-27T07:18:32Z</time>
      </trkpt>
      <trkpt lat="49.06267" lon="1.9396">
        <ele>72.4</ele>
        <time>2022-03-27T07:18:36Z</time>
      </trkpt>
      <trkpt lat="49.06264" lon="1.93966">
        <ele>72.2</ele>
        <time>2022-03-27T07:18:40Z</time>
      </trkpt>
      <trkpt lat="49.06261" lon="1.93972">
        <ele>72.4</ele>
        <time>2022-03-27T07:18:44Z</time>
      </trkpt>
      <trkpt lat="49.06258" lon="1.93979">
        <ele>73.1</ele>
        <time>2022-03-27T07:18:48Z</time>
      </trkpt>
      <trkpt lat="49.06254" lon="1.93985">
        <ele>74.1</ele>
        <time>2022-03-27T07:18:52Z</time>
      </trkpt>
      <trkpt lat="49.0625" lon="1.93991">
        <ele>74.7</ele>
        <time>2022-03-27T07:18:57Z</time>
      </trkpt>
      <trkpt lat="49.06248" lon="1.93997">
        <ele>74.5</ele>
        <time>2022-03-27T07:19:01Z</time>
      </trkpt>
      <trkpt lat="49.06245" lon="1.94003">
        <ele>74.4</ele>
        <time>2022-03-27T07:19:05Z</time>
      </trkpt>
      <trkpt lat="49.06241" lon="1.94009">
        <ele>74.5</ele>
        <time>2022-03-27T07:19:09Z</time>
      </trkpt>
      <trkpt lat="49.06238" lon="1.94015">
        <ele>74.7</ele>
        <time>2022-03-27T07:19:13Z</time>
      </trkpt>
      <trkpt lat="49.06235" lon="1.94022">
        <ele>74.6</ele>
        <time>2022-03-27T07:19:17Z</time>
      </trkpt>
      <trkpt lat="49.06232" lon="1.94027">
        <ele>74.7</ele>
        <time>2022-03-27T07:19:21Z</time>
      </trkpt>
      <trkpt lat="49.06229" lon="1.94033">
        <ele>74.6</ele>
        <time>2022-03-27T07:19:25Z</time>
      </trkpt>
      <trkpt lat="49.06226" lon="1.94039">
        <ele>74.3</ele>
        <time>2022-03-27T07:19:29Z</time>
      </trkpt>
      <trkpt lat="49.06223" lon="1.94045">
        <ele>73.6</ele>
        <time>2022-03-27T07:19:33Z</time>
      </trkpt>
      <trkpt lat="49.06219" lon="1.94052">
        <ele>73.4</ele>
        <time>2022-03-27T07:19:37Z</time>
      </trkpt>
      <trkpt lat="49.06216" lon="1.94059">
        <ele>73.2</ele>
        <time>2022-03-27T07:19:42Z</time>
      </trkpt>
      <trkpt lat="49.06213" lon="1.94066">
        <ele>73.2</ele>
        <time>2022-03-27T07:19:46Z</time>
      </trkpt>
      <trkpt lat="49.0621" lon="1.94071">
        <ele>73.5</ele>
        <time>2022-03-27T07:19:50Z</time>
      </trkpt>
      <trkpt lat="49.06206" lon="1.94077">
        <ele>73.8</ele>
        <time>2022-03-27T07:19:53Z</time>
      </trkpt>
      <trkpt lat="49.06203" lon="1.94082">
        <ele>73.8</ele>
        <time>2022-03-27T07:19:57Z</time>
      </trkpt>
      <trkpt lat="49.06199" lon="1.94088">
        <ele>73.8</ele>
        <time>2022-03-27T07:20:01Z</time>
      </trkpt>
      <trkpt lat="49.06195" lon="1.94095">
        <ele>73.8</ele>
        <time>2022-03-27T07:20:05Z</time>
      </trkpt>
      <trkpt lat="49.06192" lon="1.94101">
        <ele>73.5</ele>
        <time>2022-03-27T07:20:09Z</time>
      </trkpt>
      <trkpt lat="49.06188" lon="1.94107">
        <ele>72.9</ele>
        <time>2022-03-27T07:20:13Z</time>
      </trkpt>
      <trkpt lat="49.06184" lon="1.94113">
        <ele>72.6</ele>
        <time>2022-03-27T07:20:17Z</time>
      </trkpt>
      <trkpt lat="49.06181" lon="1.94117">
        <ele>73</ele>
        <time>2022-03-27T07:20:21Z</time>
      </trkpt>
      <trkpt lat="49.06178" lon="1.94123">
        <ele>73.3</ele>
        <time>2022-03-27T07:20:24Z</time>
      </trkpt>
      <trkpt lat="49.06174" lon="1.94129">
        <ele>73.5</ele>
        <time>2022-03-27T07:20:28Z</time>
      </trkpt>
      <trkpt lat="49.06171" lon="1.94136">
        <ele>73.3</ele>
        <time>2022-03-27T07:20:32Z</time>
      </trkpt>
      <trkpt lat="49.06167" lon="1.94142">
        <ele>72.7</ele>
        <time>2022-03-27T07:20:36Z</time>
      </trkpt>
      <trkpt lat="49.06164" lon="1.94149">
        <ele>72</ele>
        <time>2022-03-27T07:20:40Z</time>
      </trkpt>
      <trkpt lat="49.0616" lon="1.94154">
        <ele>71.7</ele>
        <time>2022-03-27T07:20:44Z</time>
      </trkpt>
      <trkpt lat="49.06156" lon="1.9416">
        <ele>71.5</ele>
        <time>2022-03-27T07:20:49Z</time>
      </trkpt>
      <trkpt lat="49.06152" lon="1.94165">
        <ele>71.4</ele>
        <time>2022-03-27T07:20:52Z</time>
      </trkpt>
      <trkpt lat="49.06149" lon="1.94171">
        <ele>71</ele>
        <time>2022-03-27T07:20:56Z</time>
      </trkpt>
      <trkpt lat="49.06145" lon="1.94177">
        <ele>70.7</ele>
        <time>2022-03-27T07:21:00Z</time>
      </trkpt>
      <trkpt lat="49.06142" lon="1.94184">
        <ele>70.2</ele>
        <time>2022-03-27T07:21:04Z</time>
      </trkpt>
      <trkpt lat="49.06139" lon="1.9419">
        <ele>69.8</ele>
        <time>2022-03-27T07:21:08Z</time>
      </trkpt>
      <trkpt lat="49.06136" lon="1.94195">
        <ele>69.4</ele>
        <time>2022-03-27T07:21:12Z</time>
      </trkpt>
      <trkpt lat="49.06132" lon="1.942">
        <ele>68.8</ele>
        <time>2022-03-27T07:21:17Z</time>
      </trkpt>
      <trkpt lat="49.06128" lon="1.94206">
        <ele>68.9</ele>
        <time>2022-03-27T07:21:21Z</time>
      </trkpt>
      <trkpt lat="49.06124" lon="1.94213">
        <ele>68.9</ele>
        <time>2022-03-27T07:21:25Z</time>
      </trkpt>
      <trkpt lat="49.06121" lon="1.94218">
        <ele>68.9</ele>
        <time>2022-03-27T07:21:29Z</time>
      </trkpt>
      <trkpt lat="49.06117" lon="1.94224">
        <ele>68.6</ele>
        <time>2022-03-27T07:21:33Z</time>
      </trkpt>
      <trkpt lat="49.06113" lon="1.94229">
        <ele>68.3</ele>
        <time>2022-03-27T07:21:37Z</time>
      </trkpt>
      <trkpt lat="49.06109" lon="1.94234">
        <ele>68.1</ele>
        <time>2022-03-27T07:21:41Z</time>
      </trkpt>
      <trkpt lat="49.06106" lon="1.9424">
        <ele>68.2</ele>
        <time>2022-03-27T07:21:45Z</time>
      </trkpt>
      <trkpt lat="49.06103" lon="1.94247">
        <ele>67.6</ele>
        <time>2022-03-27T07:21:49Z</time>
      </trkpt>
      <trkpt lat="49.061" lon="1.94253">
        <ele>67.2</ele>
        <time>2022-03-27T07:21:53Z</time>
      </trkpt>
      <trkpt lat="49.06096" lon="1.94258">
        <ele>67</ele>
        <time>2022-03-27T07:21:57Z</time>
      </trkpt>
      <trkpt lat="49.06093" lon="1.94264">
        <ele>66.7</ele>
        <time>2022-03-27T07:22:01Z</time>
      </trkpt>
      <trkpt lat="49.06089" lon="1.94271">
        <ele>66</ele>
        <time>2022-03-27T07:22:05Z</time>
      </trkpt>
      <trkpt lat="49.06086" lon="1.94277">
        <ele>65.4</ele>
        <time>2022-03-27T07:22:09Z</time>
      </trkpt>
      <trkpt lat="49.06083" lon="1.94282">
        <ele>65.2</ele>
        <time>2022-03-27T07:22:12Z</time>
      </trkpt>
      <trkpt lat="49.06079" lon="1.94287">
        <ele>64.9</ele>
        <time>2022-03-27T07:22:16Z</time>
      </trkpt>
      <trkpt lat="49.06075" lon="1.94293">
        <ele>64.9</ele>
        <time>2022-03-27T07:22:21Z</time>
      </trkpt>
      <trkpt lat="49.06072" lon="1.94298">
        <ele>64.6</ele>
        <time>2022-03-27T07:22:24Z</time>
      </trkpt>
      <trkpt lat="49.06068" lon="1.94304">
        <ele>64.6</ele>
        <time>2022-03-27T07:22:29Z</time>
      </trkpt>
      <trkpt lat="49.06065" lon="1.9431">
        <ele>64.6</ele>
        <time>2022-03-27T07:22:32Z</time>
      </trkpt>
      <trkpt lat="49.06061" lon="1.94315">
        <ele>64.4</ele>
        <time>2022-03-27T07:22:35Z</time>
      </trkpt>
      <trkpt lat="49.06058" lon="1.94321">
        <ele>64.1</ele>
        <time>2022-03-27T07:22:39Z</time>
      </trkpt>
      <trkpt lat="49.06054" lon="1.94327">
        <ele>64.3</ele>
        <time>2022-03-27T07:22:43Z</time>
      </trkpt>
      <trkpt lat="49.0605" lon="1.94332">
        <ele>64.8</ele>
        <time>2022-03-27T07:22:47Z</time>
      </trkpt>
      <trkpt lat="49.06046" lon="1.94338">
        <ele>65.5</ele>
        <time>2022-03-27T07:22:51Z</time>
      </trkpt>
      <trkpt lat="49.06042" lon="1.94343">
        <ele>65.9</ele>
        <time>2022-03-27T07:22:55Z</time>
      </trkpt>
      <trkpt lat="49.06038" lon="1.94348">
        <ele>66.4</ele>
        <time>2022-03-27T07:22:59Z</time>
      </trkpt>
      <trkpt lat="49.06035" lon="1.94353">
        <ele>66.4</ele>
        <time>2022-03-27T07:23:02Z</time>
      </trkpt>
      <trkpt lat="49.06032" lon="1.94359">
        <ele>66.3</ele>
        <time>2022-03-27T07:23:06Z</time>
      </trkpt>
      <trkpt lat="49.06028" lon="1.94364">
        <ele>65.7</ele>
        <time>2022-03-27T07:23:09Z</time>
      </trkpt>
      <trkpt lat="49.06025" lon="1.94369">
        <ele>65.1</ele>
        <time>2022-03-27T07:23:12Z</time>
      </trkpt>
      <trkpt lat="49.06022" lon="1.94375">
        <ele>65</ele>
        <time>2022-03-27T07:23:16Z</time>
      </trkpt>
      <trkpt lat="49.06018" lon="1.9438">
        <ele>65.4</ele>
        <time>2022-03-27T07:23:20Z</time>
      </trkpt>
      <trkpt lat="49.06015" lon="1.94385">
        <ele>65.8</ele>
        <time>2022-03-27T07:23:23Z</time>
      </trkpt>
      <trkpt lat="49.06011" lon="1.94391">
        <ele>66.1</ele>
        <time>2022-03-27T07:23:27Z</time>
      </trkpt>
      <trkpt lat="49.06007" lon="1.94395">
        <ele>66.3</ele>
        <time>2022-03-27T07:23:30Z</time>
      </trkpt>
      <trkpt lat="49.06003" lon="1.944">
        <ele>66.4</ele>
        <time>2022-03-27T07:23:34Z</time>
      </trkpt>
      <trkpt lat="49.06" lon="1.94406">
        <ele>66.1</ele>
        <time>2022-03-27T07:23:38Z</time>
      </trkpt>
      <trkpt lat="49.05996" lon="1.94412">
        <ele>65.2</ele>
        <time>2022-03-27T07:23:42Z</time>
      </trkpt>
      <trkpt lat="49.05991" lon="1.94418">
        <ele>64.3</ele>
        <time>2022-03-27T07:23:46Z</time>
      </trkpt>
      <trkpt lat="49.05989" lon="1.94425">
        <ele>64.1</ele>
        <time>2022-03-27T07:23:50Z</time>
      </trkpt>
      <trkpt lat="49.05986" lon="1.94431">
        <ele>63.9</ele>
        <time>2022-03-27T07:23:53Z</time>
      </trkpt>
      <trkpt lat="49.05983" lon="1.94437">
        <ele>63.7</ele>
        <time>2022-03-27T07:23:57Z</time>
      </trkpt>
      <trkpt lat="49.0598" lon="1.94444">
        <ele>63.5</ele>
        <time>2022-03-27T07:24:01Z</time>
      </trkpt>
      <trkpt lat="49.05978" lon="1.9445">
        <ele>63.5</ele>
        <time>2022-03-27T07:24:05Z</time>
      </trkpt>
      <trkpt lat="49.05975" lon="1.94458">
        <ele>63.6</ele>
        <time>2022-03-27T07:24:09Z</time>
      </trkpt>
      <trkpt lat="49.05971" lon="1.94464">
        <ele>63.7</ele>
        <time>2022-03-27T07:24:13Z</time>
      </trkpt>
      <trkpt lat="49.05968" lon="1.9447">
        <ele>63.5</ele>
        <time>2022-03-27T07:24:17Z</time>
      </trkpt>
      <trkpt lat="49.05965" lon="1.94477">
        <ele>63</ele>
        <time>2022-03-27T07:24:21Z</time>
      </trkpt>
      <trkpt lat="49.05963" lon="1.94484">
        <ele>61.3</ele>
        <time>2022-03-27T07:24:25Z</time>
      </trkpt>
      <trkpt lat="49.05961" lon="1.94491">
        <ele>60.7</ele>
        <time>2022-03-27T07:24:28Z</time>
      </trkpt>
      <trkpt lat="49.05959" lon="1.94498">
        <ele>60.7</ele>
        <time>2022-03-27T07:24:32Z</time>
      </trkpt>
      <trkpt lat="49.05956" lon="1.94504">
        <ele>61.1</ele>
        <time>2022-03-27T07:24:36Z</time>
      </trkpt>
      <trkpt lat="49.05954" lon="1.94512">
        <ele>61.2</ele>
        <time>2022-03-27T07:24:41Z</time>
      </trkpt>
      <trkpt lat="49.05951" lon="1.94519">
        <ele>61.3</ele>
        <time>2022-03-27T07:24:45Z</time>
      </trkpt>
      <trkpt lat="49.05948" lon="1.94526">
        <ele>61.8</ele>
        <time>2022-03-27T07:24:49Z</time>
      </trkpt>
      <trkpt lat="49.05945" lon="1.94533">
        <ele>62.6</ele>
        <time>2022-03-27T07:24:53Z</time>
      </trkpt>
      <trkpt lat="49.05943" lon="1.9454">
        <ele>63.3</ele>
        <time>2022-03-27T07:24:57Z</time>
      </trkpt>
      <trkpt lat="49.0594" lon="1.94547">
        <ele>64.1</ele>
        <time>2022-03-27T07:25:01Z</time>
      </trkpt>
      <trkpt lat="49.05938" lon="1.94554">
        <ele>64.5</ele>
        <time>2022-03-27T07:25:06Z</time>
      </trkpt>
      <trkpt lat="49.05935" lon="1.94562">
        <ele>64.6</ele>
        <time>2022-03-27T07:25:10Z</time>
      </trkpt>
      <trkpt lat="49.05933" lon="1.94569">
        <ele>64.7</ele>
        <time>2022-03-27T07:25:14Z</time>
      </trkpt>
      <trkpt lat="49.0593" lon="1.94578">
        <ele>64.9</ele>
        <time>2022-03-27T07:25:19Z</time>
      </trkpt>
      <trkpt lat="49.05928" lon="1.94584">
        <ele>64.7</ele>
        <time>2022-03-27T07:25:23Z</time>
      </trkpt>
      <trkpt lat="49.05926" lon="1.94591">
        <ele>64.6</ele>
        <time>2022-03-27T07:25:27Z</time>
      </trkpt>
      <trkpt lat="49.05923" lon="1.94597">
        <ele>65.2</ele>
        <time>2022-03-27T07:25:31Z</time>
      </trkpt>
      <trkpt lat="49.0592" lon="1.94605">
        <ele>66.1</ele>
        <time>2022-03-27T07:25:36Z</time>
      </trkpt>
      <trkpt lat="49.05917" lon="1.94613">
        <ele>66.1</ele>
        <time>2022-03-27T07:25:41Z</time>
      </trkpt>
      <trkpt lat="49.05915" lon="1.94619">
        <ele>65.8</ele>
        <time>2022-03-27T07:25:44Z</time>
      </trkpt>
      <trkpt lat="49.05914" lon="1.94627">
        <ele>65.5</ele>
        <time>2022-03-27T07:25:48Z</time>
      </trkpt>
      <trkpt lat="49.05911" lon="1.94635">
        <ele>65.1</ele>
        <time>2022-03-27T07:25:52Z</time>
      </trkpt>
      <trkpt lat="49.05908" lon="1.94643">
        <ele>64.8</ele>
        <time>2022-03-27T07:25:57Z</time>
      </trkpt>
      <trkpt lat="49.05905" lon="1.94651">
        <ele>64.9</ele>
        <time>2022-03-27T07:26:01Z</time>
      </trkpt>
      <trkpt lat="49.05902" lon="1.94658">
        <ele>64.9</ele>
        <time>2022-03-27T07:26:06Z</time>
      </trkpt>
      <trkpt lat="49.059" lon="1.94666">
        <ele>64.6</ele>
        <time>2022-03-27T07:26:10Z</time>
      </trkpt>
      <trkpt lat="49.05897" lon="1.94673">
        <ele>64.4</ele>
        <time>2022-03-27T07:26:14Z</time>
      </trkpt>
      <trkpt lat="49.05895" lon="1.94679">
        <ele>64.3</ele>
        <time>2022-03-27T07:26:18Z</time>
      </trkpt>
      <trkpt lat="49.05892" lon="1.94686">
        <ele>64.4</ele>
        <time>2022-03-27T07:26:22Z</time>
      </trkpt>
      <trkpt lat="49.05889" lon="1.94693">
        <ele>64.4</ele>
        <time>2022-03-27T07:26:27Z</time>
      </trkpt>
      <trkpt lat="49.05885" lon="1.947">
        <ele>64.3</ele>
        <time>2022-03-27T07:26:31Z</time>
      </trkpt>
      <trkpt lat="49.05882" lon="1.94706">
        <ele>64.6</ele>
        <time>2022-03-27T07:26:35Z</time>
      </trkpt>
      <trkpt lat="49.05879" lon="1.94714">
        <ele>67.8</ele>
        <time>2022-03-27T07:26:42Z</time>
      </trkpt>
      <trkpt lat="49.05877" lon="1.9472">
        <ele>68.8</ele>
        <time>2022-03-27T07:26:46Z</time>
      </trkpt>
      <trkpt lat="49.05875" lon="1.94726">
        <ele>69.8</ele>
        <time>2022-03-27T07:26:51Z</time>
      </trkpt>
      <trkpt lat="49.05871" lon="1.94731">
        <ele>70.6</ele>
        <time>2022-03-27T07:26:57Z</time>
      </trkpt>
      <trkpt lat="49.05868" lon="1.94738">
        <ele>70.9</ele>
        <time>2022-03-27T07:27:01Z</time>
      </trkpt>
      <trkpt lat="49.05867" lon="1.94744">
        <ele>71.2</ele>
        <time>2022-03-27T07:27:05Z</time>
      </trkpt>
      <trkpt lat="49.05866" lon="1.94752">
        <ele>71.4</ele>
        <time>2022-03-27T07:27:10Z</time>
      </trkpt>
      <trkpt lat="49.05864" lon="1.94758">
        <ele>71.6</ele>
        <time>2022-03-27T07:27:14Z</time>
      </trkpt>
      <trkpt lat="49.05862" lon="1.94765">
        <ele>72.5</ele>
        <time>2022-03-27T07:27:19Z</time>
      </trkpt>
      <trkpt lat="49.0586" lon="1.94772">
        <ele>74.1</ele>
        <time>2022-03-27T07:27:24Z</time>
      </trkpt>
      <trkpt lat="49.05858" lon="1.94779">
        <ele>74.5</ele>
        <time>2022-03-27T07:27:30Z</time>
      </trkpt>
      <trkpt lat="49.05855" lon="1.94784">
        <ele>74.1</ele>
        <time>2022-03-27T07:27:35Z</time>
      </trkpt>
      <trkpt lat="49.05852" lon="1.94791">
        <ele>73.4</ele>
        <time>2022-03-27T07:27:41Z</time>
      </trkpt>
      <trkpt lat="49.05849" lon="1.94798">
        <ele>72.8</ele>
        <time>2022-03-27T07:27:46Z</time>
      </trkpt>
      <trkpt lat="49.05844" lon="1.94803">
        <ele>72</ele>
        <time>2022-03-27T07:27:50Z</time>
      </trkpt>
      <trkpt lat="49.05841" lon="1.94807">
        <ele>71.8</ele>
        <time>2022-03-27T07:27:54Z</time>
      </trkpt>
      <trkpt lat="49.05837" lon="1.94812">
        <ele>72.5</ele>
        <time>2022-03-27T07:27:58Z</time>
      </trkpt>
      <trkpt lat="49.05833" lon="1.94816">
        <ele>73.5</ele>
        <time>2022-03-27T07:28:02Z</time>
      </trkpt>
      <trkpt lat="49.05829" lon="1.94821">
        <ele>73.8</ele>
        <time>2022-03-27T07:28:06Z</time>
      </trkpt>
      <trkpt lat="49.05826" lon="1.94825">
        <ele>74</ele>
        <time>2022-03-27T07:28:10Z</time>
      </trkpt>
      <trkpt lat="49.05822" lon="1.9483">
        <ele>73.9</ele>
        <time>2022-03-27T07:28:15Z</time>
      </trkpt>
      <trkpt lat="49.05818" lon="1.94835">
        <ele>73.4</ele>
        <time>2022-03-27T07:28:19Z</time>
      </trkpt>
      <trkpt lat="49.05813" lon="1.94839">
        <ele>72.7</ele>
        <time>2022-03-27T07:28:24Z</time>
      </trkpt>
      <trkpt lat="49.05808" lon="1.94843">
        <ele>72</ele>
        <time>2022-03-27T07:28:30Z</time>
      </trkpt>
      <trkpt lat="49.05805" lon="1.94848">
        <ele>71.7</ele>
        <time>2022-03-27T07:28:33Z</time>
      </trkpt>
      <trkpt lat="49.05801" lon="1.94853">
        <ele>70.8</ele>
        <time>2022-03-27T07:28:38Z</time>
      </trkpt>
      <trkpt lat="49.05797" lon="1.94858">
        <ele>70</ele>
        <time>2022-03-27T07:28:42Z</time>
      </trkpt>
      <trkpt lat="49.05793" lon="1.94866">
        <ele>69.7</ele>
        <time>2022-03-27T07:28:47Z</time>
      </trkpt>
      <trkpt lat="49.05789" lon="1.9487">
        <ele>69.2</ele>
        <time>2022-03-27T07:28:51Z</time>
      </trkpt>
      <trkpt lat="49.05786" lon="1.94875">
        <ele>68.5</ele>
        <time>2022-03-27T07:28:55Z</time>
      </trkpt>
      <trkpt lat="49.05782" lon="1.9488">
        <ele>67.6</ele>
        <time>2022-03-27T07:28:59Z</time>
      </trkpt>
      <trkpt lat="49.05779" lon="1.94884">
        <ele>66.8</ele>
        <time>2022-03-27T07:29:03Z</time>
      </trkpt>
      <trkpt lat="49.05775" lon="1.94889">
        <ele>66.3</ele>
        <time>2022-03-27T07:29:07Z</time>
      </trkpt>
      <trkpt lat="49.05771" lon="1.94896">
        <ele>65.8</ele>
        <time>2022-03-27T07:29:12Z</time>
      </trkpt>
      <trkpt lat="49.05767" lon="1.94902">
        <ele>65.4</ele>
        <time>2022-03-27T07:29:16Z</time>
      </trkpt>
      <trkpt lat="49.05763" lon="1.94908">
        <ele>65.1</ele>
        <time>2022-03-27T07:29:20Z</time>
      </trkpt>
      <trkpt lat="49.0576" lon="1.94915">
        <ele>65.2</ele>
        <time>2022-03-27T07:29:25Z</time>
      </trkpt>
      <trkpt lat="49.05757" lon="1.9492">
        <ele>65</ele>
        <time>2022-03-27T07:29:29Z</time>
      </trkpt>
      <trkpt lat="49.05754" lon="1.94926">
        <ele>64.8</ele>
        <time>2022-03-27T07:29:33Z</time>
      </trkpt>
      <trkpt lat="49.05751" lon="1.94932">
        <ele>64.7</ele>
        <time>2022-03-27T07:29:38Z</time>
      </trkpt>
      <trkpt lat="49.05748" lon="1.94937">
        <ele>64.9</ele>
        <time>2022-03-27T07:29:42Z</time>
      </trkpt>
      <trkpt lat="49.05745" lon="1.94943">
        <ele>65.1</ele>
        <time>2022-03-27T07:29:47Z</time>
      </trkpt>
      <trkpt lat="49.05741" lon="1.94948">
        <ele>65</ele>
        <time>2022-03-27T07:29:51Z</time>
      </trkpt>
      <trkpt lat="49.05738" lon="1.94955">
        <ele>64.3</ele>
        <time>2022-03-27T07:29:55Z</time>
      </trkpt>
      <trkpt lat="49.05736" lon="1.94961">
        <ele>63.5</ele>
        <time>2022-03-27T07:29:59Z</time>
      </trkpt>
      <trkpt lat="49.05733" lon="1.94967">
        <ele>63.2</ele>
        <time>2022-03-27T07:30:04Z</time>
      </trkpt>
      <trkpt lat="49.0573" lon="1.94973">
        <ele>63.3</ele>
        <time>2022-03-27T07:30:08Z</time>
      </trkpt>
      <trkpt lat="49.05727" lon="1.94981">
        <ele>63.4</ele>
        <time>2022-03-27T07:30:13Z</time>
      </trkpt>
      <trkpt lat="49.05725" lon="1.94988">
        <ele>62.5</ele>
        <time>2022-03-27T07:30:18Z</time>
      </trkpt>
      <trkpt lat="49.05721" lon="1.94994">
        <ele>61.7</ele>
        <time>2022-03-27T07:30:22Z</time>
      </trkpt>
      <trkpt lat="49.05718" lon="1.94999">
        <ele>61.6</ele>
        <time>2022-03-27T07:30:26Z</time>
      </trkpt>
      <trkpt lat="49.05714" lon="1.95005">
        <ele>62</ele>
        <time>2022-03-27T07:30:31Z</time>
      </trkpt>
      <trkpt lat="49.05711" lon="1.95012">
        <ele>62.7</ele>
        <time>2022-03-27T07:30:35Z</time>
      </trkpt>
      <trkpt lat="49.05708" lon="1.95019">
        <ele>63.5</ele>
        <time>2022-03-27T07:30:40Z</time>
      </trkpt>
      <trkpt lat="49.05706" lon="1.95024">
        <ele>63.4</ele>
        <time>2022-03-27T07:30:45Z</time>
      </trkpt>
      <trkpt lat="49.05703" lon="1.95031">
        <ele>63.3</ele>
        <time>2022-03-27T07:30:49Z</time>
      </trkpt>
      <trkpt lat="49.057" lon="1.95036">
        <ele>63.3</ele>
        <time>2022-03-27T07:30:53Z</time>
      </trkpt>
      <trkpt lat="49.05697" lon="1.95043">
        <ele>63.7</ele>
        <time>2022-03-27T07:30:58Z</time>
      </trkpt>
      <trkpt lat="49.05694" lon="1.9505">
        <ele>63.8</ele>
        <time>2022-03-27T07:31:02Z</time>
      </trkpt>
      <trkpt lat="49.0569" lon="1.95057">
        <ele>63.7</ele>
        <time>2022-03-27T07:31:07Z</time>
      </trkpt>
      <trkpt lat="49.05687" lon="1.95062">
        <ele>63.5</ele>
        <time>2022-03-27T07:31:11Z</time>
      </trkpt>
      <trkpt lat="49.05684" lon="1.95068">
        <ele>63.6</ele>
        <time>2022-03-27T07:31:15Z</time>
      </trkpt>
      <trkpt lat="49.05681" lon="1.95074">
        <ele>63.7</ele>
        <time>2022-03-27T07:31:19Z</time>
      </trkpt>
      <trkpt lat="49.05678" lon="1.95081">
        <ele>63.9</ele>
        <time>2022-03-27T07:31:24Z</time>
      </trkpt>
      <trkpt lat="49.05676" lon="1.95088">
        <ele>64.1</ele>
        <time>2022-03-27T07:31:28Z</time>
      </trkpt>
      <trkpt lat="49.05674" lon="1.95094">
        <ele>64</ele>
        <time>2022-03-27T07:31:32Z</time>
      </trkpt>
      <trkpt lat="49.05671" lon="1.951">
        <ele>63.9</ele>
        <time>2022-03-27T07:31:36Z</time>
      </trkpt>
      <trkpt lat="49.05668" lon="1.95105">
        <ele>63.8</ele>
        <time>2022-03-27T07:31:40Z</time>
      </trkpt>
      <trkpt lat="49.05665" lon="1.95112">
        <ele>63.9</ele>
        <time>2022-03-27T07:31:45Z</time>
      </trkpt>
      <trkpt lat="49.05664" lon="1.9512">
        <ele>64.4</ele>
        <time>2022-03-27T07:31:51Z</time>
      </trkpt>
      <trkpt lat="49.05661" lon="1.95125">
        <ele>64.9</ele>
        <time>2022-03-27T07:31:56Z</time>
      </trkpt>
      <trkpt lat="49.05658" lon="1.95131">
        <ele>64.7</ele>
        <time>2022-03-27T07:32:01Z</time>
      </trkpt>
      <trkpt lat="49.05655" lon="1.95137">
        <ele>64</ele>
        <time>2022-03-27T07:32:07Z</time>
      </trkpt>
      <trkpt lat="49.05653" lon="1.95144">
        <ele>63.6</ele>
        <time>2022-03-27T07:32:13Z</time>
      </trkpt>
      <trkpt lat="49.0565" lon="1.95151">
        <ele>63.7</ele>
        <time>2022-03-27T07:32:18Z</time>
      </trkpt>
      <trkpt lat="49.05648" lon="1.95157">
        <ele>63.6</ele>
        <time>2022-03-27T07:32:22Z</time>
      </trkpt>
      <trkpt lat="49.05644" lon="1.95163">
        <ele>63.6</ele>
        <time>2022-03-27T07:32:27Z</time>
      </trkpt>
      <trkpt lat="49.05641" lon="1.95168">
        <ele>63.8</ele>
        <time>2022-03-27T07:32:31Z</time>
      </trkpt>
      <trkpt lat="49.05638" lon="1.95177">
        <ele>64.1</ele>
        <time>2022-03-27T07:32:56Z</time>
      </trkpt>
      <trkpt lat="49.05635" lon="1.95183">
        <ele>65.1</ele>
        <time>2022-03-27T07:33:00Z</time>
      </trkpt>
      <trkpt lat="49.05632" lon="1.95189">
        <ele>69.1</ele>
        <time>2022-03-27T07:33:09Z</time>
      </trkpt>
      <trkpt lat="49.05628" lon="1.95195">
        <ele>70</ele>
        <time>2022-03-27T07:33:19Z</time>
      </trkpt>
      <trkpt lat="49.05626" lon="1.95201">
        <ele>69</ele>
        <time>2022-03-27T07:33:25Z</time>
      </trkpt>
      <trkpt lat="49.05624" lon="1.95209">
        <ele>67.9</ele>
        <time>2022-03-27T07:33:31Z</time>
      </trkpt>
      <trkpt lat="49.05622" lon="1.95217">
        <ele>66.9</ele>
        <time>2022-03-27T07:33:36Z</time>
      </trkpt>
      <trkpt lat="49.05619" lon="1.95223">
        <ele>66.1</ele>
        <time>2022-03-27T07:33:41Z</time>
      </trkpt>
      <trkpt lat="49.05619" lon="1.95232">
        <ele>62.6</ele>
        <time>2022-03-27T07:34:07Z</time>
      </trkpt>
      <trkpt lat="49.05617" lon="1.95239">
        <ele>61.6</ele>
        <time>2022-03-27T07:34:12Z</time>
      </trkpt>
      <trkpt lat="49.05614" lon="1.95246">
        <ele>61.3</ele>
        <time>2022-03-27T07:34:17Z</time>
      </trkpt>
      <trkpt lat="49.05611" lon="1.95253">
        <ele>61.2</ele>
        <time>2022-03-27T07:34:22Z</time>
      </trkpt>
      <trkpt lat="49.05608" lon="1.95259">
        <ele>61.2</ele>
        <time>2022-03-27T07:34:26Z</time>
      </trkpt>
      <trkpt lat="49.05605" lon="1.95266">
        <ele>61.2</ele>
        <time>2022-03-27T07:34:30Z</time>
      </trkpt>
      <trkpt lat="49.05603" lon="1.95272">
        <ele>60.9</ele>
        <time>2022-03-27T07:34:34Z</time>
      </trkpt>
      <trkpt lat="49.05601" lon="1.95278">
        <ele>60.4</ele>
        <time>2022-03-27T07:34:38Z</time>
      </trkpt>
      <trkpt lat="49.05598" lon="1.95285">
        <ele>59.8</ele>
        <time>2022-03-27T07:34:43Z</time>
      </trkpt>
      <trkpt lat="49.05595" lon="1.95292">
        <ele>59.2</ele>
        <time>2022-03-27T07:34:47Z</time>
      </trkpt>
      <trkpt lat="49.05593" lon="1.95298">
        <ele>58.9</ele>
        <time>2022-03-27T07:34:51Z</time>
      </trkpt>
      <trkpt lat="49.0559" lon="1.95305">
        <ele>59</ele>
        <time>2022-03-27T07:34:55Z</time>
      </trkpt>
      <trkpt lat="49.05587" lon="1.95311">
        <ele>59.5</ele>
        <time>2022-03-27T07:34:59Z</time>
      </trkpt>
      <trkpt lat="49.05585" lon="1.95318">
        <ele>59.8</ele>
        <time>2022-03-27T07:35:03Z</time>
      </trkpt>
      <trkpt lat="49.05582" lon="1.95326">
        <ele>59.8</ele>
        <time>2022-03-27T07:35:08Z</time>
      </trkpt>
      <trkpt lat="49.05579" lon="1.95332">
        <ele>59.1</ele>
        <time>2022-03-27T07:35:12Z</time>
      </trkpt>
      <trkpt lat="49.05576" lon="1.95338">
        <ele>58.8</ele>
        <time>2022-03-27T07:35:17Z</time>
      </trkpt>
      <trkpt lat="49.05576" lon="1.95345">
        <ele>58.8</ele>
        <time>2022-03-27T07:35:21Z</time>
      </trkpt>
      <trkpt lat="49.05574" lon="1.95352">
        <ele>59</ele>
        <time>2022-03-27T07:35:25Z</time>
      </trkpt>
      <trkpt lat="49.05573" lon="1.95359">
        <ele>58.9</ele>
        <time>2022-03-27T07:35:29Z</time>
      </trkpt>
      <trkpt lat="49.05571" lon="1.95367">
        <ele>59.5</ele>
        <time>2022-03-27T07:35:34Z</time>
      </trkpt>
      <trkpt lat="49.05569" lon="1.95373">
        <ele>60</ele>
        <time>2022-03-27T07:35:38Z</time>
      </trkpt>
      <trkpt lat="49.05567" lon="1.9538">
        <ele>60.6</ele>
        <time>2022-03-27T07:35:42Z</time>
      </trkpt>
      <trkpt lat="49.05565" lon="1.95387">
        <ele>61</ele>
        <time>2022-03-27T07:35:46Z</time>
      </trkpt>
      <trkpt lat="49.05562" lon="1.95395">
        <ele>61.6</ele>
        <time>2022-03-27T07:35:51Z</time>
      </trkpt>
      <trkpt lat="49.05559" lon="1.95401">
        <ele>62.4</ele>
        <time>2022-03-27T07:35:55Z</time>
      </trkpt>
      <trkpt lat="49.05556" lon="1.95407">
        <ele>62.9</ele>
        <time>2022-03-27T07:35:59Z</time>
      </trkpt>
      <trkpt lat="49.05554" lon="1.95413">
        <ele>63.2</ele>
        <time>2022-03-27T07:36:03Z</time>
      </trkpt>
      <trkpt lat="49.05553" lon="1.95421">
        <ele>63</ele>
        <time>2022-03-27T07:36:07Z</time>
      </trkpt>
      <trkpt lat="49.0555" lon="1.95429">
        <ele>62.6</ele>
        <time>2022-03-27T07:36:11Z</time>
      </trkpt>
      <trkpt lat="49.05548" lon="1.95437">
        <ele>62.3</ele>
        <time>2022-03-27T07:36:15Z</time>
      </trkpt>
      <trkpt lat="49.05546" lon="1.95444">
        <ele>61.6</ele>
        <time>2022-03-27T07:36:19Z</time>
      </trkpt>
      <trkpt lat="49.05544" lon="1.95451">
        <ele>60.3</ele>
        <time>2022-03-27T07:36:23Z</time>
      </trkpt>
      <trkpt lat="49.05541" lon="1.95458">
        <ele>59.1</ele>
        <time>2022-03-27T07:36:27Z</time>
      </trkpt>
      <trkpt lat="49.05539" lon="1.95465">
        <ele>58</ele>
        <time>2022-03-27T07:36:31Z</time>
      </trkpt>
      <trkpt lat="49.05536" lon="1.95472">
        <ele>57.2</ele>
        <time>2022-03-27T07:36:35Z</time>
      </trkpt>
      <trkpt lat="49.05534" lon="1.95479">
        <ele>56.8</ele>
        <time>2022-03-27T07:36:39Z</time>
      </trkpt>
      <trkpt lat="49.05531" lon="1.95486">
        <ele>56.7</ele>
        <time>2022-03-27T07:36:43Z</time>
      </trkpt>
      <trkpt lat="49.05528" lon="1.95492">
        <ele>56.5</ele>
        <time>2022-03-27T07:36:47Z</time>
      </trkpt>
      <trkpt lat="49.05526" lon="1.95498">
        <ele>56.9</ele>
        <time>2022-03-27T07:36:51Z</time>
      </trkpt>
      <trkpt lat="49.05523" lon="1.95503">
        <ele>57.5</ele>
        <time>2022-03-27T07:36:55Z</time>
      </trkpt>
      <trkpt lat="49.05519" lon="1.95509">
        <ele>57.9</ele>
        <time>2022-03-27T07:37:00Z</time>
      </trkpt>
      <trkpt lat="49.05516" lon="1.95514">
        <ele>57.8</ele>
        <time>2022-03-27T07:37:03Z</time>
      </trkpt>
      <trkpt lat="49.05513" lon="1.95519">
        <ele>57.6</ele>
        <time>2022-03-27T07:37:07Z</time>
      </trkpt>
      <trkpt lat="49.0551" lon="1.95525">
        <ele>56.9</ele>
        <time>2022-03-27T07:37:11Z</time>
      </trkpt>
      <trkpt lat="49.05508" lon="1.95532">
        <ele>55.2</ele>
        <time>2022-03-27T07:37:16Z</time>
      </trkpt>
      <trkpt lat="49.05505" lon="1.9554">
        <ele>54.7</ele>
        <time>2022-03-27T07:37:21Z</time>
      </trkpt>
      <trkpt lat="49.05507" lon="1.95547">
        <ele>55.2</ele>
        <time>2022-03-27T07:37:25Z</time>
      </trkpt>
      <trkpt lat="49.0551" lon="1.95553">
        <ele>56.3</ele>
        <time>2022-03-27T07:37:29Z</time>
      </trkpt>
      <trkpt lat="49.05514" lon="1.95557">
        <ele>56.7</ele>
        <time>2022-03-27T07:37:33Z</time>
      </trkpt>
      <trkpt lat="49.05518" lon="1.95561">
        <ele>56.9</ele>
        <time>2022-03-27T07:37:37Z</time>
      </trkpt>
      <trkpt lat="49.05521" lon="1.95569">
        <ele>57.3</ele>
        <time>2022-03-27T07:37:42Z</time>
      </trkpt>
      <trkpt lat="49.05524" lon="1.95575">
        <ele>57.8</ele>
        <time>2022-03-27T07:37:46Z</time>
      </trkpt>
      <trkpt lat="49.05527" lon="1.95581">
        <ele>58.8</ele>
        <time>2022-03-27T07:37:50Z</time>
      </trkpt>
      <trkpt lat="49.0553" lon="1.95587">
        <ele>60.4</ele>
        <time>2022-03-27T07:37:54Z</time>
      </trkpt>
      <trkpt lat="49.05534" lon="1.95592">
        <ele>61</ele>
        <time>2022-03-27T07:37:58Z</time>
      </trkpt>
      <trkpt lat="49.05538" lon="1.95597">
        <ele>61.8</ele>
        <time>2022-03-27T07:38:03Z</time>
      </trkpt>
      <trkpt lat="49.05541" lon="1.95603">
        <ele>63.5</ele>
        <time>2022-03-27T07:38:07Z</time>
      </trkpt>
      <trkpt lat="49.05545" lon="1.9561">
        <ele>65.3</ele>
        <time>2022-03-27T07:38:12Z</time>
      </trkpt>
      <trkpt lat="49.05549" lon="1.95615">
        <ele>66.1</ele>
        <time>2022-03-27T07:38:17Z</time>
      </trkpt>
      <trkpt lat="49.05553" lon="1.95621">
        <ele>65.5</ele>
        <time>2022-03-27T07:38:21Z</time>
      </trkpt>
      <trkpt lat="49.05557" lon="1.95626">
        <ele>63.9</ele>
        <time>2022-03-27T07:38:25Z</time>
      </trkpt>
      <trkpt lat="49.0556" lon="1.9563">
        <ele>62.8</ele>
        <time>2022-03-27T07:38:29Z</time>
      </trkpt>
      <trkpt lat="49.05565" lon="1.95635">
        <ele>62.9</ele>
        <time>2022-03-27T07:38:34Z</time>
      </trkpt>
      <trkpt lat="49.05569" lon="1.95641">
        <ele>64.4</ele>
        <time>2022-03-27T07:38:38Z</time>
      </trkpt>
      <trkpt lat="49.05573" lon="1.95644">
        <ele>65.8</ele>
        <time>2022-03-27T07:38:43Z</time>
      </trkpt>
      <trkpt lat="49.05578" lon="1.95649">
        <ele>66.6</ele>
        <time>2022-03-27T07:38:47Z</time>
      </trkpt>
      <trkpt lat="49.05583" lon="1.95654">
        <ele>67.8</ele>
        <time>2022-03-27T07:38:52Z</time>
      </trkpt>
      <trkpt lat="49.05587" lon="1.9566">
        <ele>69.9</ele>
        <time>2022-03-27T07:38:57Z</time>
      </trkpt>
      <trkpt lat="49.05591" lon="1.95664">
        <ele>71.6</ele>
        <time>2022-03-27T07:39:01Z</time>
      </trkpt>
      <trkpt lat="49.05596" lon="1.95667">
        <ele>71.6</ele>
        <time>2022-03-27T07:39:05Z</time>
      </trkpt>
      <trkpt lat="49.05601" lon="1.95671">
        <ele>71.4</ele>
        <time>2022-03-27T07:39:10Z</time>
      </trkpt>
      <trkpt lat="49.05606" lon="1.95675">
        <ele>71.2</ele>
        <time>2022-03-27T07:39:14Z</time>
      </trkpt>
      <trkpt lat="49.05611" lon="1.95677">
        <ele>70.5</ele>
        <time>2022-03-27T07:39:18Z</time>
      </trkpt>
      <trkpt lat="49.05615" lon="1.95677">
        <ele>69.5</ele>
        <time>2022-03-27T07:39:23Z</time>
      </trkpt>
      <trkpt lat="49.05621" lon="1.95677">
        <ele>69.1</ele>
        <time>2022-03-27T07:39:27Z</time>
      </trkpt>
      <trkpt lat="49.05625" lon="1.95675">
        <ele>69.2</ele>
        <time>2022-03-27T07:39:33Z</time>
      </trkpt>
      <trkpt lat="49.05631" lon="1.95676">
        <ele>69.5</ele>
        <time>2022-03-27T07:39:36Z</time>
      </trkpt>
      <trkpt lat="49.05636" lon="1.95678">
        <ele>70</ele>
        <time>2022-03-27T07:39:41Z</time>
      </trkpt>
      <trkpt lat="49.05641" lon="1.95679">
        <ele>70.5</ele>
        <time>2022-03-27T07:39:44Z</time>
      </trkpt>
      <trkpt lat="49.05646" lon="1.9568">
        <ele>70.5</ele>
        <time>2022-03-27T07:39:48Z</time>
      </trkpt>
      <trkpt lat="49.05652" lon="1.95682">
        <ele>70.4</ele>
        <time>2022-03-27T07:39:53Z</time>
      </trkpt>
      <trkpt lat="49.05657" lon="1.95683">
        <ele>70.4</ele>
        <time>2022-03-27T07:39:57Z</time>
      </trkpt>
      <trkpt lat="49.05662" lon="1.95684">
        <ele>70.5</ele>
        <time>2022-03-27T07:40:02Z</time>
      </trkpt>
      <trkpt lat="49.05666" lon="1.95684">
        <ele>70.7</ele>
        <time>2022-03-27T07:40:05Z</time>
      </trkpt>
      <trkpt lat="49.05672" lon="1.95685">
        <ele>71</ele>
        <time>2022-03-27T07:40:10Z</time>
      </trkpt>
      <trkpt lat="49.05678" lon="1.95687">
        <ele>70.9</ele>
        <time>2022-03-27T07:40:15Z</time>
      </trkpt>
      <trkpt lat="49.05683" lon="1.95689">
        <ele>70.5</ele>
        <time>2022-03-27T07:40:19Z</time>
      </trkpt>
      <trkpt lat="49.05687" lon="1.95689">
        <ele>70.3</ele>
        <time>2022-03-27T07:40:23Z</time>
      </trkpt>
      <trkpt lat="49.05693" lon="1.95688">
        <ele>70.4</ele>
        <time>2022-03-27T07:40:28Z</time>
      </trkpt>
      <trkpt lat="49.05698" lon="1.95691">
        <ele>70.1</ele>
        <time>2022-03-27T07:40:32Z</time>
      </trkpt>
      <trkpt lat="49.05703" lon="1.95692">
        <ele>69.8</ele>
        <time>2022-03-27T07:40:36Z</time>
      </trkpt>
      <trkpt lat="49.05708" lon="1.95694">
        <ele>69.9</ele>
        <time>2022-03-27T07:40:40Z</time>
      </trkpt>
      <trkpt lat="49.05713" lon="1.95696">
        <ele>70.4</ele>
        <time>2022-03-27T07:40:44Z</time>
      </trkpt>
      <trkpt lat="49.05718" lon="1.95698">
        <ele>70.5</ele>
        <time>2022-03-27T07:40:48Z</time>
      </trkpt>
      <trkpt lat="49.05724" lon="1.95698">
        <ele>70.5</ele>
        <time>2022-03-27T07:40:53Z</time>
      </trkpt>
      <trkpt lat="49.05729" lon="1.95701">
        <ele>70.5</ele>
        <time>2022-03-27T07:40:58Z</time>
      </trkpt>
      <trkpt lat="49.05735" lon="1.95703">
        <ele>71.4</ele>
        <time>2022-03-27T07:41:03Z</time>
      </trkpt>
      <trkpt lat="49.0574" lon="1.95704">
        <ele>72.5</ele>
        <time>2022-03-27T07:41:07Z</time>
      </trkpt>
      <trkpt lat="49.05745" lon="1.95706">
        <ele>72.8</ele>
        <time>2022-03-27T07:41:11Z</time>
      </trkpt>
      <trkpt lat="49.0575" lon="1.95707">
        <ele>72</ele>
        <time>2022-03-27T07:41:15Z</time>
      </trkpt>
      <trkpt lat="49.05755" lon="1.95709">
        <ele>70.7</ele>
        <time>2022-03-27T07:41:19Z</time>
      </trkpt>
      <trkpt lat="49.0576" lon="1.95711">
        <ele>70.2</ele>
        <time>2022-03-27T07:41:24Z</time>
      </trkpt>
      <trkpt lat="49.05766" lon="1.95714">
        <ele>70.4</ele>
        <time>2022-03-27T07:41:29Z</time>
      </trkpt>
      <trkpt lat="49.0577" lon="1.95717">
        <ele>70.9</ele>
        <time>2022-03-27T07:41:33Z</time>
      </trkpt>
      <trkpt lat="49.05774" lon="1.95721">
        <ele>71.4</ele>
        <time>2022-03-27T07:41:37Z</time>
      </trkpt>
      <trkpt lat="49.05778" lon="1.95725">
        <ele>71.5</ele>
        <time>2022-03-27T07:41:41Z</time>
      </trkpt>
      <trkpt lat="49.05781" lon="1.9573">
        <ele>71.2</ele>
        <time>2022-03-27T07:41:45Z</time>
      </trkpt>
      <trkpt lat="49.05785" lon="1.95735">
        <ele>71.4</ele>
        <time>2022-03-27T07:41:49Z</time>
      </trkpt>
      <trkpt lat="49.05789" lon="1.95741">
        <ele>72</ele>
        <time>2022-03-27T07:41:54Z</time>
      </trkpt>
      <trkpt lat="49.05792" lon="1.95747">
        <ele>72.9</ele>
        <time>2022-03-27T07:41:58Z</time>
      </trkpt>
      <trkpt lat="49.05794" lon="1.95754">
        <ele>73.6</ele>
        <time>2022-03-27T07:42:03Z</time>
      </trkpt>
      <trkpt lat="49.05797" lon="1.95761">
        <ele>75.2</ele>
        <time>2022-03-27T07:42:07Z</time>
      </trkpt>
      <trkpt lat="49.058" lon="1.95768">
        <ele>76</ele>
        <time>2022-03-27T07:42:11Z</time>
      </trkpt>
      <trkpt lat="49.05802" lon="1.95775">
        <ele>76.7</ele>
        <time>2022-03-27T07:42:15Z</time>
      </trkpt>
      <trkpt lat="49.05804" lon="1.95782">
        <ele>77.8</ele>
        <time>2022-03-27T07:42:19Z</time>
      </trkpt>
      <trkpt lat="49.05805" lon="1.95789">
        <ele>80.3</ele>
        <time>2022-03-27T07:42:25Z</time>
      </trkpt>
      <trkpt lat="49.05806" lon="1.95798">
        <ele>82.2</ele>
        <time>2022-03-27T07:42:30Z</time>
      </trkpt>
      <trkpt lat="49.05808" lon="1.95805">
        <ele>83.8</ele>
        <time>2022-03-27T07:42:35Z</time>
      </trkpt>
      <trkpt lat="49.05809" lon="1.95812">
        <ele>84.2</ele>
        <time>2022-03-27T07:42:39Z</time>
      </trkpt>
      <trkpt lat="49.05812" lon="1.95819">
        <ele>85.2</ele>
        <time>2022-03-27T07:42:44Z</time>
      </trkpt>
      <trkpt lat="49.05813" lon="1.95827">
        <ele>86</ele>
        <time>2022-03-27T07:42:48Z</time>
      </trkpt>
      <trkpt lat="49.05815" lon="1.95833">
        <ele>86</ele>
        <time>2022-03-27T07:42:52Z</time>
      </trkpt>
      <trkpt lat="49.05818" lon="1.95841">
        <ele>85.1</ele>
        <time>2022-03-27T07:42:56Z</time>
      </trkpt>
      <trkpt lat="49.05821" lon="1.95848">
        <ele>85.5</ele>
        <time>2022-03-27T07:43:01Z</time>
      </trkpt>
      <trkpt lat="49.05825" lon="1.95854">
        <ele>87.8</ele>
        <time>2022-03-27T07:43:05Z</time>
      </trkpt>
      <trkpt lat="49.05828" lon="1.9586">
        <ele>90.3</ele>
        <time>2022-03-27T07:43:09Z</time>
      </trkpt>
      <trkpt lat="49.05832" lon="1.95866">
        <ele>91.7</ele>
        <time>2022-03-27T07:43:13Z</time>
      </trkpt>
      <trkpt lat="49.05834" lon="1.95872">
        <ele>92.5</ele>
        <time>2022-03-27T07:43:17Z</time>
      </trkpt>
      <trkpt lat="49.05838" lon="1.95878">
        <ele>93.7</ele>
        <time>2022-03-27T07:43:22Z</time>
      </trkpt>
      <trkpt lat="49.05842" lon="1.95883">
        <ele>94.8</ele>
        <time>2022-03-27T07:43:26Z</time>
      </trkpt>
      <trkpt lat="49.05846" lon="1.95888">
        <ele>97</ele>
        <time>2022-03-27T07:43:30Z</time>
      </trkpt>
      <trkpt lat="49.05849" lon="1.95892">
        <ele>98</ele>
        <time>2022-03-27T07:43:34Z</time>
      </trkpt>
      <trkpt lat="49.05855" lon="1.95896">
        <ele>97.7</ele>
        <time>2022-03-27T07:43:39Z</time>
      </trkpt>
      <trkpt lat="49.05859" lon="1.95899">
        <ele>96.6</ele>
        <time>2022-03-27T07:43:43Z</time>
      </trkpt>
      <trkpt lat="49.05864" lon="1.95901">
        <ele>95.1</ele>
        <time>2022-03-27T07:43:47Z</time>
      </trkpt>
      <trkpt lat="49.05868" lon="1.95903">
        <ele>94.3</ele>
        <time>2022-03-27T07:43:51Z</time>
      </trkpt>
      <trkpt lat="49.05873" lon="1.95905">
        <ele>94.7</ele>
        <time>2022-03-27T07:43:56Z</time>
      </trkpt>
      <trkpt lat="49.05877" lon="1.9591">
        <ele>95.1</ele>
        <time>2022-03-27T07:43:59Z</time>
      </trkpt>
      <trkpt lat="49.05881" lon="1.95915">
        <ele>95.2</ele>
        <time>2022-03-27T07:44:03Z</time>
      </trkpt>
      <trkpt lat="49.05885" lon="1.95919">
        <ele>95.2</ele>
        <time>2022-03-27T07:44:07Z</time>
      </trkpt>
      <trkpt lat="49.0589" lon="1.95923">
        <ele>95.3</ele>
        <time>2022-03-27T07:44:12Z</time>
      </trkpt>
      <trkpt lat="49.05895" lon="1.95927">
        <ele>95.5</ele>
        <time>2022-03-27T07:44:16Z</time>
      </trkpt>
      <trkpt lat="49.05899" lon="1.9593">
        <ele>95.3</ele>
        <time>2022-03-27T07:44:20Z</time>
      </trkpt>
      <trkpt lat="49.05904" lon="1.95933">
        <ele>95</ele>
        <time>2022-03-27T07:44:24Z</time>
      </trkpt>
      <trkpt lat="49.05909" lon="1.95938">
        <ele>94.9</ele>
        <time>2022-03-27T07:44:28Z</time>
      </trkpt>
      <trkpt lat="49.05913" lon="1.95943">
        <ele>94.9</ele>
        <time>2022-03-27T07:44:32Z</time>
      </trkpt>
      <trkpt lat="49.05917" lon="1.95947">
        <ele>93.4</ele>
        <time>2022-03-27T07:44:38Z</time>
      </trkpt>
      <trkpt lat="49.0592" lon="1.95953">
        <ele>92.4</ele>
        <time>2022-03-27T07:44:42Z</time>
      </trkpt>
      <trkpt lat="49.05922" lon="1.9596">
        <ele>93.1</ele>
        <time>2022-03-27T07:44:46Z</time>
      </trkpt>
      <trkpt lat="49.05925" lon="1.95967">
        <ele>94.2</ele>
        <time>2022-03-27T07:44:50Z</time>
      </trkpt>
      <trkpt lat="49.05927" lon="1.95974">
        <ele>94.5</ele>
        <time>2022-03-27T07:44:54Z</time>
      </trkpt>
      <trkpt lat="49.05929" lon="1.95981">
        <ele>95.3</ele>
        <time>2022-03-27T07:44:58Z</time>
      </trkpt>
      <trkpt lat="49.05931" lon="1.95988">
        <ele>97.3</ele>
        <time>2022-03-27T07:45:03Z</time>
      </trkpt>
      <trkpt lat="49.05934" lon="1.95996">
        <ele>99.8</ele>
        <time>2022-03-27T07:45:07Z</time>
      </trkpt>
      <trkpt lat="49.05937" lon="1.96002">
        <ele>100.5</ele>
        <time>2022-03-27T07:45:11Z</time>
      </trkpt>
      <trkpt lat="49.0594" lon="1.9601">
        <ele>100.8</ele>
        <time>2022-03-27T07:45:17Z</time>
      </trkpt>
      <trkpt lat="49.05941" lon="1.96017">
        <ele>101.6</ele>
        <time>2022-03-27T07:45:20Z</time>
      </trkpt>
      <trkpt lat="49.05942" lon="1.96024">
        <ele>103.2</ele>
        <time>2022-03-27T07:45:24Z</time>
      </trkpt>
      <trkpt lat="49.05944" lon="1.96033">
        <ele>104.8</ele>
        <time>2022-03-27T07:45:29Z</time>
      </trkpt>
      <trkpt lat="49.05945" lon="1.96041">
        <ele>107.7</ele>
        <time>2022-03-27T07:45:33Z</time>
      </trkpt>
      <trkpt lat="49.05945" lon="1.9605">
        <ele>109.7</ele>
        <time>2022-03-27T07:45:37Z</time>
      </trkpt>
      <trkpt lat="49.05946" lon="1.96058">
        <ele>108.6</ele>
        <time>2022-03-27T07:45:41Z</time>
      </trkpt>
      <trkpt lat="49.05947" lon="1.96065">
        <ele>106.3</ele>
        <time>2022-03-27T07:45:45Z</time>
      </trkpt>
      <trkpt lat="49.05948" lon="1.96073">
        <ele>105.3</ele>
        <time>2022-03-27T07:45:50Z</time>
      </trkpt>
      <trkpt lat="49.05949" lon="1.96082">
        <ele>105.1</ele>
        <time>2022-03-27T07:45:54Z</time>
      </trkpt>
      <trkpt lat="49.05949" lon="1.96089">
        <ele>105.4</ele>
        <time>2022-03-27T07:45:58Z</time>
      </trkpt>
      <trkpt lat="49.0595" lon="1.96097">
        <ele>105.7</ele>
        <time>2022-03-27T07:46:02Z</time>
      </trkpt>
      <trkpt lat="49.05951" lon="1.96103">
        <ele>105.4</ele>
        <time>2022-03-27T07:46:06Z</time>
      </trkpt>
      <trkpt lat="49.05952" lon="1.9611">
        <ele>103.8</ele>
        <time>2022-03-27T07:46:10Z</time>
      </trkpt>
      <trkpt lat="49.05953" lon="1.96118">
        <ele>103.4</ele>
        <time>2022-03-27T07:46:14Z</time>
      </trkpt>
      <trkpt lat="49.05954" lon="1.96124">
        <ele>103.7</ele>
        <time>2022-03-27T07:46:18Z</time>
      </trkpt>
      <trkpt lat="49.05955" lon="1.96132">
        <ele>105</ele>
        <time>2022-03-27T07:46:23Z</time>
      </trkpt>
      <trkpt lat="49.05955" lon="1.9614">
        <ele>105.7</ele>
        <time>2022-03-27T07:46:27Z</time>
      </trkpt>
      <trkpt lat="49.05957" lon="1.96148">
        <ele>106.7</ele>
        <time>2022-03-27T07:46:32Z</time>
      </trkpt>
      <trkpt lat="49.0596" lon="1.96155">
        <ele>107.6</ele>
        <time>2022-03-27T07:46:37Z</time>
      </trkpt>
      <trkpt lat="49.05961" lon="1.96162">
        <ele>108.4</ele>
        <time>2022-03-27T07:46:41Z</time>
      </trkpt>
      <trkpt lat="49.05963" lon="1.96169">
        <ele>110</ele>
        <time>2022-03-27T07:46:45Z</time>
      </trkpt>
      <trkpt lat="49.05964" lon="1.96177">
        <ele>111</ele>
        <time>2022-03-27T07:46:49Z</time>
      </trkpt>
      <trkpt lat="49.05967" lon="1.96183">
        <ele>110.9</ele>
        <time>2022-03-27T07:46:53Z</time>
      </trkpt>
      <trkpt lat="49.0597" lon="1.96191">
        <ele>110.3</ele>
        <time>2022-03-27T07:46:58Z</time>
      </trkpt>
      <trkpt lat="49.05973" lon="1.96198">
        <ele>109.9</ele>
        <time>2022-03-27T07:47:02Z</time>
      </trkpt>
      <trkpt lat="49.05975" lon="1.96205">
        <ele>109.4</ele>
        <time>2022-03-27T07:47:07Z</time>
      </trkpt>
      <trkpt lat="49.05978" lon="1.96211">
        <ele>109.8</ele>
        <time>2022-03-27T07:47:11Z</time>
      </trkpt>
      <trkpt lat="49.05982" lon="1.96216">
        <ele>110.2</ele>
        <time>2022-03-27T07:47:15Z</time>
      </trkpt>
      <trkpt lat="49.05986" lon="1.96221">
        <ele>110.2</ele>
        <time>2022-03-27T07:47:19Z</time>
      </trkpt>
      <trkpt lat="49.0599" lon="1.96226">
        <ele>109.9</ele>
        <time>2022-03-27T07:47:23Z</time>
      </trkpt>
      <trkpt lat="49.05993" lon="1.96232">
        <ele>109.9</ele>
        <time>2022-03-27T07:47:27Z</time>
      </trkpt>
      <trkpt lat="49.05997" lon="1.96237">
        <ele>109.5</ele>
        <time>2022-03-27T07:47:31Z</time>
      </trkpt>
      <trkpt lat="49.06001" lon="1.96241">
        <ele>109.1</ele>
        <time>2022-03-27T07:47:35Z</time>
      </trkpt>
      <trkpt lat="49.06006" lon="1.96244">
        <ele>108.8</ele>
        <time>2022-03-27T07:47:39Z</time>
      </trkpt>
      <trkpt lat="49.0601" lon="1.96244">
        <ele>108</ele>
        <time>2022-03-27T07:47:42Z</time>
      </trkpt>
      <trkpt lat="49.06016" lon="1.96243">
        <ele>106.4</ele>
        <time>2022-03-27T07:47:47Z</time>
      </trkpt>
      <trkpt lat="49.06021" lon="1.96242">
        <ele>105.4</ele>
        <time>2022-03-27T07:47:51Z</time>
      </trkpt>
      <trkpt lat="49.06026" lon="1.9624">
        <ele>105.2</ele>
        <time>2022-03-27T07:47:55Z</time>
      </trkpt>
      <trkpt lat="49.06031" lon="1.96237">
        <ele>104.9</ele>
        <time>2022-03-27T07:47:59Z</time>
      </trkpt>
      <trkpt lat="49.06036" lon="1.96235">
        <ele>104.7</ele>
        <time>2022-03-27T07:48:03Z</time>
      </trkpt>
      <trkpt lat="49.06041" lon="1.96233">
        <ele>104.4</ele>
        <time>2022-03-27T07:48:07Z</time>
      </trkpt>
      <trkpt lat="49.06047" lon="1.96231">
        <ele>104.3</ele>
        <time>2022-03-27T07:48:11Z</time>
      </trkpt>
      <trkpt lat="49.06051" lon="1.9623">
        <ele>104.5</ele>
        <time>2022-03-27T07:48:14Z</time>
      </trkpt>
      <trkpt lat="49.06056" lon="1.96228">
        <ele>105.5</ele>
        <time>2022-03-27T07:48:18Z</time>
      </trkpt>
      <trkpt lat="49.06062" lon="1.96225">
        <ele>106.2</ele>
        <time>2022-03-27T07:48:22Z</time>
      </trkpt>
      <trkpt lat="49.06066" lon="1.96223">
        <ele>106.3</ele>
        <time>2022-03-27T07:48:26Z</time>
      </trkpt>
      <trkpt lat="49.06072" lon="1.96222">
        <ele>106.3</ele>
        <time>2022-03-27T07:48:31Z</time>
      </trkpt>
      <trkpt lat="49.06077" lon="1.9622">
        <ele>106.2</ele>
        <time>2022-03-27T07:48:35Z</time>
      </trkpt>
      <trkpt lat="49.06082" lon="1.96218">
        <ele>106.6</ele>
        <time>2022-03-27T07:48:39Z</time>
      </trkpt>
      <trkpt lat="49.06086" lon="1.96216">
        <ele>107.5</ele>
        <time>2022-03-27T07:48:43Z</time>
      </trkpt>
      <trkpt lat="49.06091" lon="1.96214">
        <ele>108.1</ele>
        <time>2022-03-27T07:48:47Z</time>
      </trkpt>
      <trkpt lat="49.06096" lon="1.96212">
        <ele>108.2</ele>
        <time>2022-03-27T07:48:51Z</time>
      </trkpt>
      <trkpt lat="49.061" lon="1.96209">
        <ele>108.4</ele>
        <time>2022-03-27T07:48:55Z</time>
      </trkpt>
      <trkpt lat="49.06105" lon="1.96207">
        <ele>108.4</ele>
        <time>2022-03-27T07:48:59Z</time>
      </trkpt>
      <trkpt lat="49.0611" lon="1.96204">
        <ele>108.7</ele>
        <time>2022-03-27T07:49:04Z</time>
      </trkpt>
      <trkpt lat="49.06115" lon="1.96201">
        <ele>109.1</ele>
        <time>2022-03-27T07:49:09Z</time>
      </trkpt>
      <trkpt lat="49.0612" lon="1.962">
        <ele>109.3</ele>
        <time>2022-03-27T07:49:14Z</time>
      </trkpt>
      <trkpt lat="49.06126" lon="1.96199">
        <ele>109.4</ele>
        <time>2022-03-27T07:49:18Z</time>
      </trkpt>
      <trkpt lat="49.0613" lon="1.96199">
        <ele>109.4</ele>
        <time>2022-03-27T07:49:22Z</time>
      </trkpt>
      <trkpt lat="49.06135" lon="1.96197">
        <ele>109.6</ele>
        <time>2022-03-27T07:49:26Z</time>
      </trkpt>
      <trkpt lat="49.0614" lon="1.96195">
        <ele>109.8</ele>
        <time>2022-03-27T07:49:31Z</time>
      </trkpt>
      <trkpt lat="49.06144" lon="1.96189">
        <ele>111.7</ele>
        <time>2022-03-27T07:49:38Z</time>
      </trkpt>
      <trkpt lat="49.06148" lon="1.96186">
        <ele>112.6</ele>
        <time>2022-03-27T07:49:43Z</time>
      </trkpt>
      <trkpt lat="49.06153" lon="1.96186">
        <ele>112.5</ele>
        <time>2022-03-27T07:49:47Z</time>
      </trkpt>
      <trkpt lat="49.06158" lon="1.96189">
        <ele>111.8</ele>
        <time>2022-03-27T07:49:52Z</time>
      </trkpt>
      <trkpt lat="49.06163" lon="1.96194">
        <ele>110.9</ele>
        <time>2022-03-27T07:49:57Z</time>
      </trkpt>
      <trkpt lat="49.06167" lon="1.9619">
        <ele>111</ele>
        <time>2022-03-27T07:50:02Z</time>
      </trkpt>
      <trkpt lat="49.06167" lon="1.96197">
        <ele>112.7</ele>
        <time>2022-03-27T07:53:09Z</time>
      </trkpt>
      <trkpt lat="49.06167" lon="1.96206">
        <ele>117.9</ele>
        <time>2022-03-27T07:53:23Z</time>
      </trkpt>
      <trkpt lat="49.06166" lon="1.96215">
        <ele>118</ele>
        <time>2022-03-27T07:53:26Z</time>
      </trkpt>
      <trkpt lat="49.06165" lon="1.96224">
        <ele>118</ele>
        <time>2022-03-27T07:53:29Z</time>
      </trkpt>
      <trkpt lat="49.06159" lon="1.96229">
        <ele>117.3</ele>
        <time>2022-03-27T07:53:33Z</time>
      </trkpt>
      <trkpt lat="49.06155" lon="1.96232">
        <ele>117.4</ele>
        <time>2022-03-27T07:53:37Z</time>
      </trkpt>
      <trkpt lat="49.06151" lon="1.96233">
        <ele>115.3</ele>
        <time>2022-03-27T07:53:46Z</time>
      </trkpt>
      <trkpt lat="49.06146" lon="1.96238">
        <ele>114.2</ele>
        <time>2022-03-27T07:53:51Z</time>
      </trkpt>
      <trkpt lat="49.06141" lon="1.96243">
        <ele>113.4</ele>
        <time>2022-03-27T07:53:56Z</time>
      </trkpt>
      <trkpt lat="49.06137" lon="1.96247">
        <ele>112.5</ele>
        <time>2022-03-27T07:53:59Z</time>
      </trkpt>
      <trkpt lat="49.06132" lon="1.9625">
        <ele>112.3</ele>
        <time>2022-03-27T07:54:03Z</time>
      </trkpt>
      <trkpt lat="49.06127" lon="1.96251">
        <ele>112.2</ele>
        <time>2022-03-27T07:54:06Z</time>
      </trkpt>
      <trkpt lat="49.06123" lon="1.96254">
        <ele>112.6</ele>
        <time>2022-03-27T07:54:10Z</time>
      </trkpt>
      <trkpt lat="49.06107" lon="1.96261">
        <ele>111.5</ele>
        <time>2022-03-27T07:54:22Z</time>
      </trkpt>
      <trkpt lat="49.06096" lon="1.9627">
        <ele>108.9</ele>
        <time>2022-03-27T07:54:32Z</time>
      </trkpt>
      <trkpt lat="49.0609" lon="1.96274">
        <ele>108.4</ele>
        <time>2022-03-27T07:54:36Z</time>
      </trkpt>
      <trkpt lat="49.06081" lon="1.96282">
        <ele>110.4</ele>
        <time>2022-03-27T07:54:45Z</time>
      </trkpt>
      <trkpt lat="49.06077" lon="1.96285">
        <ele>110.2</ele>
        <time>2022-03-27T07:54:48Z</time>
      </trkpt>
      <trkpt lat="49.06072" lon="1.96288">
        <ele>110.5</ele>
        <time>2022-03-27T07:54:52Z</time>
      </trkpt>
      <trkpt lat="49.06066" lon="1.9629">
        <ele>110.8</ele>
        <time>2022-03-27T07:54:56Z</time>
      </trkpt>
      <trkpt lat="49.06061" lon="1.96291">
        <ele>110.7</ele>
        <time>2022-03-27T07:54:59Z</time>
      </trkpt>
      <trkpt lat="49.06057" lon="1.9629">
        <ele>111.3</ele>
        <time>2022-03-27T07:55:04Z</time>
      </trkpt>
      <trkpt lat="49.06051" lon="1.96291">
        <ele>111.3</ele>
        <time>2022-03-27T07:55:08Z</time>
      </trkpt>
      <trkpt lat="49.06047" lon="1.96291">
        <ele>111.2</ele>
        <time>2022-03-27T07:55:11Z</time>
      </trkpt>
      <trkpt lat="49.06041" lon="1.96292">
        <ele>110</ele>
        <time>2022-03-27T07:55:16Z</time>
      </trkpt>
      <trkpt lat="49.06037" lon="1.96295">
        <ele>108</ele>
        <time>2022-03-27T07:55:21Z</time>
      </trkpt>
      <trkpt lat="49.06032" lon="1.96297">
        <ele>107.3</ele>
        <time>2022-03-27T07:55:24Z</time>
      </trkpt>
      <trkpt lat="49.06027" lon="1.96298">
        <ele>107.5</ele>
        <time>2022-03-27T07:55:27Z</time>
      </trkpt>
      <trkpt lat="49.06022" lon="1.96298">
        <ele>108</ele>
        <time>2022-03-27T07:55:31Z</time>
      </trkpt>
      <trkpt lat="49.06017" lon="1.963">
        <ele>108.5</ele>
        <time>2022-03-27T07:55:36Z</time>
      </trkpt>
      <trkpt lat="49.06012" lon="1.96302">
        <ele>108.6</ele>
        <time>2022-03-27T07:55:40Z</time>
      </trkpt>
      <trkpt lat="49.06006" lon="1.96306">
        <ele>108.6</ele>
        <time>2022-03-27T07:55:45Z</time>
      </trkpt>
      <trkpt lat="49.06001" lon="1.96308">
        <ele>108.4</ele>
        <time>2022-03-27T07:55:49Z</time>
      </trkpt>
      <trkpt lat="49.05996" lon="1.96311">
        <ele>108.4</ele>
        <time>2022-03-27T07:55:53Z</time>
      </trkpt>
      <trkpt lat="49.05992" lon="1.96313">
        <ele>108.4</ele>
        <time>2022-03-27T07:55:56Z</time>
      </trkpt>
      <trkpt lat="49.05987" lon="1.96315">
        <ele>108.5</ele>
        <time>2022-03-27T07:56:00Z</time>
      </trkpt>
      <trkpt lat="49.05983" lon="1.96319">
        <ele>108.5</ele>
        <time>2022-03-27T07:56:04Z</time>
      </trkpt>
      <trkpt lat="49.05978" lon="1.96324">
        <ele>108.4</ele>
        <time>2022-03-27T07:56:09Z</time>
      </trkpt>
      <trkpt lat="49.05975" lon="1.96329">
        <ele>108.8</ele>
        <time>2022-03-27T07:56:14Z</time>
      </trkpt>
      <trkpt lat="49.05971" lon="1.96336">
        <ele>109.9</ele>
        <time>2022-03-27T07:56:18Z</time>
      </trkpt>
      <trkpt lat="49.05968" lon="1.96342">
        <ele>113.2</ele>
        <time>2022-03-27T07:56:23Z</time>
      </trkpt>
      <trkpt lat="49.05965" lon="1.96349">
        <ele>117.9</ele>
        <time>2022-03-27T07:56:29Z</time>
      </trkpt>
      <trkpt lat="49.05963" lon="1.96356">
        <ele>116.7</ele>
        <time>2022-03-27T07:56:33Z</time>
      </trkpt>
      <trkpt lat="49.0596" lon="1.96363">
        <ele>111.8</ele>
        <time>2022-03-27T07:56:37Z</time>
      </trkpt>
      <trkpt lat="49.05958" lon="1.96369">
        <ele>109.3</ele>
        <time>2022-03-27T07:56:40Z</time>
      </trkpt>
      <trkpt lat="49.05955" lon="1.96376">
        <ele>109.1</ele>
        <time>2022-03-27T07:56:45Z</time>
      </trkpt>
      <trkpt lat="49.05951" lon="1.96383">
        <ele>109.4</ele>
        <time>2022-03-27T07:56:48Z</time>
      </trkpt>
      <trkpt lat="49.05949" lon="1.96389">
        <ele>110.1</ele>
        <time>2022-03-27T07:56:52Z</time>
      </trkpt>
      <trkpt lat="49.05948" lon="1.96397">
        <ele>111.2</ele>
        <time>2022-03-27T07:56:55Z</time>
      </trkpt>
      <trkpt lat="49.05947" lon="1.96403">
        <ele>112.4</ele>
        <time>2022-03-27T07:56:59Z</time>
      </trkpt>
      <trkpt lat="49.05945" lon="1.9641">
        <ele>113.3</ele>
        <time>2022-03-27T07:57:03Z</time>
      </trkpt>
      <trkpt lat="49.05943" lon="1.96418">
        <ele>113.2</ele>
        <time>2022-03-27T07:57:07Z</time>
      </trkpt>
      <trkpt lat="49.05941" lon="1.96426">
        <ele>112.7</ele>
        <time>2022-03-27T07:57:10Z</time>
      </trkpt>
      <trkpt lat="49.0594" lon="1.96436">
        <ele>112.3</ele>
        <time>2022-03-27T07:57:15Z</time>
      </trkpt>
      <trkpt lat="49.0594" lon="1.96444">
        <ele>112.6</ele>
        <time>2022-03-27T07:57:19Z</time>
      </trkpt>
      <trkpt lat="49.05939" lon="1.96451">
        <ele>113.7</ele>
        <time>2022-03-27T07:57:23Z</time>
      </trkpt>
      <trkpt lat="49.05937" lon="1.96459">
        <ele>115.6</ele>
        <time>2022-03-27T07:57:27Z</time>
      </trkpt>
      <trkpt lat="49.05936" lon="1.96469">
        <ele>116.5</ele>
        <time>2022-03-27T07:57:33Z</time>
      </trkpt>
      <trkpt lat="49.05934" lon="1.96477">
        <ele>115.8</ele>
        <time>2022-03-27T07:57:37Z</time>
      </trkpt>
      <trkpt lat="49.05934" lon="1.96485">
        <ele>114.7</ele>
        <time>2022-03-27T07:57:41Z</time>
      </trkpt>
      <trkpt lat="49.05933" lon="1.96493">
        <ele>113.8</ele>
        <time>2022-03-27T07:57:45Z</time>
      </trkpt>
      <trkpt lat="49.05932" lon="1.96501">
        <ele>112.7</ele>
        <time>2022-03-27T07:57:49Z</time>
      </trkpt>
      <trkpt lat="49.05931" lon="1.96508">
        <ele>112.4</ele>
        <time>2022-03-27T07:57:53Z</time>
      </trkpt>
      <trkpt lat="49.0593" lon="1.96515">
        <ele>112.6</ele>
        <time>2022-03-27T07:57:57Z</time>
      </trkpt>
      <trkpt lat="49.05929" lon="1.96524">
        <ele>113</ele>
        <time>2022-03-27T07:58:01Z</time>
      </trkpt>
      <trkpt lat="49.05929" lon="1.96532">
        <ele>113.6</ele>
        <time>2022-03-27T07:58:05Z</time>
      </trkpt>
      <trkpt lat="49.05928" lon="1.96539">
        <ele>113.7</ele>
        <time>2022-03-27T07:58:09Z</time>
      </trkpt>
      <trkpt lat="49.05928" lon="1.96547">
        <ele>113.7</ele>
        <time>2022-03-27T07:58:13Z</time>
      </trkpt>
      <trkpt lat="49.05927" lon="1.96555">
        <ele>113.8</ele>
        <time>2022-03-27T07:58:17Z</time>
      </trkpt>
      <trkpt lat="49.05926" lon="1.96563">
        <ele>114.3</ele>
        <time>2022-03-27T07:58:21Z</time>
      </trkpt>
      <trkpt lat="49.05925" lon="1.9657">
        <ele>114.4</ele>
        <time>2022-03-27T07:58:25Z</time>
      </trkpt>
      <trkpt lat="49.05923" lon="1.96577">
        <ele>114.1</ele>
        <time>2022-03-27T07:58:29Z</time>
      </trkpt>
      <trkpt lat="49.05922" lon="1.96585">
        <ele>113.5</ele>
        <time>2022-03-27T07:58:33Z</time>
      </trkpt>
      <trkpt lat="49.0592" lon="1.96593">
        <ele>112.6</ele>
        <time>2022-03-27T07:58:37Z</time>
      </trkpt>
      <trkpt lat="49.05919" lon="1.966">
        <ele>112</ele>
        <time>2022-03-27T07:58:41Z</time>
      </trkpt>
      <trkpt lat="49.05918" lon="1.96607">
        <ele>111.6</ele>
        <time>2022-03-27T07:58:44Z</time>
      </trkpt>
      <trkpt lat="49.05916" lon="1.96616">
        <ele>111.1</ele>
        <time>2022-03-27T07:58:49Z</time>
      </trkpt>
      <trkpt lat="49.05915" lon="1.96624">
        <ele>110.9</ele>
        <time>2022-03-27T07:58:53Z</time>
      </trkpt>
      <trkpt lat="49.05913" lon="1.96632">
        <ele>110.7</ele>
        <time>2022-03-27T07:58:57Z</time>
      </trkpt>
      <trkpt lat="49.05911" lon="1.96638">
        <ele>110.6</ele>
        <time>2022-03-27T07:59:01Z</time>
      </trkpt>
      <trkpt lat="49.05909" lon="1.96646">
        <ele>110.1</ele>
        <time>2022-03-27T07:59:05Z</time>
      </trkpt>
      <trkpt lat="49.05908" lon="1.96652">
        <ele>109.6</ele>
        <time>2022-03-27T07:59:09Z</time>
      </trkpt>
      <trkpt lat="49.05908" lon="1.9666">
        <ele>109.6</ele>
        <time>2022-03-27T07:59:13Z</time>
      </trkpt>
      <trkpt lat="49.05906" lon="1.96668">
        <ele>109.5</ele>
        <time>2022-03-27T07:59:17Z</time>
      </trkpt>
      <trkpt lat="49.05904" lon="1.96676">
        <ele>109</ele>
        <time>2022-03-27T07:59:21Z</time>
      </trkpt>
      <trkpt lat="49.05902" lon="1.96684">
        <ele>108.9</ele>
        <time>2022-03-27T07:59:25Z</time>
      </trkpt>
      <trkpt lat="49.059" lon="1.96691">
        <ele>109.1</ele>
        <time>2022-03-27T07:59:29Z</time>
      </trkpt>
      <trkpt lat="49.05898" lon="1.96698">
        <ele>109.3</ele>
        <time>2022-03-27T07:59:33Z</time>
      </trkpt>
      <trkpt lat="49.05897" lon="1.96706">
        <ele>109.3</ele>
        <time>2022-03-27T07:59:37Z</time>
      </trkpt>
      <trkpt lat="49.05896" lon="1.96713">
        <ele>109.6</ele>
        <time>2022-03-27T07:59:41Z</time>
      </trkpt>
      <trkpt lat="49.05895" lon="1.9672">
        <ele>110.1</ele>
        <time>2022-03-27T07:59:45Z</time>
      </trkpt>
      <trkpt lat="49.05894" lon="1.96728">
        <ele>110.8</ele>
        <time>2022-03-27T07:59:49Z</time>
      </trkpt>
      <trkpt lat="49.05893" lon="1.96735">
        <ele>112.1</ele>
        <time>2022-03-27T07:59:53Z</time>
      </trkpt>
      <trkpt lat="49.05892" lon="1.96743">
        <ele>113.5</ele>
        <time>2022-03-27T07:59:57Z</time>
      </trkpt>
      <trkpt lat="49.05891" lon="1.9675">
        <ele>113.9</ele>
        <time>2022-03-27T08:00:01Z</time>
      </trkpt>
      <trkpt lat="49.05889" lon="1.96758">
        <ele>113.8</ele>
        <time>2022-03-27T08:00:05Z</time>
      </trkpt>
      <trkpt lat="49.05889" lon="1.96766">
        <ele>113.6</ele>
        <time>2022-03-27T08:00:09Z</time>
      </trkpt>
      <trkpt lat="49.05888" lon="1.96773">
        <ele>113.3</ele>
        <time>2022-03-27T08:00:13Z</time>
      </trkpt>
      <trkpt lat="49.05887" lon="1.96781">
        <ele>112.8</ele>
        <time>2022-03-27T08:00:17Z</time>
      </trkpt>
      <trkpt lat="49.05886" lon="1.96789">
        <ele>112.6</ele>
        <time>2022-03-27T08:00:21Z</time>
      </trkpt>
      <trkpt lat="49.05885" lon="1.96796">
        <ele>112.4</ele>
        <time>2022-03-27T08:00:25Z</time>
      </trkpt>
      <trkpt lat="49.05884" lon="1.96805">
        <ele>112.1</ele>
        <time>2022-03-27T08:00:29Z</time>
      </trkpt>
      <trkpt lat="49.05883" lon="1.96813">
        <ele>111.7</ele>
        <time>2022-03-27T08:00:33Z</time>
      </trkpt>
      <trkpt lat="49.05883" lon="1.96821">
        <ele>111.5</ele>
        <time>2022-03-27T08:00:37Z</time>
      </trkpt>
      <trkpt lat="49.05883" lon="1.96829">
        <ele>111.6</ele>
        <time>2022-03-27T08:00:41Z</time>
      </trkpt>
      <trkpt lat="49.05883" lon="1.96837">
        <ele>112.1</ele>
        <time>2022-03-27T08:00:45Z</time>
      </trkpt>
      <trkpt lat="49.05883" lon="1.96845">
        <ele>112.4</ele>
        <time>2022-03-27T08:00:49Z</time>
      </trkpt>
      <trkpt lat="49.05883" lon="1.96853">
        <ele>112.7</ele>
        <time>2022-03-27T08:00:53Z</time>
      </trkpt>
      <trkpt lat="49.05885" lon="1.96861">
        <ele>112.7</ele>
        <time>2022-03-27T08:00:57Z</time>
      </trkpt>
      <trkpt lat="49.05886" lon="1.96867">
        <ele>112.6</ele>
        <time>2022-03-27T08:01:00Z</time>
      </trkpt>
      <trkpt lat="49.05887" lon="1.96875">
        <ele>112.6</ele>
        <time>2022-03-27T08:01:04Z</time>
      </trkpt>
      <trkpt lat="49.05889" lon="1.96883">
        <ele>113.1</ele>
        <time>2022-03-27T08:01:09Z</time>
      </trkpt>
      <trkpt lat="49.0589" lon="1.96892">
        <ele>113.6</ele>
        <time>2022-03-27T08:01:13Z</time>
      </trkpt>
      <trkpt lat="49.05891" lon="1.969">
        <ele>113.6</ele>
        <time>2022-03-27T08:01:18Z</time>
      </trkpt>
      <trkpt lat="49.05893" lon="1.96909">
        <ele>113.8</ele>
        <time>2022-03-27T08:01:22Z</time>
      </trkpt>
      <trkpt lat="49.05894" lon="1.96916">
        <ele>113.9</ele>
        <time>2022-03-27T08:01:25Z</time>
      </trkpt>
      <trkpt lat="49.05895" lon="1.96924">
        <ele>114</ele>
        <time>2022-03-27T08:01:29Z</time>
      </trkpt>
      <trkpt lat="49.05897" lon="1.96931">
        <ele>113.9</ele>
        <time>2022-03-27T08:01:33Z</time>
      </trkpt>
      <trkpt lat="49.05899" lon="1.9694">
        <ele>113.9</ele>
        <time>2022-03-27T08:01:38Z</time>
      </trkpt>
      <trkpt lat="49.059" lon="1.96947">
        <ele>114.2</ele>
        <time>2022-03-27T08:01:42Z</time>
      </trkpt>
      <trkpt lat="49.05902" lon="1.96954">
        <ele>114.5</ele>
        <time>2022-03-27T08:01:46Z</time>
      </trkpt>
      <trkpt lat="49.05903" lon="1.96962">
        <ele>114.7</ele>
        <time>2022-03-27T08:01:51Z</time>
      </trkpt>
      <trkpt lat="49.05905" lon="1.96969">
        <ele>114.9</ele>
        <time>2022-03-27T08:01:55Z</time>
      </trkpt>
      <trkpt lat="49.05905" lon="1.96976">
        <ele>115</ele>
        <time>2022-03-27T08:01:58Z</time>
      </trkpt>
      <trkpt lat="49.05907" lon="1.96985">
        <ele>115</ele>
        <time>2022-03-27T08:02:02Z</time>
      </trkpt>
      <trkpt lat="49.05908" lon="1.96993">
        <ele>114.8</ele>
        <time>2022-03-27T08:02:06Z</time>
      </trkpt>
      <trkpt lat="49.05909" lon="1.97001">
        <ele>114.6</ele>
        <time>2022-03-27T08:02:10Z</time>
      </trkpt>
      <trkpt lat="49.0591" lon="1.97008">
        <ele>114.6</ele>
        <time>2022-03-27T08:02:14Z</time>
      </trkpt>
      <trkpt lat="49.05912" lon="1.97016">
        <ele>114.5</ele>
        <time>2022-03-27T08:02:18Z</time>
      </trkpt>
      <trkpt lat="49.05913" lon="1.97024">
        <ele>114.2</ele>
        <time>2022-03-27T08:02:22Z</time>
      </trkpt>
      <trkpt lat="49.05915" lon="1.97033">
        <ele>113.9</ele>
        <time>2022-03-27T08:02:27Z</time>
      </trkpt>
      <trkpt lat="49.05917" lon="1.9704">
        <ele>113.7</ele>
        <time>2022-03-27T08:02:30Z</time>
      </trkpt>
      <trkpt lat="49.05918" lon="1.97047">
        <ele>113.7</ele>
        <time>2022-03-27T08:02:34Z</time>
      </trkpt>
      <trkpt lat="49.05919" lon="1.97055">
        <ele>113.5</ele>
        <time>2022-03-27T08:02:37Z</time>
      </trkpt>
      <trkpt lat="49.05921" lon="1.97063">
        <ele>113.4</ele>
        <time>2022-03-27T08:02:42Z</time>
      </trkpt>
      <trkpt lat="49.05923" lon="1.9707">
        <ele>113.4</ele>
        <time>2022-03-27T08:02:45Z</time>
      </trkpt>
      <trkpt lat="49.05924" lon="1.97078">
        <ele>113.9</ele>
        <time>2022-03-27T08:02:49Z</time>
      </trkpt>
      <trkpt lat="49.05926" lon="1.97086">
        <ele>114.4</ele>
        <time>2022-03-27T08:02:54Z</time>
      </trkpt>
      <trkpt lat="49.05927" lon="1.97093">
        <ele>114.6</ele>
        <time>2022-03-27T08:02:57Z</time>
      </trkpt>
      <trkpt lat="49.05928" lon="1.971">
        <ele>114.5</ele>
        <time>2022-03-27T08:03:01Z</time>
      </trkpt>
      <trkpt lat="49.05929" lon="1.97108">
        <ele>114</ele>
        <time>2022-03-27T08:03:05Z</time>
      </trkpt>
      <trkpt lat="49.05931" lon="1.97116">
        <ele>113.7</ele>
        <time>2022-03-27T08:03:09Z</time>
      </trkpt>
      <trkpt lat="49.05932" lon="1.97124">
        <ele>113.6</ele>
        <time>2022-03-27T08:03:13Z</time>
      </trkpt>
      <trkpt lat="49.05929" lon="1.97126">
        <ele>111.8</ele>
        <time>2022-03-27T08:10:52Z</time>
      </trkpt>
      <trkpt lat="49.05924" lon="1.97129">
        <ele>111.2</ele>
        <time>2022-03-27T08:10:56Z</time>
      </trkpt>
      <trkpt lat="49.05921" lon="1.97138">
        <ele>110.7</ele>
        <time>2022-03-27T08:11:01Z</time>
      </trkpt>
      <trkpt lat="49.05918" lon="1.97142">
        <ele>110.6</ele>
        <time>2022-03-27T08:11:04Z</time>
      </trkpt>
      <trkpt lat="49.05912" lon="1.97143">
        <ele>111.2</ele>
        <time>2022-03-27T08:11:08Z</time>
      </trkpt>
      <trkpt lat="49.05908" lon="1.97145">
        <ele>111.8</ele>
        <time>2022-03-27T08:11:12Z</time>
      </trkpt>
      <trkpt lat="49.05903" lon="1.97148">
        <ele>111.8</ele>
        <time>2022-03-27T08:11:16Z</time>
      </trkpt>
      <trkpt lat="49.05898" lon="1.97151">
        <ele>111.8</ele>
        <time>2022-03-27T08:11:20Z</time>
      </trkpt>
      <trkpt lat="49.05894" lon="1.97154">
        <ele>111.7</ele>
        <time>2022-03-27T08:11:24Z</time>
      </trkpt>
      <trkpt lat="49.05889" lon="1.97156">
        <ele>111.4</ele>
        <time>2022-03-27T08:11:28Z</time>
      </trkpt>
      <trkpt lat="49.05884" lon="1.97159">
        <ele>110.4</ele>
        <time>2022-03-27T08:11:33Z</time>
      </trkpt>
      <trkpt lat="49.05879" lon="1.97162">
        <ele>110</ele>
        <time>2022-03-27T08:11:38Z</time>
      </trkpt>
      <trkpt lat="49.05875" lon="1.97165">
        <ele>110.1</ele>
        <time>2022-03-27T08:11:42Z</time>
      </trkpt>
      <trkpt lat="49.0587" lon="1.97167">
        <ele>110.5</ele>
        <time>2022-03-27T08:11:46Z</time>
      </trkpt>
      <trkpt lat="49.05864" lon="1.97171">
        <ele>110.5</ele>
        <time>2022-03-27T08:11:52Z</time>
      </trkpt>
      <trkpt lat="49.05859" lon="1.97174">
        <ele>110.2</ele>
        <time>2022-03-27T08:11:57Z</time>
      </trkpt>
      <trkpt lat="49.05854" lon="1.97177">
        <ele>110.2</ele>
        <time>2022-03-27T08:12:02Z</time>
      </trkpt>
      <trkpt lat="49.05849" lon="1.9718">
        <ele>110.6</ele>
        <time>2022-03-27T08:12:06Z</time>
      </trkpt>
      <trkpt lat="49.05845" lon="1.97184">
        <ele>110.8</ele>
        <time>2022-03-27T08:12:10Z</time>
      </trkpt>
      <trkpt lat="49.0584" lon="1.97187">
        <ele>110.8</ele>
        <time>2022-03-27T08:12:14Z</time>
      </trkpt>
      <trkpt lat="49.05836" lon="1.97191">
        <ele>110.8</ele>
        <time>2022-03-27T08:12:18Z</time>
      </trkpt>
      <trkpt lat="49.05831" lon="1.97194">
        <ele>110.6</ele>
        <time>2022-03-27T08:12:22Z</time>
      </trkpt>
      <trkpt lat="49.05826" lon="1.97197">
        <ele>110.5</ele>
        <time>2022-03-27T08:12:26Z</time>
      </trkpt>
      <trkpt lat="49.05821" lon="1.972">
        <ele>110.4</ele>
        <time>2022-03-27T08:12:31Z</time>
      </trkpt>
      <trkpt lat="49.05815" lon="1.97202">
        <ele>110.5</ele>
        <time>2022-03-27T08:12:35Z</time>
      </trkpt>
      <trkpt lat="49.0581" lon="1.97205">
        <ele>110.2</ele>
        <time>2022-03-27T08:12:39Z</time>
      </trkpt>
      <trkpt lat="49.05805" lon="1.97208">
        <ele>109.7</ele>
        <time>2022-03-27T08:12:43Z</time>
      </trkpt>
      <trkpt lat="49.05801" lon="1.97212">
        <ele>109.5</ele>
        <time>2022-03-27T08:12:47Z</time>
      </trkpt>
      <trkpt lat="49.05797" lon="1.97215">
        <ele>109.3</ele>
        <time>2022-03-27T08:12:51Z</time>
      </trkpt>
      <trkpt lat="49.05792" lon="1.97218">
        <ele>109</ele>
        <time>2022-03-27T08:12:55Z</time>
      </trkpt>
      <trkpt lat="49.05787" lon="1.97221">
        <ele>108.8</ele>
        <time>2022-03-27T08:12:59Z</time>
      </trkpt>
      <trkpt lat="49.05781" lon="1.97225">
        <ele>108.7</ele>
        <time>2022-03-27T08:13:04Z</time>
      </trkpt>
      <trkpt lat="49.05776" lon="1.97229">
        <ele>108.9</ele>
        <time>2022-03-27T08:13:08Z</time>
      </trkpt>
      <trkpt lat="49.05771" lon="1.97232">
        <ele>109</ele>
        <time>2022-03-27T08:13:12Z</time>
      </trkpt>
      <trkpt lat="49.05767" lon="1.97236">
        <ele>109</ele>
        <time>2022-03-27T08:13:15Z</time>
      </trkpt>
      <trkpt lat="49.05763" lon="1.97239">
        <ele>108.8</ele>
        <time>2022-03-27T08:13:19Z</time>
      </trkpt>
      <trkpt lat="49.05757" lon="1.97243">
        <ele>108.2</ele>
        <time>2022-03-27T08:13:23Z</time>
      </trkpt>
      <trkpt lat="49.05752" lon="1.97246">
        <ele>107.7</ele>
        <time>2022-03-27T08:13:27Z</time>
      </trkpt>
      <trkpt lat="49.05748" lon="1.97249">
        <ele>107.3</ele>
        <time>2022-03-27T08:13:31Z</time>
      </trkpt>
      <trkpt lat="49.05743" lon="1.97253">
        <ele>107.1</ele>
        <time>2022-03-27T08:13:35Z</time>
      </trkpt>
      <trkpt lat="49.05738" lon="1.97256">
        <ele>106.9</ele>
        <time>2022-03-27T08:13:39Z</time>
      </trkpt>
      <trkpt lat="49.05733" lon="1.9726">
        <ele>106.8</ele>
        <time>2022-03-27T08:13:44Z</time>
      </trkpt>
      <trkpt lat="49.05729" lon="1.97263">
        <ele>106.5</ele>
        <time>2022-03-27T08:13:48Z</time>
      </trkpt>
      <trkpt lat="49.05724" lon="1.97266">
        <ele>106.3</ele>
        <time>2022-03-27T08:13:52Z</time>
      </trkpt>
      <trkpt lat="49.05719" lon="1.9727">
        <ele>106</ele>
        <time>2022-03-27T08:13:56Z</time>
      </trkpt>
      <trkpt lat="49.05715" lon="1.97272">
        <ele>106.1</ele>
        <time>2022-03-27T08:14:00Z</time>
      </trkpt>
      <trkpt lat="49.0571" lon="1.97276">
        <ele>106</ele>
        <time>2022-03-27T08:14:05Z</time>
      </trkpt>
      <trkpt lat="49.05705" lon="1.9728">
        <ele>106</ele>
        <time>2022-03-27T08:14:09Z</time>
      </trkpt>
      <trkpt lat="49.05701" lon="1.97284">
        <ele>105.6</ele>
        <time>2022-03-27T08:14:13Z</time>
      </trkpt>
      <trkpt lat="49.05696" lon="1.97288">
        <ele>104.6</ele>
        <time>2022-03-27T08:14:17Z</time>
      </trkpt>
      <trkpt lat="49.05691" lon="1.97292">
        <ele>103.5</ele>
        <time>2022-03-27T08:14:21Z</time>
      </trkpt>
      <trkpt lat="49.05686" lon="1.97294">
        <ele>103.4</ele>
        <time>2022-03-27T08:14:25Z</time>
      </trkpt>
      <trkpt lat="49.05681" lon="1.97297">
        <ele>103.9</ele>
        <time>2022-03-27T08:14:30Z</time>
      </trkpt>
      <trkpt lat="49.05677" lon="1.97303">
        <ele>104.3</ele>
        <time>2022-03-27T08:14:35Z</time>
      </trkpt>
      <trkpt lat="49.05672" lon="1.97305">
        <ele>104.6</ele>
        <time>2022-03-27T08:14:39Z</time>
      </trkpt>
      <trkpt lat="49.05666" lon="1.97306">
        <ele>105</ele>
        <time>2022-03-27T08:14:43Z</time>
      </trkpt>
      <trkpt lat="49.05661" lon="1.97308">
        <ele>105.3</ele>
        <time>2022-03-27T08:14:47Z</time>
      </trkpt>
      <trkpt lat="49.05655" lon="1.9731">
        <ele>104.8</ele>
        <time>2022-03-27T08:14:51Z</time>
      </trkpt>
      <trkpt lat="49.0565" lon="1.97313">
        <ele>104.3</ele>
        <time>2022-03-27T08:14:55Z</time>
      </trkpt>
      <trkpt lat="49.05644" lon="1.97315">
        <ele>104</ele>
        <time>2022-03-27T08:15:00Z</time>
      </trkpt>
      <trkpt lat="49.05638" lon="1.97317">
        <ele>103.6</ele>
        <time>2022-03-27T08:15:04Z</time>
      </trkpt>
      <trkpt lat="49.05633" lon="1.97318">
        <ele>103</ele>
        <time>2022-03-27T08:15:08Z</time>
      </trkpt>
      <trkpt lat="49.05628" lon="1.97319">
        <ele>102.6</ele>
        <time>2022-03-27T08:15:12Z</time>
      </trkpt>
      <trkpt lat="49.05624" lon="1.9732">
        <ele>102.5</ele>
        <time>2022-03-27T08:15:16Z</time>
      </trkpt>
      <trkpt lat="49.05619" lon="1.97321">
        <ele>102.1</ele>
        <time>2022-03-27T08:15:19Z</time>
      </trkpt>
      <trkpt lat="49.05614" lon="1.97322">
        <ele>101.5</ele>
        <time>2022-03-27T08:15:23Z</time>
      </trkpt>
      <trkpt lat="49.05609" lon="1.97322">
        <ele>101.1</ele>
        <time>2022-03-27T08:15:27Z</time>
      </trkpt>
      <trkpt lat="49.05603" lon="1.97324">
        <ele>101</ele>
        <time>2022-03-27T08:15:31Z</time>
      </trkpt>
      <trkpt lat="49.05597" lon="1.97325">
        <ele>101</ele>
        <time>2022-03-27T08:15:36Z</time>
      </trkpt>
      <trkpt lat="49.05592" lon="1.97326">
        <ele>101</ele>
        <time>2022-03-27T08:15:40Z</time>
      </trkpt>
      <trkpt lat="49.05586" lon="1.97326">
        <ele>101</ele>
        <time>2022-03-27T08:15:44Z</time>
      </trkpt>
      <trkpt lat="49.0558" lon="1.97325">
        <ele>100.8</ele>
        <time>2022-03-27T08:15:49Z</time>
      </trkpt>
      <trkpt lat="49.05574" lon="1.97325">
        <ele>100.5</ele>
        <time>2022-03-27T08:15:53Z</time>
      </trkpt>
      <trkpt lat="49.05569" lon="1.97324">
        <ele>99.9</ele>
        <time>2022-03-27T08:15:58Z</time>
      </trkpt>
      <trkpt lat="49.05564" lon="1.97324">
        <ele>99.3</ele>
        <time>2022-03-27T08:16:01Z</time>
      </trkpt>
      <trkpt lat="49.05559" lon="1.97324">
        <ele>98.3</ele>
        <time>2022-03-27T08:16:06Z</time>
      </trkpt>
      <trkpt lat="49.05554" lon="1.97324">
        <ele>97.9</ele>
        <time>2022-03-27T08:16:10Z</time>
      </trkpt>
      <trkpt lat="49.05549" lon="1.97323">
        <ele>98</ele>
        <time>2022-03-27T08:16:14Z</time>
      </trkpt>
      <trkpt lat="49.05543" lon="1.97323">
        <ele>98.4</ele>
        <time>2022-03-27T08:16:20Z</time>
      </trkpt>
      <trkpt lat="49.05538" lon="1.97324">
        <ele>98.4</ele>
        <time>2022-03-27T08:16:24Z</time>
      </trkpt>
      <trkpt lat="49.05533" lon="1.97325">
        <ele>98.1</ele>
        <time>2022-03-27T08:16:27Z</time>
      </trkpt>
      <trkpt lat="49.05528" lon="1.97327">
        <ele>97.8</ele>
        <time>2022-03-27T08:16:31Z</time>
      </trkpt>
      <trkpt lat="49.05524" lon="1.97331">
        <ele>97.8</ele>
        <time>2022-03-27T08:16:35Z</time>
      </trkpt>
      <trkpt lat="49.0552" lon="1.97334">
        <ele>97.9</ele>
        <time>2022-03-27T08:16:40Z</time>
      </trkpt>
      <trkpt lat="49.05518" lon="1.9734">
        <ele>97.4</ele>
        <time>2022-03-27T08:16:44Z</time>
      </trkpt>
      <trkpt lat="49.05516" lon="1.97349">
        <ele>97.3</ele>
        <time>2022-03-27T08:16:49Z</time>
      </trkpt>
      <trkpt lat="49.05515" lon="1.97357">
        <ele>97.8</ele>
        <time>2022-03-27T08:16:54Z</time>
      </trkpt>
      <trkpt lat="49.05514" lon="1.97365">
        <ele>98.6</ele>
        <time>2022-03-27T08:16:59Z</time>
      </trkpt>
      <trkpt lat="49.05512" lon="1.97371">
        <ele>100.9</ele>
        <time>2022-03-27T08:17:03Z</time>
      </trkpt>
      <trkpt lat="49.05509" lon="1.97377">
        <ele>104.1</ele>
        <time>2022-03-27T08:17:08Z</time>
      </trkpt>
      <trkpt lat="49.05507" lon="1.97383">
        <ele>106</ele>
        <time>2022-03-27T08:17:13Z</time>
      </trkpt>
      <trkpt lat="49.05504" lon="1.9739">
        <ele>106.1</ele>
        <time>2022-03-27T08:17:18Z</time>
      </trkpt>
      <trkpt lat="49.055" lon="1.97394">
        <ele>105.5</ele>
        <time>2022-03-27T08:17:22Z</time>
      </trkpt>
      <trkpt lat="49.05495" lon="1.97396">
        <ele>104.3</ele>
        <time>2022-03-27T08:17:26Z</time>
      </trkpt>
      <trkpt lat="49.0549" lon="1.974">
        <ele>103.3</ele>
        <time>2022-03-27T08:17:31Z</time>
      </trkpt>
      <trkpt lat="49.05486" lon="1.97404">
        <ele>102.8</ele>
        <time>2022-03-27T08:17:36Z</time>
      </trkpt>
      <trkpt lat="49.05482" lon="1.9741">
        <ele>102.9</ele>
        <time>2022-03-27T08:17:41Z</time>
      </trkpt>
      <trkpt lat="49.05478" lon="1.97416">
        <ele>103.3</ele>
        <time>2022-03-27T08:17:46Z</time>
      </trkpt>
      <trkpt lat="49.05474" lon="1.9742">
        <ele>103.3</ele>
        <time>2022-03-27T08:17:51Z</time>
      </trkpt>
      <trkpt lat="49.05469" lon="1.97424">
        <ele>103.4</ele>
        <time>2022-03-27T08:17:55Z</time>
      </trkpt>
      <trkpt lat="49.05466" lon="1.97428">
        <ele>103.7</ele>
        <time>2022-03-27T08:17:59Z</time>
      </trkpt>
      <trkpt lat="49.05461" lon="1.97433">
        <ele>104.5</ele>
        <time>2022-03-27T08:18:03Z</time>
      </trkpt>
      <trkpt lat="49.05456" lon="1.97436">
        <ele>104.8</ele>
        <time>2022-03-27T08:18:08Z</time>
      </trkpt>
      <trkpt lat="49.05451" lon="1.97439">
        <ele>106.2</ele>
        <time>2022-03-27T08:18:12Z</time>
      </trkpt>
      <trkpt lat="49.05448" lon="1.97444">
        <ele>104.6</ele>
        <time>2022-03-27T08:18:18Z</time>
      </trkpt>
      <trkpt lat="49.05444" lon="1.9745">
        <ele>102</ele>
        <time>2022-03-27T08:18:24Z</time>
      </trkpt>
      <trkpt lat="49.0544" lon="1.97456">
        <ele>104.6</ele>
        <time>2022-03-27T08:18:30Z</time>
      </trkpt>
      <trkpt lat="49.05435" lon="1.97459">
        <ele>106.1</ele>
        <time>2022-03-27T08:18:34Z</time>
      </trkpt>
      <trkpt lat="49.0543" lon="1.97461">
        <ele>107.7</ele>
        <time>2022-03-27T08:18:38Z</time>
      </trkpt>
      <trkpt lat="49.05424" lon="1.97462">
        <ele>110.9</ele>
        <time>2022-03-27T08:18:44Z</time>
      </trkpt>
      <trkpt lat="49.0542" lon="1.97464">
        <ele>111.2</ele>
        <time>2022-03-27T08:18:48Z</time>
      </trkpt>
      <trkpt lat="49.05415" lon="1.97466">
        <ele>111.7</ele>
        <time>2022-03-27T08:18:52Z</time>
      </trkpt>
      <trkpt lat="49.05409" lon="1.97467">
        <ele>113</ele>
        <time>2022-03-27T08:18:57Z</time>
      </trkpt>
      <trkpt lat="49.05404" lon="1.97469">
        <ele>113.7</ele>
        <time>2022-03-27T08:19:01Z</time>
      </trkpt>
      <trkpt lat="49.05399" lon="1.9747">
        <ele>113.1</ele>
        <time>2022-03-27T08:19:05Z</time>
      </trkpt>
      <trkpt lat="49.05395" lon="1.97473">
        <ele>112.4</ele>
        <time>2022-03-27T08:19:09Z</time>
      </trkpt>
      <trkpt lat="49.05391" lon="1.97478">
        <ele>110.9</ele>
        <time>2022-03-27T08:19:16Z</time>
      </trkpt>
      <trkpt lat="49.05385" lon="1.97478">
        <ele>110.7</ele>
        <time>2022-03-27T08:19:21Z</time>
      </trkpt>
      <trkpt lat="49.0538" lon="1.97478">
        <ele>111.5</ele>
        <time>2022-03-27T08:19:25Z</time>
      </trkpt>
      <trkpt lat="49.05375" lon="1.97478">
        <ele>112.9</ele>
        <time>2022-03-27T08:19:30Z</time>
      </trkpt>
      <trkpt lat="49.05369" lon="1.97477">
        <ele>114.1</ele>
        <time>2022-03-27T08:19:35Z</time>
      </trkpt>
      <trkpt lat="49.05364" lon="1.97478">
        <ele>114.9</ele>
        <time>2022-03-27T08:19:40Z</time>
      </trkpt>
      <trkpt lat="49.05359" lon="1.9748">
        <ele>114.9</ele>
        <time>2022-03-27T08:19:47Z</time>
      </trkpt>
      <trkpt lat="49.05355" lon="1.97479">
        <ele>114.5</ele>
        <time>2022-03-27T08:19:53Z</time>
      </trkpt>
      <trkpt lat="49.05351" lon="1.97475">
        <ele>114.3</ele>
        <time>2022-03-27T08:20:02Z</time>
      </trkpt>
      <trkpt lat="49.05345" lon="1.97473">
        <ele>113.5</ele>
        <time>2022-03-27T08:20:08Z</time>
      </trkpt>
      <trkpt lat="49.0534" lon="1.97473">
        <ele>111.8</ele>
        <time>2022-03-27T08:20:13Z</time>
      </trkpt>
      <trkpt lat="49.05336" lon="1.97473">
        <ele>111</ele>
        <time>2022-03-27T08:20:18Z</time>
      </trkpt>
      <trkpt lat="49.05331" lon="1.97475">
        <ele>110</ele>
        <time>2022-03-27T08:20:22Z</time>
      </trkpt>
      <trkpt lat="49.05329" lon="1.97481">
        <ele>109.5</ele>
        <time>2022-03-27T08:20:27Z</time>
      </trkpt>
      <trkpt lat="49.0533" lon="1.97488">
        <ele>109.7</ele>
        <time>2022-03-27T08:20:32Z</time>
      </trkpt>
      <trkpt lat="49.05325" lon="1.97492">
        <ele>110.1</ele>
        <time>2022-03-27T08:20:38Z</time>
      </trkpt>
      <trkpt lat="49.05321" lon="1.97491">
        <ele>109.8</ele>
        <time>2022-03-27T08:20:42Z</time>
      </trkpt>
      <trkpt lat="49.05316" lon="1.9749">
        <ele>108.4</ele>
        <time>2022-03-27T08:20:46Z</time>
      </trkpt>
      <trkpt lat="49.0531" lon="1.9749">
        <ele>107.6</ele>
        <time>2022-03-27T08:20:51Z</time>
      </trkpt>
      <trkpt lat="49.05305" lon="1.97491">
        <ele>107.9</ele>
        <time>2022-03-27T08:20:55Z</time>
      </trkpt>
      <trkpt lat="49.05299" lon="1.97491">
        <ele>108</ele>
        <time>2022-03-27T08:21:00Z</time>
      </trkpt>
      <trkpt lat="49.05294" lon="1.9749">
        <ele>108.4</ele>
        <time>2022-03-27T08:21:04Z</time>
      </trkpt>
      <trkpt lat="49.05288" lon="1.9749">
        <ele>108.9</ele>
        <time>2022-03-27T08:21:08Z</time>
      </trkpt>
      <trkpt lat="49.05283" lon="1.97489">
        <ele>109.4</ele>
        <time>2022-03-27T08:21:12Z</time>
      </trkpt>
      <trkpt lat="49.05278" lon="1.97487">
        <ele>110.9</ele>
        <time>2022-03-27T08:24:18Z</time>
      </trkpt>
      <trkpt lat="49.05273" lon="1.97484">
        <ele>110.7</ele>
        <time>2022-03-27T08:24:22Z</time>
      </trkpt>
      <trkpt lat="49.05268" lon="1.97485">
        <ele>110.5</ele>
        <time>2022-03-27T08:24:28Z</time>
      </trkpt>
      <trkpt lat="49.05262" lon="1.97484">
        <ele>110.7</ele>
        <time>2022-03-27T08:24:32Z</time>
      </trkpt>
      <trkpt lat="49.05257" lon="1.97482">
        <ele>110.6</ele>
        <time>2022-03-27T08:24:36Z</time>
      </trkpt>
      <trkpt lat="49.05252" lon="1.97481">
        <ele>110.6</ele>
        <time>2022-03-27T08:24:40Z</time>
      </trkpt>
      <trkpt lat="49.05246" lon="1.97481">
        <ele>110.9</ele>
        <time>2022-03-27T08:24:45Z</time>
      </trkpt>
      <trkpt lat="49.0524" lon="1.9748">
        <ele>111.3</ele>
        <time>2022-03-27T08:24:49Z</time>
      </trkpt>
      <trkpt lat="49.05234" lon="1.97481">
        <ele>111.3</ele>
        <time>2022-03-27T08:24:54Z</time>
      </trkpt>
      <trkpt lat="49.0523" lon="1.97483">
        <ele>110.7</ele>
        <time>2022-03-27T08:24:58Z</time>
      </trkpt>
      <trkpt lat="49.05225" lon="1.97482">
        <ele>110.5</ele>
        <time>2022-03-27T08:25:02Z</time>
      </trkpt>
      <trkpt lat="49.0522" lon="1.97481">
        <ele>110.5</ele>
        <time>2022-03-27T08:25:07Z</time>
      </trkpt>
      <trkpt lat="49.05214" lon="1.9748">
        <ele>110.3</ele>
        <time>2022-03-27T08:25:11Z</time>
      </trkpt>
      <trkpt lat="49.05209" lon="1.9748">
        <ele>109.9</ele>
        <time>2022-03-27T08:25:16Z</time>
      </trkpt>
      <trkpt lat="49.05204" lon="1.9748">
        <ele>109.7</ele>
        <time>2022-03-27T08:25:20Z</time>
      </trkpt>
      <trkpt lat="49.05199" lon="1.97479">
        <ele>109.6</ele>
        <time>2022-03-27T08:25:25Z</time>
      </trkpt>
      <trkpt lat="49.05193" lon="1.97479">
        <ele>109.6</ele>
        <time>2022-03-27T08:25:29Z</time>
      </trkpt>
      <trkpt lat="49.05188" lon="1.97479">
        <ele>109.7</ele>
        <time>2022-03-27T08:25:33Z</time>
      </trkpt>
      <trkpt lat="49.05183" lon="1.97479">
        <ele>109.8</ele>
        <time>2022-03-27T08:25:37Z</time>
      </trkpt>
      <trkpt lat="49.05178" lon="1.9748">
        <ele>109.7</ele>
        <time>2022-03-27T08:25:41Z</time>
      </trkpt>
      <trkpt lat="49.05172" lon="1.97479">
        <ele>109.6</ele>
        <time>2022-03-27T08:25:46Z</time>
      </trkpt>
      <trkpt lat="49.05166" lon="1.9748">
        <ele>110</ele>
        <time>2022-03-27T08:25:50Z</time>
      </trkpt>
      <trkpt lat="49.0516" lon="1.97481">
        <ele>110</ele>
        <time>2022-03-27T08:25:55Z</time>
      </trkpt>
      <trkpt lat="49.05155" lon="1.97481">
        <ele>109.2</ele>
        <time>2022-03-27T08:25:59Z</time>
      </trkpt>
      <trkpt lat="49.0515" lon="1.97481">
        <ele>108.9</ele>
        <time>2022-03-27T08:26:03Z</time>
      </trkpt>
      <trkpt lat="49.05145" lon="1.97482">
        <ele>108.9</ele>
        <time>2022-03-27T08:26:07Z</time>
      </trkpt>
      <trkpt lat="49.0514" lon="1.97484">
        <ele>108.8</ele>
        <time>2022-03-27T08:26:11Z</time>
      </trkpt>
      <trkpt lat="49.05135" lon="1.97483">
        <ele>108.9</ele>
        <time>2022-03-27T08:26:15Z</time>
      </trkpt>
      <trkpt lat="49.0513" lon="1.97483">
        <ele>109.3</ele>
        <time>2022-03-27T08:26:19Z</time>
      </trkpt>
      <trkpt lat="49.05124" lon="1.97483">
        <ele>109.6</ele>
        <time>2022-03-27T08:26:23Z</time>
      </trkpt>
      <trkpt lat="49.0512" lon="1.97484">
        <ele>109.7</ele>
        <time>2022-03-27T08:26:27Z</time>
      </trkpt>
      <trkpt lat="49.05115" lon="1.97485">
        <ele>109.7</ele>
        <time>2022-03-27T08:26:31Z</time>
      </trkpt>
      <trkpt lat="49.0511" lon="1.97485">
        <ele>109.5</ele>
        <time>2022-03-27T08:26:35Z</time>
      </trkpt>
      <trkpt lat="49.05106" lon="1.97486">
        <ele>109.4</ele>
        <time>2022-03-27T08:26:38Z</time>
      </trkpt>
      <trkpt lat="49.05101" lon="1.97487">
        <ele>109.3</ele>
        <time>2022-03-27T08:26:42Z</time>
      </trkpt>
      <trkpt lat="49.05095" lon="1.97487">
        <ele>109.4</ele>
        <time>2022-03-27T08:26:46Z</time>
      </trkpt>
      <trkpt lat="49.0509" lon="1.97488">
        <ele>109.3</ele>
        <time>2022-03-27T08:26:50Z</time>
      </trkpt>
      <trkpt lat="49.05085" lon="1.97488">
        <ele>109.4</ele>
        <time>2022-03-27T08:26:54Z</time>
      </trkpt>
      <trkpt lat="49.0508" lon="1.97489">
        <ele>109.5</ele>
        <time>2022-03-27T08:26:58Z</time>
      </trkpt>
      <trkpt lat="49.05075" lon="1.97489">
        <ele>109.6</ele>
        <time>2022-03-27T08:27:02Z</time>
      </trkpt>
      <trkpt lat="49.05069" lon="1.97489">
        <ele>109.2</ele>
        <time>2022-03-27T08:27:06Z</time>
      </trkpt>
      <trkpt lat="49.05064" lon="1.9749">
        <ele>109.1</ele>
        <time>2022-03-27T08:27:11Z</time>
      </trkpt>
      <trkpt lat="49.05058" lon="1.97491">
        <ele>109.1</ele>
        <time>2022-03-27T08:27:15Z</time>
      </trkpt>
      <trkpt lat="49.05053" lon="1.97492">
        <ele>109.3</ele>
        <time>2022-03-27T08:27:19Z</time>
      </trkpt>
      <trkpt lat="49.05048" lon="1.97492">
        <ele>109.3</ele>
        <time>2022-03-27T08:27:23Z</time>
      </trkpt>
      <trkpt lat="49.05043" lon="1.97492">
        <ele>109.5</ele>
        <time>2022-03-27T08:27:27Z</time>
      </trkpt>
      <trkpt lat="49.05037" lon="1.97492">
        <ele>109.5</ele>
        <time>2022-03-27T08:27:31Z</time>
      </trkpt>
      <trkpt lat="49.05033" lon="1.97493">
        <ele>109.5</ele>
        <time>2022-03-27T08:27:35Z</time>
      </trkpt>
      <trkpt lat="49.05027" lon="1.97494">
        <ele>109.6</ele>
        <time>2022-03-27T08:27:39Z</time>
      </trkpt>
      <trkpt lat="49.05022" lon="1.97495">
        <ele>109.6</ele>
        <time>2022-03-27T08:27:43Z</time>
      </trkpt>
      <trkpt lat="49.05017" lon="1.97495">
        <ele>109.8</ele>
        <time>2022-03-27T08:27:47Z</time>
      </trkpt>
      <trkpt lat="49.05012" lon="1.97496">
        <ele>110.2</ele>
        <time>2022-03-27T08:27:51Z</time>
      </trkpt>
      <trkpt lat="49.05007" lon="1.97497">
        <ele>110.3</ele>
        <time>2022-03-27T08:27:55Z</time>
      </trkpt>
      <trkpt lat="49.05002" lon="1.97498">
        <ele>110.3</ele>
        <time>2022-03-27T08:27:59Z</time>
      </trkpt>
      <trkpt lat="49.04997" lon="1.97499">
        <ele>110.1</ele>
        <time>2022-03-27T08:28:03Z</time>
      </trkpt>
      <trkpt lat="49.04993" lon="1.97499">
        <ele>109.9</ele>
        <time>2022-03-27T08:28:06Z</time>
      </trkpt>
      <trkpt lat="49.04988" lon="1.975">
        <ele>109.4</ele>
        <time>2022-03-27T08:28:10Z</time>
      </trkpt>
      <trkpt lat="49.04983" lon="1.97501">
        <ele>109.2</ele>
        <time>2022-03-27T08:28:14Z</time>
      </trkpt>
      <trkpt lat="49.04978" lon="1.97502">
        <ele>109.4</ele>
        <time>2022-03-27T08:28:18Z</time>
      </trkpt>
      <trkpt lat="49.04973" lon="1.97504">
        <ele>109.7</ele>
        <time>2022-03-27T08:28:22Z</time>
      </trkpt>
      <trkpt lat="49.04967" lon="1.97506">
        <ele>109.6</ele>
        <time>2022-03-27T08:28:27Z</time>
      </trkpt>
      <trkpt lat="49.04963" lon="1.97507">
        <ele>109.5</ele>
        <time>2022-03-27T08:28:30Z</time>
      </trkpt>
      <trkpt lat="49.04958" lon="1.97508">
        <ele>109.4</ele>
        <time>2022-03-27T08:28:33Z</time>
      </trkpt>
      <trkpt lat="49.04953" lon="1.97507">
        <ele>109.9</ele>
        <time>2022-03-27T08:28:37Z</time>
      </trkpt>
      <trkpt lat="49.04948" lon="1.97507">
        <ele>110.5</ele>
        <time>2022-03-27T08:28:40Z</time>
      </trkpt>
      <trkpt lat="49.04943" lon="1.97507">
        <ele>111.7</ele>
        <time>2022-03-27T08:28:44Z</time>
      </trkpt>
      <trkpt lat="49.04939" lon="1.97507">
        <ele>112.3</ele>
        <time>2022-03-27T08:28:47Z</time>
      </trkpt>
      <trkpt lat="49.04933" lon="1.97508">
        <ele>113.1</ele>
        <time>2022-03-27T08:28:51Z</time>
      </trkpt>
      <trkpt lat="49.04929" lon="1.9751">
        <ele>112.7</ele>
        <time>2022-03-27T08:28:55Z</time>
      </trkpt>
      <trkpt lat="49.04924" lon="1.97512">
        <ele>112</ele>
        <time>2022-03-27T08:28:59Z</time>
      </trkpt>
      <trkpt lat="49.04919" lon="1.97515">
        <ele>111.5</ele>
        <time>2022-03-27T08:29:03Z</time>
      </trkpt>
      <trkpt lat="49.04915" lon="1.9752">
        <ele>111.5</ele>
        <time>2022-03-27T08:29:07Z</time>
      </trkpt>
      <trkpt lat="49.0491" lon="1.97524">
        <ele>112.5</ele>
        <time>2022-03-27T08:29:11Z</time>
      </trkpt>
      <trkpt lat="49.04905" lon="1.97527">
        <ele>113.5</ele>
        <time>2022-03-27T08:29:15Z</time>
      </trkpt>
      <trkpt lat="49.04901" lon="1.97533">
        <ele>113.8</ele>
        <time>2022-03-27T08:29:19Z</time>
      </trkpt>
      <trkpt lat="49.04897" lon="1.97538">
        <ele>114.6</ele>
        <time>2022-03-27T08:29:23Z</time>
      </trkpt>
      <trkpt lat="49.04892" lon="1.97543">
        <ele>115.7</ele>
        <time>2022-03-27T08:29:27Z</time>
      </trkpt>
      <trkpt lat="49.04888" lon="1.97548">
        <ele>116.4</ele>
        <time>2022-03-27T08:29:31Z</time>
      </trkpt>
      <trkpt lat="49.04884" lon="1.97553">
        <ele>117</ele>
        <time>2022-03-27T08:29:35Z</time>
      </trkpt>
      <trkpt lat="49.04879" lon="1.97558">
        <ele>116.8</ele>
        <time>2022-03-27T08:29:39Z</time>
      </trkpt>
      <trkpt lat="49.04875" lon="1.97562">
        <ele>116.5</ele>
        <time>2022-03-27T08:29:43Z</time>
      </trkpt>
      <trkpt lat="49.0487" lon="1.97565">
        <ele>116.3</ele>
        <time>2022-03-27T08:29:47Z</time>
      </trkpt>
      <trkpt lat="49.04865" lon="1.9757">
        <ele>117.4</ele>
        <time>2022-03-27T08:29:52Z</time>
      </trkpt>
      <trkpt lat="49.04861" lon="1.97575">
        <ele>119.3</ele>
        <time>2022-03-27T08:29:56Z</time>
      </trkpt>
      <trkpt lat="49.04856" lon="1.97578">
        <ele>120.6</ele>
        <time>2022-03-27T08:30:00Z</time>
      </trkpt>
      <trkpt lat="49.04851" lon="1.97583">
        <ele>120.5</ele>
        <time>2022-03-27T08:30:05Z</time>
      </trkpt>
      <trkpt lat="49.04847" lon="1.97586">
        <ele>119.2</ele>
        <time>2022-03-27T08:30:08Z</time>
      </trkpt>
      <trkpt lat="49.04843" lon="1.97588">
        <ele>118</ele>
        <time>2022-03-27T08:30:12Z</time>
      </trkpt>
      <trkpt lat="49.04838" lon="1.97591">
        <ele>117.2</ele>
        <time>2022-03-27T08:30:17Z</time>
      </trkpt>
      <trkpt lat="49.04834" lon="1.97595">
        <ele>117.1</ele>
        <time>2022-03-27T08:30:22Z</time>
      </trkpt>
      <trkpt lat="49.04831" lon="1.97601">
        <ele>116.7</ele>
        <time>2022-03-27T08:30:26Z</time>
      </trkpt>
      <trkpt lat="49.04828" lon="1.97609">
        <ele>115.7</ele>
        <time>2022-03-27T08:30:30Z</time>
      </trkpt>
      <trkpt lat="49.04824" lon="1.97614">
        <ele>115.1</ele>
        <time>2022-03-27T08:30:34Z</time>
      </trkpt>
      <trkpt lat="49.04819" lon="1.97616">
        <ele>115.7</ele>
        <time>2022-03-27T08:30:38Z</time>
      </trkpt>
      <trkpt lat="49.04814" lon="1.97619">
        <ele>116.1</ele>
        <time>2022-03-27T08:30:43Z</time>
      </trkpt>
      <trkpt lat="49.04809" lon="1.97625">
        <ele>116.3</ele>
        <time>2022-03-27T08:30:47Z</time>
      </trkpt>
      <trkpt lat="49.04805" lon="1.9763">
        <ele>116.2</ele>
        <time>2022-03-27T08:30:52Z</time>
      </trkpt>
      <trkpt lat="49.048" lon="1.97632">
        <ele>116.3</ele>
        <time>2022-03-27T08:30:56Z</time>
      </trkpt>
      <trkpt lat="49.04795" lon="1.97634">
        <ele>116.8</ele>
        <time>2022-03-27T08:31:00Z</time>
      </trkpt>
      <trkpt lat="49.0479" lon="1.97637">
        <ele>117</ele>
        <time>2022-03-27T08:31:04Z</time>
      </trkpt>
      <trkpt lat="49.04786" lon="1.97641">
        <ele>116.1</ele>
        <time>2022-03-27T08:31:08Z</time>
      </trkpt>
      <trkpt lat="49.04782" lon="1.97645">
        <ele>114.9</ele>
        <time>2022-03-27T08:31:12Z</time>
      </trkpt>
      <trkpt lat="49.04778" lon="1.97649">
        <ele>114.2</ele>
        <time>2022-03-27T08:31:16Z</time>
      </trkpt>
      <trkpt lat="49.04774" lon="1.97653">
        <ele>113.8</ele>
        <time>2022-03-27T08:31:20Z</time>
      </trkpt>
      <trkpt lat="49.04769" lon="1.97656">
        <ele>113.3</ele>
        <time>2022-03-27T08:31:24Z</time>
      </trkpt>
      <trkpt lat="49.04764" lon="1.97658">
        <ele>112.2</ele>
        <time>2022-03-27T08:31:28Z</time>
      </trkpt>
      <trkpt lat="49.0476" lon="1.97661">
        <ele>110</ele>
        <time>2022-03-27T08:31:33Z</time>
      </trkpt>
      <trkpt lat="49.04755" lon="1.97665">
        <ele>108.3</ele>
        <time>2022-03-27T08:31:38Z</time>
      </trkpt>
      <trkpt lat="49.0475" lon="1.9767">
        <ele>108.3</ele>
        <time>2022-03-27T08:31:42Z</time>
      </trkpt>
      <trkpt lat="49.04745" lon="1.97673">
        <ele>108.8</ele>
        <time>2022-03-27T08:31:47Z</time>
      </trkpt>
      <trkpt lat="49.04741" lon="1.97677">
        <ele>109.5</ele>
        <time>2022-03-27T08:31:51Z</time>
      </trkpt>
      <trkpt lat="49.04737" lon="1.97679">
        <ele>110</ele>
        <time>2022-03-27T08:31:55Z</time>
      </trkpt>
      <trkpt lat="49.04732" lon="1.9768">
        <ele>110.1</ele>
        <time>2022-03-27T08:31:59Z</time>
      </trkpt>
      <trkpt lat="49.04726" lon="1.97681">
        <ele>109.6</ele>
        <time>2022-03-27T08:32:03Z</time>
      </trkpt>
      <trkpt lat="49.04722" lon="1.97682">
        <ele>109.3</ele>
        <time>2022-03-27T08:32:07Z</time>
      </trkpt>
      <trkpt lat="49.04717" lon="1.97684">
        <ele>109</ele>
        <time>2022-03-27T08:32:11Z</time>
      </trkpt>
      <trkpt lat="49.04712" lon="1.97685">
        <ele>108.4</ele>
        <time>2022-03-27T08:32:15Z</time>
      </trkpt>
      <trkpt lat="49.04707" lon="1.97687">
        <ele>107.1</ele>
        <time>2022-03-27T08:32:21Z</time>
      </trkpt>
      <trkpt lat="49.04701" lon="1.97687">
        <ele>107.1</ele>
        <time>2022-03-27T08:32:26Z</time>
      </trkpt>
      <trkpt lat="49.04696" lon="1.97688">
        <ele>108.2</ele>
        <time>2022-03-27T08:32:31Z</time>
      </trkpt>
      <trkpt lat="49.04691" lon="1.97691">
        <ele>108.6</ele>
        <time>2022-03-27T08:32:36Z</time>
      </trkpt>
      <trkpt lat="49.04686" lon="1.97693">
        <ele>108.7</ele>
        <time>2022-03-27T08:32:40Z</time>
      </trkpt>
      <trkpt lat="49.04681" lon="1.97696">
        <ele>108.9</ele>
        <time>2022-03-27T08:32:45Z</time>
      </trkpt>
      <trkpt lat="49.04676" lon="1.97698">
        <ele>108.7</ele>
        <time>2022-03-27T08:32:49Z</time>
      </trkpt>
      <trkpt lat="49.04672" lon="1.977">
        <ele>108.6</ele>
        <time>2022-03-27T08:32:53Z</time>
      </trkpt>
      <trkpt lat="49.04667" lon="1.97701">
        <ele>108.3</ele>
        <time>2022-03-27T08:32:57Z</time>
      </trkpt>
      <trkpt lat="49.04662" lon="1.97702">
        <ele>107.8</ele>
        <time>2022-03-27T08:33:02Z</time>
      </trkpt>
      <trkpt lat="49.04657" lon="1.97703">
        <ele>107.6</ele>
        <time>2022-03-27T08:33:07Z</time>
      </trkpt>
      <trkpt lat="49.04652" lon="1.97705">
        <ele>107.6</ele>
        <time>2022-03-27T08:33:12Z</time>
      </trkpt>
      <trkpt lat="49.04648" lon="1.97711">
        <ele>107.4</ele>
        <time>2022-03-27T08:33:17Z</time>
      </trkpt>
      <trkpt lat="49.04643" lon="1.97714">
        <ele>107.3</ele>
        <time>2022-03-27T08:33:23Z</time>
      </trkpt>
      <trkpt lat="49.04635" lon="1.97701">
        <ele>102.1</ele>
        <time>2022-03-27T08:39:10Z</time>
      </trkpt>
      <trkpt lat="49.04633" lon="1.97694">
        <ele>101.4</ele>
        <time>2022-03-27T08:39:14Z</time>
      </trkpt>
      <trkpt lat="49.04631" lon="1.97686">
        <ele>101.5</ele>
        <time>2022-03-27T08:39:18Z</time>
      </trkpt>
      <trkpt lat="49.04626" lon="1.9768">
        <ele>102.1</ele>
        <time>2022-03-27T08:39:22Z</time>
      </trkpt>
      <trkpt lat="49.04623" lon="1.97673">
        <ele>102.4</ele>
        <time>2022-03-27T08:39:26Z</time>
      </trkpt>
      <trkpt lat="49.0462" lon="1.97665">
        <ele>102.3</ele>
        <time>2022-03-27T08:39:30Z</time>
      </trkpt>
      <trkpt lat="49.04617" lon="1.97659">
        <ele>102.2</ele>
        <time>2022-03-27T08:39:34Z</time>
      </trkpt>
      <trkpt lat="49.04615" lon="1.97653">
        <ele>101.9</ele>
        <time>2022-03-27T08:39:38Z</time>
      </trkpt>
      <trkpt lat="49.04613" lon="1.97645">
        <ele>101.6</ele>
        <time>2022-03-27T08:39:42Z</time>
      </trkpt>
      <trkpt lat="49.0461" lon="1.97639">
        <ele>101.5</ele>
        <time>2022-03-27T08:39:46Z</time>
      </trkpt>
      <trkpt lat="49.04607" lon="1.97631">
        <ele>101.3</ele>
        <time>2022-03-27T08:39:51Z</time>
      </trkpt>
      <trkpt lat="49.04604" lon="1.97624">
        <ele>100.9</ele>
        <time>2022-03-27T08:39:55Z</time>
      </trkpt>
      <trkpt lat="49.04602" lon="1.97618">
        <ele>100.7</ele>
        <time>2022-03-27T08:39:58Z</time>
      </trkpt>
      <trkpt lat="49.046" lon="1.97611">
        <ele>100.8</ele>
        <time>2022-03-27T08:40:02Z</time>
      </trkpt>
      <trkpt lat="49.04597" lon="1.97603">
        <ele>101.1</ele>
        <time>2022-03-27T08:40:06Z</time>
      </trkpt>
      <trkpt lat="49.04595" lon="1.97597">
        <ele>100.8</ele>
        <time>2022-03-27T08:40:10Z</time>
      </trkpt>
      <trkpt lat="49.04593" lon="1.97588">
        <ele>100.1</ele>
        <time>2022-03-27T08:40:15Z</time>
      </trkpt>
      <trkpt lat="49.04592" lon="1.97582">
        <ele>99.6</ele>
        <time>2022-03-27T08:40:19Z</time>
      </trkpt>
      <trkpt lat="49.0459" lon="1.97575">
        <ele>99</ele>
        <time>2022-03-27T08:40:23Z</time>
      </trkpt>
      <trkpt lat="49.04588" lon="1.97568">
        <ele>98.8</ele>
        <time>2022-03-27T08:40:28Z</time>
      </trkpt>
      <trkpt lat="49.04585" lon="1.97562">
        <ele>98.6</ele>
        <time>2022-03-27T08:40:32Z</time>
      </trkpt>
      <trkpt lat="49.04583" lon="1.97555">
        <ele>98.3</ele>
        <time>2022-03-27T08:40:36Z</time>
      </trkpt>
      <trkpt lat="49.04579" lon="1.97552">
        <ele>97.6</ele>
        <time>2022-03-27T08:40:41Z</time>
      </trkpt>
      <trkpt lat="49.04574" lon="1.97553">
        <ele>97.5</ele>
        <time>2022-03-27T08:40:49Z</time>
      </trkpt>
      <trkpt lat="49.04569" lon="1.97556">
        <ele>97.9</ele>
        <time>2022-03-27T08:40:53Z</time>
      </trkpt>
      <trkpt lat="49.04564" lon="1.97556">
        <ele>97.9</ele>
        <time>2022-03-27T08:40:57Z</time>
      </trkpt>
      <trkpt lat="49.0456" lon="1.97559">
        <ele>98.2</ele>
        <time>2022-03-27T08:41:02Z</time>
      </trkpt>
      <trkpt lat="49.04557" lon="1.97566">
        <ele>98.8</ele>
        <time>2022-03-27T08:41:06Z</time>
      </trkpt>
      <trkpt lat="49.04551" lon="1.97566">
        <ele>99.1</ele>
        <time>2022-03-27T08:41:11Z</time>
      </trkpt>
      <trkpt lat="49.04546" lon="1.97566">
        <ele>99.5</ele>
        <time>2022-03-27T08:41:16Z</time>
      </trkpt>
      <trkpt lat="49.04541" lon="1.97566">
        <ele>99.5</ele>
        <time>2022-03-27T08:41:20Z</time>
      </trkpt>
      <trkpt lat="49.04535" lon="1.97563">
        <ele>99.7</ele>
        <time>2022-03-27T08:41:25Z</time>
      </trkpt>
      <trkpt lat="49.0453" lon="1.9756">
        <ele>99.8</ele>
        <time>2022-03-27T08:41:29Z</time>
      </trkpt>
      <trkpt lat="49.04526" lon="1.97556">
        <ele>100</ele>
        <time>2022-03-27T08:41:33Z</time>
      </trkpt>
      <trkpt lat="49.04523" lon="1.9755">
        <ele>100</ele>
        <time>2022-03-27T08:41:37Z</time>
      </trkpt>
      <trkpt lat="49.04519" lon="1.97544">
        <ele>100.1</ele>
        <time>2022-03-27T08:41:41Z</time>
      </trkpt>
      <trkpt lat="49.04515" lon="1.97541">
        <ele>99.8</ele>
        <time>2022-03-27T08:41:45Z</time>
      </trkpt>
      <trkpt lat="49.0451" lon="1.97536">
        <ele>99.5</ele>
        <time>2022-03-27T08:41:50Z</time>
      </trkpt>
      <trkpt lat="49.04506" lon="1.97531">
        <ele>99.2</ele>
        <time>2022-03-27T08:41:54Z</time>
      </trkpt>
      <trkpt lat="49.04501" lon="1.97527">
        <ele>98.7</ele>
        <time>2022-03-27T08:41:59Z</time>
      </trkpt>
      <trkpt lat="49.04496" lon="1.97523">
        <ele>98.3</ele>
        <time>2022-03-27T08:42:03Z</time>
      </trkpt>
      <trkpt lat="49.04492" lon="1.9752">
        <ele>98.3</ele>
        <time>2022-03-27T08:42:07Z</time>
      </trkpt>
      <trkpt lat="49.04487" lon="1.97516">
        <ele>98.3</ele>
        <time>2022-03-27T08:42:11Z</time>
      </trkpt>
      <trkpt lat="49.04482" lon="1.97513">
        <ele>98.1</ele>
        <time>2022-03-27T08:42:15Z</time>
      </trkpt>
      <trkpt lat="49.04477" lon="1.9751">
        <ele>98</ele>
        <time>2022-03-27T08:42:19Z</time>
      </trkpt>
      <trkpt lat="49.04472" lon="1.97507">
        <ele>98</ele>
        <time>2022-03-27T08:42:24Z</time>
      </trkpt>
      <trkpt lat="49.04467" lon="1.97505">
        <ele>97.5</ele>
        <time>2022-03-27T08:42:28Z</time>
      </trkpt>
      <trkpt lat="49.04463" lon="1.97502">
        <ele>97.4</ele>
        <time>2022-03-27T08:42:31Z</time>
      </trkpt>
      <trkpt lat="49.04458" lon="1.97499">
        <ele>97.4</ele>
        <time>2022-03-27T08:42:37Z</time>
      </trkpt>
      <trkpt lat="49.04454" lon="1.97497">
        <ele>97.7</ele>
        <time>2022-03-27T08:42:40Z</time>
      </trkpt>
      <trkpt lat="49.04449" lon="1.97496">
        <ele>98.1</ele>
        <time>2022-03-27T08:42:44Z</time>
      </trkpt>
      <trkpt lat="49.04443" lon="1.97496">
        <ele>98.6</ele>
        <time>2022-03-27T08:42:49Z</time>
      </trkpt>
      <trkpt lat="49.0444" lon="1.9749">
        <ele>97.7</ele>
        <time>2022-03-27T08:42:53Z</time>
      </trkpt>
      <trkpt lat="49.04435" lon="1.97492">
        <ele>95.6</ele>
        <time>2022-03-27T08:42:58Z</time>
      </trkpt>
      <trkpt lat="49.0443" lon="1.97491">
        <ele>94.5</ele>
        <time>2022-03-27T08:43:01Z</time>
      </trkpt>
      <trkpt lat="49.04424" lon="1.9749">
        <ele>93.8</ele>
        <time>2022-03-27T08:43:06Z</time>
      </trkpt>
      <trkpt lat="49.04419" lon="1.97488">
        <ele>93.7</ele>
        <time>2022-03-27T08:43:10Z</time>
      </trkpt>
      <trkpt lat="49.04414" lon="1.97485">
        <ele>93.6</ele>
        <time>2022-03-27T08:43:15Z</time>
      </trkpt>
      <trkpt lat="49.04408" lon="1.97483">
        <ele>93.3</ele>
        <time>2022-03-27T08:43:20Z</time>
      </trkpt>
      <trkpt lat="49.04403" lon="1.97484">
        <ele>92.8</ele>
        <time>2022-03-27T08:43:24Z</time>
      </trkpt>
      <trkpt lat="49.04398" lon="1.97486">
        <ele>92.2</ele>
        <time>2022-03-27T08:43:28Z</time>
      </trkpt>
      <trkpt lat="49.04393" lon="1.97487">
        <ele>91</ele>
        <time>2022-03-27T08:43:32Z</time>
      </trkpt>
      <trkpt lat="49.04388" lon="1.97485">
        <ele>90.4</ele>
        <time>2022-03-27T08:43:36Z</time>
      </trkpt>
      <trkpt lat="49.04382" lon="1.97484">
        <ele>90.2</ele>
        <time>2022-03-27T08:43:41Z</time>
      </trkpt>
      <trkpt lat="49.04378" lon="1.97486">
        <ele>89.2</ele>
        <time>2022-03-27T08:44:05Z</time>
      </trkpt>
      <trkpt lat="49.04373" lon="1.9749">
        <ele>88.6</ele>
        <time>2022-03-27T08:44:09Z</time>
      </trkpt>
      <trkpt lat="49.04372" lon="1.97498">
        <ele>88.4</ele>
        <time>2022-03-27T08:44:13Z</time>
      </trkpt>
      <trkpt lat="49.04368" lon="1.97501">
        <ele>87.8</ele>
        <time>2022-03-27T08:44:19Z</time>
      </trkpt>
      <trkpt lat="49.04364" lon="1.97505">
        <ele>87.1</ele>
        <time>2022-03-27T08:44:25Z</time>
      </trkpt>
      <trkpt lat="49.04363" lon="1.97513">
        <ele>86.7</ele>
        <time>2022-03-27T08:44:32Z</time>
      </trkpt>
      <trkpt lat="49.04359" lon="1.97515">
        <ele>86.5</ele>
        <time>2022-03-27T08:44:38Z</time>
      </trkpt>
      <trkpt lat="49.04356" lon="1.97509">
        <ele>85</ele>
        <time>2022-03-27T08:44:42Z</time>
      </trkpt>
      <trkpt lat="49.04352" lon="1.97502">
        <ele>83</ele>
        <time>2022-03-27T08:44:46Z</time>
      </trkpt>
      <trkpt lat="49.04349" lon="1.97497">
        <ele>81.5</ele>
        <time>2022-03-27T08:44:51Z</time>
      </trkpt>
      <trkpt lat="49.04352" lon="1.9749">
        <ele>81.5</ele>
        <time>2022-03-27T08:45:03Z</time>
      </trkpt>
      <trkpt lat="49.04349" lon="1.97485">
        <ele>82.2</ele>
        <time>2022-03-27T08:45:46Z</time>
      </trkpt>
      <trkpt lat="49.04344" lon="1.97484">
        <ele>84.4</ele>
        <time>2022-03-27T08:45:51Z</time>
      </trkpt>
      <trkpt lat="49.04339" lon="1.97482">
        <ele>83.5</ele>
        <time>2022-03-27T08:45:55Z</time>
      </trkpt>
      <trkpt lat="49.04336" lon="1.97475">
        <ele>81.6</ele>
        <time>2022-03-27T08:45:59Z</time>
      </trkpt>
      <trkpt lat="49.04331" lon="1.97471">
        <ele>80.9</ele>
        <time>2022-03-27T08:46:04Z</time>
      </trkpt>
      <trkpt lat="49.04325" lon="1.97472">
        <ele>80.7</ele>
        <time>2022-03-27T08:46:08Z</time>
      </trkpt>
      <trkpt lat="49.0432" lon="1.97474">
        <ele>80.4</ele>
        <time>2022-03-27T08:46:13Z</time>
      </trkpt>
      <trkpt lat="49.04316" lon="1.97473">
        <ele>78.7</ele>
        <time>2022-03-27T08:46:18Z</time>
      </trkpt>
      <trkpt lat="49.0432" lon="1.9748">
        <ele>77.9</ele>
        <time>2022-03-27T08:46:24Z</time>
      </trkpt>
      <trkpt lat="49.04315" lon="1.97479">
        <ele>76.3</ele>
        <time>2022-03-27T08:46:48Z</time>
      </trkpt>
      <trkpt lat="49.04309" lon="1.97475">
        <ele>76.3</ele>
        <time>2022-03-27T08:46:52Z</time>
      </trkpt>
      <trkpt lat="49.04304" lon="1.97472">
        <ele>76.1</ele>
        <time>2022-03-27T08:46:57Z</time>
      </trkpt>
      <trkpt lat="49.04299" lon="1.9747">
        <ele>75.5</ele>
        <time>2022-03-27T08:47:01Z</time>
      </trkpt>
      <trkpt lat="49.04294" lon="1.97469">
        <ele>74.4</ele>
        <time>2022-03-27T08:47:06Z</time>
      </trkpt>
      <trkpt lat="49.04288" lon="1.97467">
        <ele>74</ele>
        <time>2022-03-27T08:47:10Z</time>
      </trkpt>
      <trkpt lat="49.04283" lon="1.97467">
        <ele>74.1</ele>
        <time>2022-03-27T08:47:14Z</time>
      </trkpt>
      <trkpt lat="49.04278" lon="1.97465">
        <ele>74.4</ele>
        <time>2022-03-27T08:47:19Z</time>
      </trkpt>
      <trkpt lat="49.04275" lon="1.97461">
        <ele>74.4</ele>
        <time>2022-03-27T08:47:25Z</time>
      </trkpt>
      <trkpt lat="49.0427" lon="1.9746">
        <ele>73.7</ele>
        <time>2022-03-27T08:47:29Z</time>
      </trkpt>
      <trkpt lat="49.04265" lon="1.9746">
        <ele>72.8</ele>
        <time>2022-03-27T08:47:34Z</time>
      </trkpt>
      <trkpt lat="49.0426" lon="1.97458">
        <ele>72</ele>
        <time>2022-03-27T08:47:39Z</time>
      </trkpt>
      <trkpt lat="49.04255" lon="1.9746">
        <ele>70.5</ele>
        <time>2022-03-27T08:47:43Z</time>
      </trkpt>
      <trkpt lat="49.04249" lon="1.97458">
        <ele>69.3</ele>
        <time>2022-03-27T08:47:48Z</time>
      </trkpt>
      <trkpt lat="49.04244" lon="1.97458">
        <ele>68.6</ele>
        <time>2022-03-27T08:47:56Z</time>
      </trkpt>
      <trkpt lat="49.0424" lon="1.97455">
        <ele>68.9</ele>
        <time>2022-03-27T08:47:59Z</time>
      </trkpt>
      <trkpt lat="49.04235" lon="1.97453">
        <ele>69.2</ele>
        <time>2022-03-27T08:48:03Z</time>
      </trkpt>
      <trkpt lat="49.0423" lon="1.97452">
        <ele>69.2</ele>
        <time>2022-03-27T08:48:08Z</time>
      </trkpt>
      <trkpt lat="49.04225" lon="1.97451">
        <ele>69</ele>
        <time>2022-03-27T08:48:13Z</time>
      </trkpt>
      <trkpt lat="49.04222" lon="1.97446">
        <ele>70.4</ele>
        <time>2022-03-27T08:48:29Z</time>
      </trkpt>
      <trkpt lat="49.04217" lon="1.97447">
        <ele>70.1</ele>
        <time>2022-03-27T08:48:32Z</time>
      </trkpt>
      <trkpt lat="49.04212" lon="1.97445">
        <ele>69.3</ele>
        <time>2022-03-27T08:48:36Z</time>
      </trkpt>
      <trkpt lat="49.04208" lon="1.97441">
        <ele>68.7</ele>
        <time>2022-03-27T08:48:40Z</time>
      </trkpt>
      <trkpt lat="49.04203" lon="1.97437">
        <ele>68.1</ele>
        <time>2022-03-27T08:48:44Z</time>
      </trkpt>
      <trkpt lat="49.04199" lon="1.97432">
        <ele>67.2</ele>
        <time>2022-03-27T08:48:49Z</time>
      </trkpt>
      <trkpt lat="49.04197" lon="1.97425">
        <ele>66.6</ele>
        <time>2022-03-27T08:48:53Z</time>
      </trkpt>
      <trkpt lat="49.04197" lon="1.97418">
        <ele>65.8</ele>
        <time>2022-03-27T08:48:57Z</time>
      </trkpt>
      <trkpt lat="49.04194" lon="1.97411">
        <ele>65.3</ele>
        <time>2022-03-27T08:49:01Z</time>
      </trkpt>
      <trkpt lat="49.04191" lon="1.97404">
        <ele>65</ele>
        <time>2022-03-27T08:49:06Z</time>
      </trkpt>
      <trkpt lat="49.04188" lon="1.97397">
        <ele>64.3</ele>
        <time>2022-03-27T08:49:10Z</time>
      </trkpt>
      <trkpt lat="49.04186" lon="1.9739">
        <ele>63.6</ele>
        <time>2022-03-27T08:49:14Z</time>
      </trkpt>
      <trkpt lat="49.04185" lon="1.97383">
        <ele>63.4</ele>
        <time>2022-03-27T08:49:18Z</time>
      </trkpt>
      <trkpt lat="49.04184" lon="1.97374">
        <ele>63.7</ele>
        <time>2022-03-27T08:49:23Z</time>
      </trkpt>
      <trkpt lat="49.04181" lon="1.97369">
        <ele>63</ele>
        <time>2022-03-27T08:49:44Z</time>
      </trkpt>
      <trkpt lat="49.04179" lon="1.97362">
        <ele>62.7</ele>
        <time>2022-03-27T08:49:48Z</time>
      </trkpt>
      <trkpt lat="49.04176" lon="1.97356">
        <ele>63</ele>
        <time>2022-03-27T08:49:51Z</time>
      </trkpt>
      <trkpt lat="49.04172" lon="1.9735">
        <ele>64.4</ele>
        <time>2022-03-27T08:49:57Z</time>
      </trkpt>
      <trkpt lat="49.04171" lon="1.97342">
        <ele>65.7</ele>
        <time>2022-03-27T08:50:03Z</time>
      </trkpt>
      <trkpt lat="49.0417" lon="1.97335">
        <ele>65.6</ele>
        <time>2022-03-27T08:50:08Z</time>
      </trkpt>
      <trkpt lat="49.04168" lon="1.97327">
        <ele>63.8</ele>
        <time>2022-03-27T08:50:13Z</time>
      </trkpt>
      <trkpt lat="49.04166" lon="1.9732">
        <ele>62.3</ele>
        <time>2022-03-27T08:50:18Z</time>
      </trkpt>
      <trkpt lat="49.04163" lon="1.97314">
        <ele>61.3</ele>
        <time>2022-03-27T08:50:22Z</time>
      </trkpt>
      <trkpt lat="49.0416" lon="1.97308">
        <ele>60.2</ele>
        <time>2022-03-27T08:50:27Z</time>
      </trkpt>
      <trkpt lat="49.04156" lon="1.97303">
        <ele>59</ele>
        <time>2022-03-27T08:50:31Z</time>
      </trkpt>
      <trkpt lat="49.04152" lon="1.97299">
        <ele>58.5</ele>
        <time>2022-03-27T08:50:36Z</time>
      </trkpt>
      <trkpt lat="49.04147" lon="1.97297">
        <ele>58.9</ele>
        <time>2022-03-27T08:50:42Z</time>
      </trkpt>
      <trkpt lat="49.04143" lon="1.97295">
        <ele>59.2</ele>
        <time>2022-03-27T08:50:48Z</time>
      </trkpt>
      <trkpt lat="49.04146" lon="1.973">
        <ele>62</ele>
        <time>2022-03-27T08:51:37Z</time>
      </trkpt>
      <trkpt lat="49.04141" lon="1.97301">
        <ele>62.2</ele>
        <time>2022-03-27T08:56:24Z</time>
      </trkpt>
      <trkpt lat="49.04146" lon="1.97302">
        <ele>62.1</ele>
        <time>2022-03-27T08:59:07Z</time>
      </trkpt>
      <trkpt lat="49.04151" lon="1.97298">
        <ele>61.8</ele>
        <time>2022-03-27T08:59:14Z</time>
      </trkpt>
      <trkpt lat="49.04154" lon="1.97292">
        <ele>62</ele>
        <time>2022-03-27T08:59:18Z</time>
      </trkpt>
      <trkpt lat="49.04157" lon="1.97286">
        <ele>61.8</ele>
        <time>2022-03-27T08:59:23Z</time>
      </trkpt>
      <trkpt lat="49.04157" lon="1.97279">
        <ele>61.4</ele>
        <time>2022-03-27T08:59:27Z</time>
      </trkpt>
      <trkpt lat="49.04157" lon="1.97271">
        <ele>61.3</ele>
        <time>2022-03-27T08:59:32Z</time>
      </trkpt>
      <trkpt lat="49.04158" lon="1.97263">
        <ele>61.2</ele>
        <time>2022-03-27T08:59:37Z</time>
      </trkpt>
      <trkpt lat="49.04161" lon="1.97256">
        <ele>60.8</ele>
        <time>2022-03-27T08:59:43Z</time>
      </trkpt>
      <trkpt lat="49.04163" lon="1.97249">
        <ele>60.4</ele>
        <time>2022-03-27T08:59:49Z</time>
      </trkpt>
      <trkpt lat="49.04164" lon="1.97241">
        <ele>60.8</ele>
        <time>2022-03-27T08:59:54Z</time>
      </trkpt>
      <trkpt lat="49.04165" lon="1.97234">
        <ele>61.9</ele>
        <time>2022-03-27T08:59:58Z</time>
      </trkpt>
      <trkpt lat="49.04167" lon="1.97228">
        <ele>63.1</ele>
        <time>2022-03-27T09:00:02Z</time>
      </trkpt>
      <trkpt lat="49.04169" lon="1.9722">
        <ele>63.8</ele>
        <time>2022-03-27T09:00:07Z</time>
      </trkpt>
      <trkpt lat="49.0417" lon="1.97211">
        <ele>64.6</ele>
        <time>2022-03-27T09:00:12Z</time>
      </trkpt>
      <trkpt lat="49.04169" lon="1.97204">
        <ele>65.4</ele>
        <time>2022-03-27T09:00:15Z</time>
      </trkpt>
      <trkpt lat="49.04168" lon="1.97198">
        <ele>66.4</ele>
        <time>2022-03-27T09:00:18Z</time>
      </trkpt>
      <trkpt lat="49.04164" lon="1.97193">
        <ele>67</ele>
        <time>2022-03-27T09:00:22Z</time>
      </trkpt>
      <trkpt lat="49.0416" lon="1.97188">
        <ele>67.1</ele>
        <time>2022-03-27T09:00:26Z</time>
      </trkpt>
      <trkpt lat="49.04157" lon="1.97183">
        <ele>67.2</ele>
        <time>2022-03-27T09:00:30Z</time>
      </trkpt>
      <trkpt lat="49.04155" lon="1.97176">
        <ele>67.6</ele>
        <time>2022-03-27T09:00:35Z</time>
      </trkpt>
      <trkpt lat="49.04152" lon="1.97169">
        <ele>67.8</ele>
        <time>2022-03-27T09:00:39Z</time>
      </trkpt>
      <trkpt lat="49.04149" lon="1.97162">
        <ele>67.9</ele>
        <time>2022-03-27T09:00:43Z</time>
      </trkpt>
      <trkpt lat="49.04146" lon="1.97156">
        <ele>67.9</ele>
        <time>2022-03-27T09:00:48Z</time>
      </trkpt>
      <trkpt lat="49.04146" lon="1.97147">
        <ele>67.8</ele>
        <time>2022-03-27T09:00:52Z</time>
      </trkpt>
      <trkpt lat="49.04148" lon="1.97141">
        <ele>67.7</ele>
        <time>2022-03-27T09:00:56Z</time>
      </trkpt>
      <trkpt lat="49.04151" lon="1.97134">
        <ele>67.8</ele>
        <time>2022-03-27T09:01:00Z</time>
      </trkpt>
      <trkpt lat="49.04154" lon="1.97126">
        <ele>68.5</ele>
        <time>2022-03-27T09:01:04Z</time>
      </trkpt>
      <trkpt lat="49.04158" lon="1.9712">
        <ele>68.6</ele>
        <time>2022-03-27T09:01:08Z</time>
      </trkpt>
      <trkpt lat="49.04161" lon="1.97114">
        <ele>67.7</ele>
        <time>2022-03-27T09:01:12Z</time>
      </trkpt>
      <trkpt lat="49.04164" lon="1.97108">
        <ele>66.8</ele>
        <time>2022-03-27T09:01:16Z</time>
      </trkpt>
      <trkpt lat="49.04168" lon="1.97102">
        <ele>66.9</ele>
        <time>2022-03-27T09:01:21Z</time>
      </trkpt>
      <trkpt lat="49.04172" lon="1.97097">
        <ele>67.3</ele>
        <time>2022-03-27T09:01:24Z</time>
      </trkpt>
      <trkpt lat="49.04176" lon="1.97093">
        <ele>67.4</ele>
        <time>2022-03-27T09:01:28Z</time>
      </trkpt>
      <trkpt lat="49.04181" lon="1.9709">
        <ele>67.2</ele>
        <time>2022-03-27T09:01:32Z</time>
      </trkpt>
      <trkpt lat="49.04186" lon="1.97088">
        <ele>66.8</ele>
        <time>2022-03-27T09:01:36Z</time>
      </trkpt>
      <trkpt lat="49.04191" lon="1.97085">
        <ele>67</ele>
        <time>2022-03-27T09:01:44Z</time>
      </trkpt>
      <trkpt lat="49.04196" lon="1.97084">
        <ele>66.7</ele>
        <time>2022-03-27T09:01:48Z</time>
      </trkpt>
      <trkpt lat="49.04202" lon="1.97081">
        <ele>65.6</ele>
        <time>2022-03-27T09:01:53Z</time>
      </trkpt>
      <trkpt lat="49.04206" lon="1.97075">
        <ele>64.7</ele>
        <time>2022-03-27T09:01:57Z</time>
      </trkpt>
      <trkpt lat="49.0421" lon="1.9707">
        <ele>64.5</ele>
        <time>2022-03-27T09:02:01Z</time>
      </trkpt>
      <trkpt lat="49.04213" lon="1.97065">
        <ele>64.2</ele>
        <time>2022-03-27T09:02:05Z</time>
      </trkpt>
      <trkpt lat="49.04215" lon="1.97058">
        <ele>63.4</ele>
        <time>2022-03-27T09:02:09Z</time>
      </trkpt>
      <trkpt lat="49.04218" lon="1.97051">
        <ele>62.9</ele>
        <time>2022-03-27T09:02:13Z</time>
      </trkpt>
      <trkpt lat="49.0422" lon="1.97045">
        <ele>62.8</ele>
        <time>2022-03-27T09:02:17Z</time>
      </trkpt>
      <trkpt lat="49.04223" lon="1.97038">
        <ele>62.6</ele>
        <time>2022-03-27T09:02:21Z</time>
      </trkpt>
      <trkpt lat="49.04225" lon="1.97031">
        <ele>62</ele>
        <time>2022-03-27T09:02:25Z</time>
      </trkpt>
      <trkpt lat="49.04226" lon="1.97024">
        <ele>61.7</ele>
        <time>2022-03-27T09:02:29Z</time>
      </trkpt>
      <trkpt lat="49.04227" lon="1.97017">
        <ele>61.9</ele>
        <time>2022-03-27T09:02:33Z</time>
      </trkpt>
      <trkpt lat="49.04229" lon="1.9701">
        <ele>61.9</ele>
        <time>2022-03-27T09:02:37Z</time>
      </trkpt>
      <trkpt lat="49.04231" lon="1.97003">
        <ele>61.8</ele>
        <time>2022-03-27T09:02:41Z</time>
      </trkpt>
      <trkpt lat="49.04233" lon="1.96996">
        <ele>61.6</ele>
        <time>2022-03-27T09:02:45Z</time>
      </trkpt>
      <trkpt lat="49.04234" lon="1.96988">
        <ele>61.6</ele>
        <time>2022-03-27T09:02:49Z</time>
      </trkpt>
      <trkpt lat="49.04233" lon="1.96981">
        <ele>62.3</ele>
        <time>2022-03-27T09:02:53Z</time>
      </trkpt>
      <trkpt lat="49.0423" lon="1.96973">
        <ele>64.2</ele>
        <time>2022-03-27T09:02:58Z</time>
      </trkpt>
      <trkpt lat="49.04225" lon="1.96969">
        <ele>66</ele>
        <time>2022-03-27T09:03:02Z</time>
      </trkpt>
      <trkpt lat="49.04221" lon="1.96965">
        <ele>66.7</ele>
        <time>2022-03-27T09:03:07Z</time>
      </trkpt>
      <trkpt lat="49.04216" lon="1.96962">
        <ele>66.7</ele>
        <time>2022-03-27T09:03:11Z</time>
      </trkpt>
      <trkpt lat="49.04212" lon="1.96958">
        <ele>66.8</ele>
        <time>2022-03-27T09:03:14Z</time>
      </trkpt>
      <trkpt lat="49.04206" lon="1.96954">
        <ele>67.3</ele>
        <time>2022-03-27T09:03:19Z</time>
      </trkpt>
      <trkpt lat="49.04202" lon="1.96951">
        <ele>67.8</ele>
        <time>2022-03-27T09:03:22Z</time>
      </trkpt>
      <trkpt lat="49.04197" lon="1.96948">
        <ele>68.3</ele>
        <time>2022-03-27T09:03:26Z</time>
      </trkpt>
      <trkpt lat="49.04193" lon="1.96945">
        <ele>68.6</ele>
        <time>2022-03-27T09:03:30Z</time>
      </trkpt>
      <trkpt lat="49.04187" lon="1.96941">
        <ele>68.8</ele>
        <time>2022-03-27T09:03:34Z</time>
      </trkpt>
      <trkpt lat="49.04183" lon="1.96938">
        <ele>68.9</ele>
        <time>2022-03-27T09:03:38Z</time>
      </trkpt>
      <trkpt lat="49.04178" lon="1.96933">
        <ele>69.1</ele>
        <time>2022-03-27T09:03:43Z</time>
      </trkpt>
      <trkpt lat="49.04173" lon="1.96928">
        <ele>69.2</ele>
        <time>2022-03-27T09:03:48Z</time>
      </trkpt>
      <trkpt lat="49.0417" lon="1.96922">
        <ele>69.2</ele>
        <time>2022-03-27T09:03:51Z</time>
      </trkpt>
      <trkpt lat="49.04166" lon="1.96918">
        <ele>69.3</ele>
        <time>2022-03-27T09:03:55Z</time>
      </trkpt>
      <trkpt lat="49.04163" lon="1.96913">
        <ele>69.2</ele>
        <time>2022-03-27T09:03:59Z</time>
      </trkpt>
      <trkpt lat="49.04159" lon="1.96907">
        <ele>69</ele>
        <time>2022-03-27T09:04:04Z</time>
      </trkpt>
      <trkpt lat="49.04154" lon="1.96902">
        <ele>68.5</ele>
        <time>2022-03-27T09:04:09Z</time>
      </trkpt>
      <trkpt lat="49.0415" lon="1.96897">
        <ele>68.6</ele>
        <time>2022-03-27T09:04:13Z</time>
      </trkpt>
      <trkpt lat="49.04147" lon="1.96893">
        <ele>69</ele>
        <time>2022-03-27T09:04:17Z</time>
      </trkpt>
      <trkpt lat="49.04144" lon="1.96887">
        <ele>69.8</ele>
        <time>2022-03-27T09:04:22Z</time>
      </trkpt>
      <trkpt lat="49.0414" lon="1.96882">
        <ele>70.4</ele>
        <time>2022-03-27T09:04:26Z</time>
      </trkpt>
      <trkpt lat="49.04136" lon="1.96879">
        <ele>70.3</ele>
        <time>2022-03-27T09:04:30Z</time>
      </trkpt>
      <trkpt lat="49.0413" lon="1.96873">
        <ele>69.9</ele>
        <time>2022-03-27T09:04:35Z</time>
      </trkpt>
      <trkpt lat="49.04126" lon="1.96867">
        <ele>68.6</ele>
        <time>2022-03-27T09:04:40Z</time>
      </trkpt>
      <trkpt lat="49.04124" lon="1.9686">
        <ele>68.3</ele>
        <time>2022-03-27T09:04:45Z</time>
      </trkpt>
      <trkpt lat="49.04121" lon="1.96852">
        <ele>68.2</ele>
        <time>2022-03-27T09:04:49Z</time>
      </trkpt>
      <trkpt lat="49.04119" lon="1.96846">
        <ele>68.5</ele>
        <time>2022-03-27T09:04:53Z</time>
      </trkpt>
      <trkpt lat="49.04116" lon="1.9684">
        <ele>68.7</ele>
        <time>2022-03-27T09:04:57Z</time>
      </trkpt>
      <trkpt lat="49.04112" lon="1.96834">
        <ele>68.6</ele>
        <time>2022-03-27T09:05:03Z</time>
      </trkpt>
      <trkpt lat="49.04111" lon="1.96826">
        <ele>68.6</ele>
        <time>2022-03-27T09:05:07Z</time>
      </trkpt>
      <trkpt lat="49.0411" lon="1.96818">
        <ele>68.9</ele>
        <time>2022-03-27T09:05:11Z</time>
      </trkpt>
      <trkpt lat="49.04108" lon="1.96809">
        <ele>69.2</ele>
        <time>2022-03-27T09:05:15Z</time>
      </trkpt>
      <trkpt lat="49.04107" lon="1.96802">
        <ele>69.4</ele>
        <time>2022-03-27T09:05:18Z</time>
      </trkpt>
      <trkpt lat="49.04106" lon="1.96794">
        <ele>69.8</ele>
        <time>2022-03-27T09:05:22Z</time>
      </trkpt>
      <trkpt lat="49.04105" lon="1.96786">
        <ele>70.2</ele>
        <time>2022-03-27T09:05:26Z</time>
      </trkpt>
      <trkpt lat="49.04103" lon="1.96779">
        <ele>70.8</ele>
        <time>2022-03-27T09:05:30Z</time>
      </trkpt>
      <trkpt lat="49.04101" lon="1.96771">
        <ele>71.5</ele>
        <time>2022-03-27T09:05:34Z</time>
      </trkpt>
      <trkpt lat="49.04098" lon="1.96765">
        <ele>72</ele>
        <time>2022-03-27T09:05:37Z</time>
      </trkpt>
      <trkpt lat="49.04096" lon="1.96758">
        <ele>72.6</ele>
        <time>2022-03-27T09:05:41Z</time>
      </trkpt>
      <trkpt lat="49.04092" lon="1.96752">
        <ele>73</ele>
        <time>2022-03-27T09:05:45Z</time>
      </trkpt>
      <trkpt lat="49.0409" lon="1.96746">
        <ele>73.3</ele>
        <time>2022-03-27T09:05:49Z</time>
      </trkpt>
      <trkpt lat="49.04089" lon="1.96738">
        <ele>73.3</ele>
        <time>2022-03-27T09:05:53Z</time>
      </trkpt>
      <trkpt lat="49.04085" lon="1.96732">
        <ele>73.7</ele>
        <time>2022-03-27T09:05:57Z</time>
      </trkpt>
      <trkpt lat="49.04082" lon="1.96726">
        <ele>74.2</ele>
        <time>2022-03-27T09:06:02Z</time>
      </trkpt>
      <trkpt lat="49.04079" lon="1.9672">
        <ele>74.4</ele>
        <time>2022-03-27T09:06:05Z</time>
      </trkpt>
      <trkpt lat="49.04075" lon="1.96714">
        <ele>74.7</ele>
        <time>2022-03-27T09:06:09Z</time>
      </trkpt>
      <trkpt lat="49.04071" lon="1.96708">
        <ele>74.7</ele>
        <time>2022-03-27T09:06:14Z</time>
      </trkpt>
      <trkpt lat="49.04067" lon="1.96702">
        <ele>74.6</ele>
        <time>2022-03-27T09:06:18Z</time>
      </trkpt>
      <trkpt lat="49.04064" lon="1.96696">
        <ele>74.2</ele>
        <time>2022-03-27T09:06:22Z</time>
      </trkpt>
      <trkpt lat="49.04063" lon="1.96689">
        <ele>74.3</ele>
        <time>2022-03-27T09:06:26Z</time>
      </trkpt>
      <trkpt lat="49.04061" lon="1.96682">
        <ele>74.3</ele>
        <time>2022-03-27T09:06:29Z</time>
      </trkpt>
      <trkpt lat="49.04058" lon="1.96675">
        <ele>74.6</ele>
        <time>2022-03-27T09:06:33Z</time>
      </trkpt>
      <trkpt lat="49.04055" lon="1.96669">
        <ele>74.5</ele>
        <time>2022-03-27T09:06:37Z</time>
      </trkpt>
      <trkpt lat="49.04052" lon="1.96664">
        <ele>74.4</ele>
        <time>2022-03-27T09:06:41Z</time>
      </trkpt>
      <trkpt lat="49.04049" lon="1.96658">
        <ele>74.1</ele>
        <time>2022-03-27T09:06:45Z</time>
      </trkpt>
      <trkpt lat="49.04046" lon="1.96652">
        <ele>74.2</ele>
        <time>2022-03-27T09:06:49Z</time>
      </trkpt>
      <trkpt lat="49.04042" lon="1.96646">
        <ele>74.1</ele>
        <time>2022-03-27T09:06:53Z</time>
      </trkpt>
      <trkpt lat="49.04039" lon="1.96638">
        <ele>74.6</ele>
        <time>2022-03-27T09:06:58Z</time>
      </trkpt>
      <trkpt lat="49.04036" lon="1.96631">
        <ele>75.6</ele>
        <time>2022-03-27T09:07:02Z</time>
      </trkpt>
      <trkpt lat="49.04034" lon="1.96625">
        <ele>76.8</ele>
        <time>2022-03-27T09:07:06Z</time>
      </trkpt>
      <trkpt lat="49.0403" lon="1.96617">
        <ele>76.6</ele>
        <time>2022-03-27T09:07:11Z</time>
      </trkpt>
      <trkpt lat="49.04028" lon="1.96611">
        <ele>75.6</ele>
        <time>2022-03-27T09:07:15Z</time>
      </trkpt>
      <trkpt lat="49.04025" lon="1.96604">
        <ele>75.1</ele>
        <time>2022-03-27T09:07:20Z</time>
      </trkpt>
      <trkpt lat="49.04021" lon="1.96598">
        <ele>75.4</ele>
        <time>2022-03-27T09:07:24Z</time>
      </trkpt>
      <trkpt lat="49.04018" lon="1.96592">
        <ele>76</ele>
        <time>2022-03-27T09:07:28Z</time>
      </trkpt>
      <trkpt lat="49.04016" lon="1.96586">
        <ele>76.5</ele>
        <time>2022-03-27T09:07:32Z</time>
      </trkpt>
      <trkpt lat="49.0401" lon="1.96582">
        <ele>79.1</ele>
        <time>2022-03-27T09:07:40Z</time>
      </trkpt>
      <trkpt lat="49.04007" lon="1.96575">
        <ele>80.3</ele>
        <time>2022-03-27T09:07:43Z</time>
      </trkpt>
      <trkpt lat="49.04006" lon="1.96568">
        <ele>81.5</ele>
        <time>2022-03-27T09:07:45Z</time>
      </trkpt>
      <trkpt lat="49.04006" lon="1.9656">
        <ele>82.3</ele>
        <time>2022-03-27T09:07:48Z</time>
      </trkpt>
      <trkpt lat="49.04004" lon="1.96552">
        <ele>83.2</ele>
        <time>2022-03-27T09:07:52Z</time>
      </trkpt>
      <trkpt lat="49.04001" lon="1.96547">
        <ele>83.8</ele>
        <time>2022-03-27T09:07:55Z</time>
      </trkpt>
      <trkpt lat="49.03998" lon="1.9654">
        <ele>83.8</ele>
        <time>2022-03-27T09:07:59Z</time>
      </trkpt>
      <trkpt lat="49.03995" lon="1.96533">
        <ele>83.9</ele>
        <time>2022-03-27T09:08:03Z</time>
      </trkpt>
      <trkpt lat="49.03993" lon="1.96524">
        <ele>83.8</ele>
        <time>2022-03-27T09:08:08Z</time>
      </trkpt>
      <trkpt lat="49.0399" lon="1.96517">
        <ele>83.6</ele>
        <time>2022-03-27T09:08:13Z</time>
      </trkpt>
      <trkpt lat="49.03989" lon="1.96511">
        <ele>83.3</ele>
        <time>2022-03-27T09:08:16Z</time>
      </trkpt>
      <trkpt lat="49.03988" lon="1.96502">
        <ele>83.2</ele>
        <time>2022-03-27T09:08:21Z</time>
      </trkpt>
      <trkpt lat="49.03986" lon="1.96493">
        <ele>83.5</ele>
        <time>2022-03-27T09:08:25Z</time>
      </trkpt>
      <trkpt lat="49.03983" lon="1.96486">
        <ele>83.5</ele>
        <time>2022-03-27T09:08:30Z</time>
      </trkpt>
      <trkpt lat="49.03982" lon="1.96478">
        <ele>83.3</ele>
        <time>2022-03-27T09:08:35Z</time>
      </trkpt>
      <trkpt lat="49.03982" lon="1.9647">
        <ele>83.2</ele>
        <time>2022-03-27T09:08:39Z</time>
      </trkpt>
      <trkpt lat="49.03981" lon="1.96462">
        <ele>83</ele>
        <time>2022-03-27T09:08:43Z</time>
      </trkpt>
      <trkpt lat="49.03979" lon="1.96455">
        <ele>83.1</ele>
        <time>2022-03-27T09:08:47Z</time>
      </trkpt>
      <trkpt lat="49.03977" lon="1.96447">
        <ele>84.1</ele>
        <time>2022-03-27T09:08:51Z</time>
      </trkpt>
      <trkpt lat="49.03974" lon="1.9644">
        <ele>84.4</ele>
        <time>2022-03-27T09:08:55Z</time>
      </trkpt>
      <trkpt lat="49.03973" lon="1.96433">
        <ele>84.3</ele>
        <time>2022-03-27T09:08:58Z</time>
      </trkpt>
      <trkpt lat="49.03971" lon="1.96427">
        <ele>83.9</ele>
        <time>2022-03-27T09:09:01Z</time>
      </trkpt>
      <trkpt lat="49.03969" lon="1.9642">
        <ele>83.7</ele>
        <time>2022-03-27T09:09:05Z</time>
      </trkpt>
      <trkpt lat="49.03967" lon="1.96412">
        <ele>83.9</ele>
        <time>2022-03-27T09:09:09Z</time>
      </trkpt>
      <trkpt lat="49.03965" lon="1.96405">
        <ele>84.3</ele>
        <time>2022-03-27T09:09:13Z</time>
      </trkpt>
      <trkpt lat="49.03964" lon="1.96396">
        <ele>85.5</ele>
        <time>2022-03-27T09:09:17Z</time>
      </trkpt>
      <trkpt lat="49.03962" lon="1.96388">
        <ele>87.6</ele>
        <time>2022-03-27T09:09:21Z</time>
      </trkpt>
      <trkpt lat="49.0396" lon="1.96382">
        <ele>88.6</ele>
        <time>2022-03-27T09:09:24Z</time>
      </trkpt>
      <trkpt lat="49.03958" lon="1.96376">
        <ele>89</ele>
        <time>2022-03-27T09:09:28Z</time>
      </trkpt>
      <trkpt lat="49.03956" lon="1.96368">
        <ele>89.2</ele>
        <time>2022-03-27T09:09:32Z</time>
      </trkpt>
      <trkpt lat="49.03956" lon="1.96359">
        <ele>88.6</ele>
        <time>2022-03-27T09:09:37Z</time>
      </trkpt>
      <trkpt lat="49.03955" lon="1.9635">
        <ele>87.3</ele>
        <time>2022-03-27T09:09:41Z</time>
      </trkpt>
      <trkpt lat="49.03954" lon="1.96344">
        <ele>86.6</ele>
        <time>2022-03-27T09:09:45Z</time>
      </trkpt>
      <trkpt lat="49.03953" lon="1.96335">
        <ele>86.4</ele>
        <time>2022-03-27T09:09:49Z</time>
      </trkpt>
      <trkpt lat="49.03951" lon="1.96328">
        <ele>86.7</ele>
        <time>2022-03-27T09:09:52Z</time>
      </trkpt>
      <trkpt lat="49.03948" lon="1.96321">
        <ele>87.7</ele>
        <time>2022-03-27T09:09:56Z</time>
      </trkpt>
      <trkpt lat="49.03945" lon="1.96314">
        <ele>88.6</ele>
        <time>2022-03-27T09:09:59Z</time>
      </trkpt>
      <trkpt lat="49.03943" lon="1.96307">
        <ele>89</ele>
        <time>2022-03-27T09:10:03Z</time>
      </trkpt>
      <trkpt lat="49.03941" lon="1.963">
        <ele>89</ele>
        <time>2022-03-27T09:10:08Z</time>
      </trkpt>
      <trkpt lat="49.03939" lon="1.96293">
        <ele>88.2</ele>
        <time>2022-03-27T09:10:12Z</time>
      </trkpt>
      <trkpt lat="49.03936" lon="1.96285">
        <ele>83</ele>
        <time>2022-03-27T09:10:31Z</time>
      </trkpt>
      <trkpt lat="49.03935" lon="1.96278">
        <ele>81.8</ele>
        <time>2022-03-27T09:10:35Z</time>
      </trkpt>
      <trkpt lat="49.03933" lon="1.96271">
        <ele>80.5</ele>
        <time>2022-03-27T09:10:40Z</time>
      </trkpt>
      <trkpt lat="49.03928" lon="1.96271">
        <ele>80.2</ele>
        <time>2022-03-27T09:10:44Z</time>
      </trkpt>
      <trkpt lat="49.03925" lon="1.96265">
        <ele>79.3</ele>
        <time>2022-03-27T09:10:49Z</time>
      </trkpt>
      <trkpt lat="49.03922" lon="1.96258">
        <ele>78.4</ele>
        <time>2022-03-27T09:10:53Z</time>
      </trkpt>
      <trkpt lat="49.03921" lon="1.9625">
        <ele>77.5</ele>
        <time>2022-03-27T09:10:57Z</time>
      </trkpt>
      <trkpt lat="49.03919" lon="1.96243">
        <ele>76.4</ele>
        <time>2022-03-27T09:11:01Z</time>
      </trkpt>
      <trkpt lat="49.03917" lon="1.96237">
        <ele>75.5</ele>
        <time>2022-03-27T09:11:05Z</time>
      </trkpt>
      <trkpt lat="49.03917" lon="1.9623">
        <ele>74.8</ele>
        <time>2022-03-27T09:11:09Z</time>
      </trkpt>
      <trkpt lat="49.03916" lon="1.96221">
        <ele>73.9</ele>
        <time>2022-03-27T09:11:13Z</time>
      </trkpt>
      <trkpt lat="49.03915" lon="1.96214">
        <ele>73.2</ele>
        <time>2022-03-27T09:11:16Z</time>
      </trkpt>
      <trkpt lat="49.03914" lon="1.96205">
        <ele>72.1</ele>
        <time>2022-03-27T09:11:20Z</time>
      </trkpt>
      <trkpt lat="49.03913" lon="1.96198">
        <ele>73.2</ele>
        <time>2022-03-27T09:11:23Z</time>
      </trkpt>
      <trkpt lat="49.03913" lon="1.96189">
        <ele>74.7</ele>
        <time>2022-03-27T09:11:26Z</time>
      </trkpt>
      <trkpt lat="49.03912" lon="1.9618">
        <ele>76.8</ele>
        <time>2022-03-27T09:11:30Z</time>
      </trkpt>
      <trkpt lat="49.03911" lon="1.96174">
        <ele>78.2</ele>
        <time>2022-03-27T09:11:33Z</time>
      </trkpt>
      <trkpt lat="49.03909" lon="1.96166">
        <ele>79.2</ele>
        <time>2022-03-27T09:11:37Z</time>
      </trkpt>
      <trkpt lat="49.03909" lon="1.96156">
        <ele>80.1</ele>
        <time>2022-03-27T09:11:41Z</time>
      </trkpt>
      <trkpt lat="49.03909" lon="1.96149">
        <ele>82.1</ele>
        <time>2022-03-27T09:11:44Z</time>
      </trkpt>
      <trkpt lat="49.03909" lon="1.9614">
        <ele>84.6</ele>
        <time>2022-03-27T09:11:47Z</time>
      </trkpt>
      <trkpt lat="49.03909" lon="1.96133">
        <ele>86.3</ele>
        <time>2022-03-27T09:11:50Z</time>
      </trkpt>
      <trkpt lat="49.03909" lon="1.96124">
        <ele>86.9</ele>
        <time>2022-03-27T09:11:54Z</time>
      </trkpt>
      <trkpt lat="49.0391" lon="1.96116">
        <ele>87.2</ele>
        <time>2022-03-27T09:11:58Z</time>
      </trkpt>
      <trkpt lat="49.03911" lon="1.96108">
        <ele>87.4</ele>
        <time>2022-03-27T09:12:01Z</time>
      </trkpt>
      <trkpt lat="49.03912" lon="1.961">
        <ele>88.5</ele>
        <time>2022-03-27T09:12:06Z</time>
      </trkpt>
      <trkpt lat="49.03914" lon="1.96092">
        <ele>88.9</ele>
        <time>2022-03-27T09:12:09Z</time>
      </trkpt>
      <trkpt lat="49.03915" lon="1.96084">
        <ele>89.4</ele>
        <time>2022-03-27T09:12:13Z</time>
      </trkpt>
      <trkpt lat="49.03917" lon="1.96076">
        <ele>90</ele>
        <time>2022-03-27T09:12:17Z</time>
      </trkpt>
      <trkpt lat="49.03918" lon="1.96069">
        <ele>90.2</ele>
        <time>2022-03-27T09:12:21Z</time>
      </trkpt>
      <trkpt lat="49.03919" lon="1.96062">
        <ele>89.3</ele>
        <time>2022-03-27T09:12:25Z</time>
      </trkpt>
      <trkpt lat="49.0392" lon="1.96054">
        <ele>88.4</ele>
        <time>2022-03-27T09:12:29Z</time>
      </trkpt>
      <trkpt lat="49.03922" lon="1.96046">
        <ele>87.9</ele>
        <time>2022-03-27T09:12:33Z</time>
      </trkpt>
      <trkpt lat="49.03923" lon="1.96039">
        <ele>87.8</ele>
        <time>2022-03-27T09:12:36Z</time>
      </trkpt>
      <trkpt lat="49.03924" lon="1.96031">
        <ele>88</ele>
        <time>2022-03-27T09:12:40Z</time>
      </trkpt>
      <trkpt lat="49.03926" lon="1.96023">
        <ele>88.5</ele>
        <time>2022-03-27T09:12:44Z</time>
      </trkpt>
      <trkpt lat="49.03928" lon="1.96016">
        <ele>88.9</ele>
        <time>2022-03-27T09:12:48Z</time>
      </trkpt>
      <trkpt lat="49.03929" lon="1.96009">
        <ele>88.5</ele>
        <time>2022-03-27T09:12:52Z</time>
      </trkpt>
      <trkpt lat="49.03931" lon="1.96001">
        <ele>88</ele>
        <time>2022-03-27T09:12:56Z</time>
      </trkpt>
      <trkpt lat="49.03933" lon="1.95994">
        <ele>87.4</ele>
        <time>2022-03-27T09:13:00Z</time>
      </trkpt>
      <trkpt lat="49.03934" lon="1.95987">
        <ele>87.3</ele>
        <time>2022-03-27T09:13:04Z</time>
      </trkpt>
      <trkpt lat="49.03935" lon="1.9598">
        <ele>87.3</ele>
        <time>2022-03-27T09:13:08Z</time>
      </trkpt>
      <trkpt lat="49.03937" lon="1.95973">
        <ele>86.9</ele>
        <time>2022-03-27T09:13:12Z</time>
      </trkpt>
      <trkpt lat="49.03939" lon="1.95966">
        <ele>87</ele>
        <time>2022-03-27T09:13:16Z</time>
      </trkpt>
      <trkpt lat="49.03941" lon="1.95959">
        <ele>87.7</ele>
        <time>2022-03-27T09:13:20Z</time>
      </trkpt>
      <trkpt lat="49.03942" lon="1.95951">
        <ele>88.3</ele>
        <time>2022-03-27T09:13:25Z</time>
      </trkpt>
      <trkpt lat="49.03942" lon="1.95943">
        <ele>87.8</ele>
        <time>2022-03-27T09:13:29Z</time>
      </trkpt>
      <trkpt lat="49.03944" lon="1.95937">
        <ele>88</ele>
        <time>2022-03-27T09:13:32Z</time>
      </trkpt>
      <trkpt lat="49.03947" lon="1.95929">
        <ele>89.3</ele>
        <time>2022-03-27T09:13:36Z</time>
      </trkpt>
      <trkpt lat="49.03949" lon="1.95922">
        <ele>90.4</ele>
        <time>2022-03-27T09:13:40Z</time>
      </trkpt>
      <trkpt lat="49.03952" lon="1.95915">
        <ele>90.5</ele>
        <time>2022-03-27T09:13:44Z</time>
      </trkpt>
      <trkpt lat="49.03953" lon="1.95907">
        <ele>90.4</ele>
        <time>2022-03-27T09:13:48Z</time>
      </trkpt>
      <trkpt lat="49.03955" lon="1.95899">
        <ele>89.6</ele>
        <time>2022-03-27T09:13:52Z</time>
      </trkpt>
      <trkpt lat="49.03957" lon="1.95892">
        <ele>89.5</ele>
        <time>2022-03-27T09:13:56Z</time>
      </trkpt>
      <trkpt lat="49.03958" lon="1.95885">
        <ele>89.5</ele>
        <time>2022-03-27T09:14:00Z</time>
      </trkpt>
      <trkpt lat="49.0396" lon="1.95877">
        <ele>89.6</ele>
        <time>2022-03-27T09:14:04Z</time>
      </trkpt>
      <trkpt lat="49.03963" lon="1.95869">
        <ele>88.3</ele>
        <time>2022-03-27T09:14:08Z</time>
      </trkpt>
      <trkpt lat="49.03965" lon="1.95862">
        <ele>88.1</ele>
        <time>2022-03-27T09:14:13Z</time>
      </trkpt>
      <trkpt lat="49.03968" lon="1.95855">
        <ele>88.4</ele>
        <time>2022-03-27T09:14:16Z</time>
      </trkpt>
      <trkpt lat="49.0397" lon="1.95849">
        <ele>88.5</ele>
        <time>2022-03-27T09:14:20Z</time>
      </trkpt>
      <trkpt lat="49.03972" lon="1.95841">
        <ele>88.8</ele>
        <time>2022-03-27T09:14:24Z</time>
      </trkpt>
      <trkpt lat="49.03974" lon="1.95834">
        <ele>89.1</ele>
        <time>2022-03-27T09:14:28Z</time>
      </trkpt>
      <trkpt lat="49.03975" lon="1.95826">
        <ele>89.7</ele>
        <time>2022-03-27T09:14:32Z</time>
      </trkpt>
      <trkpt lat="49.03978" lon="1.95818">
        <ele>89.2</ele>
        <time>2022-03-27T09:14:37Z</time>
      </trkpt>
      <trkpt lat="49.0398" lon="1.9581">
        <ele>88</ele>
        <time>2022-03-27T09:14:41Z</time>
      </trkpt>
      <trkpt lat="49.03983" lon="1.95803">
        <ele>87.5</ele>
        <time>2022-03-27T09:14:45Z</time>
      </trkpt>
      <trkpt lat="49.03985" lon="1.95795">
        <ele>87.4</ele>
        <time>2022-03-27T09:14:49Z</time>
      </trkpt>
      <trkpt lat="49.03987" lon="1.95786">
        <ele>88.1</ele>
        <time>2022-03-27T09:14:54Z</time>
      </trkpt>
      <trkpt lat="49.03989" lon="1.95779">
        <ele>88.6</ele>
        <time>2022-03-27T09:14:58Z</time>
      </trkpt>
      <trkpt lat="49.0399" lon="1.95772">
        <ele>89.1</ele>
        <time>2022-03-27T09:15:02Z</time>
      </trkpt>
      <trkpt lat="49.03992" lon="1.95765">
        <ele>89.5</ele>
        <time>2022-03-27T09:15:06Z</time>
      </trkpt>
      <trkpt lat="49.03994" lon="1.95758">
        <ele>89.7</ele>
        <time>2022-03-27T09:15:10Z</time>
      </trkpt>
      <trkpt lat="49.03994" lon="1.9575">
        <ele>89.8</ele>
        <time>2022-03-27T09:15:14Z</time>
      </trkpt>
      <trkpt lat="49.03995" lon="1.95743">
        <ele>89.4</ele>
        <time>2022-03-27T09:15:18Z</time>
      </trkpt>
      <trkpt lat="49.03996" lon="1.95736">
        <ele>89</ele>
        <time>2022-03-27T09:15:22Z</time>
      </trkpt>
      <trkpt lat="49.03998" lon="1.95728">
        <ele>89</ele>
        <time>2022-03-27T09:15:26Z</time>
      </trkpt>
      <trkpt lat="49.03999" lon="1.95721">
        <ele>88</ele>
        <time>2022-03-27T09:15:30Z</time>
      </trkpt>
      <trkpt lat="49.04001" lon="1.95714">
        <ele>87.3</ele>
        <time>2022-03-27T09:15:34Z</time>
      </trkpt>
      <trkpt lat="49.04001" lon="1.95706">
        <ele>86.7</ele>
        <time>2022-03-27T09:15:38Z</time>
      </trkpt>
      <trkpt lat="49.04002" lon="1.95698">
        <ele>86.3</ele>
        <time>2022-03-27T09:15:42Z</time>
      </trkpt>
      <trkpt lat="49.04002" lon="1.95691">
        <ele>85</ele>
        <time>2022-03-27T09:15:46Z</time>
      </trkpt>
      <trkpt lat="49.04003" lon="1.95683">
        <ele>83.6</ele>
        <time>2022-03-27T09:15:50Z</time>
      </trkpt>
      <trkpt lat="49.04004" lon="1.95675">
        <ele>83.1</ele>
        <time>2022-03-27T09:15:54Z</time>
      </trkpt>
      <trkpt lat="49.04005" lon="1.95666">
        <ele>82.9</ele>
        <time>2022-03-27T09:15:58Z</time>
      </trkpt>
      <trkpt lat="49.04005" lon="1.95659">
        <ele>82.5</ele>
        <time>2022-03-27T09:16:01Z</time>
      </trkpt>
      <trkpt lat="49.04006" lon="1.95652">
        <ele>82.3</ele>
        <time>2022-03-27T09:16:05Z</time>
      </trkpt>
      <trkpt lat="49.04006" lon="1.95643">
        <ele>82.5</ele>
        <time>2022-03-27T09:16:09Z</time>
      </trkpt>
      <trkpt lat="49.04007" lon="1.95636">
        <ele>82.6</ele>
        <time>2022-03-27T09:16:12Z</time>
      </trkpt>
      <trkpt lat="49.04007" lon="1.95627">
        <ele>83.2</ele>
        <time>2022-03-27T09:16:17Z</time>
      </trkpt>
      <trkpt lat="49.04008" lon="1.9562">
        <ele>82.9</ele>
        <time>2022-03-27T09:16:21Z</time>
      </trkpt>
      <trkpt lat="49.04009" lon="1.95613">
        <ele>82.5</ele>
        <time>2022-03-27T09:16:25Z</time>
      </trkpt>
      <trkpt lat="49.04011" lon="1.95604">
        <ele>82.5</ele>
        <time>2022-03-27T09:16:29Z</time>
      </trkpt>
      <trkpt lat="49.04013" lon="1.95596">
        <ele>83.2</ele>
        <time>2022-03-27T09:16:33Z</time>
      </trkpt>
      <trkpt lat="49.04014" lon="1.95588">
        <ele>83.7</ele>
        <time>2022-03-27T09:16:37Z</time>
      </trkpt>
      <trkpt lat="49.04015" lon="1.95581">
        <ele>83.8</ele>
        <time>2022-03-27T09:16:41Z</time>
      </trkpt>
      <trkpt lat="49.04016" lon="1.95573">
        <ele>83.8</ele>
        <time>2022-03-27T09:16:45Z</time>
      </trkpt>
      <trkpt lat="49.04015" lon="1.95564">
        <ele>84</ele>
        <time>2022-03-27T09:16:49Z</time>
      </trkpt>
      <trkpt lat="49.04016" lon="1.95556">
        <ele>83.7</ele>
        <time>2022-03-27T09:16:53Z</time>
      </trkpt>
      <trkpt lat="49.04016" lon="1.95549">
        <ele>84.2</ele>
        <time>2022-03-27T09:16:57Z</time>
      </trkpt>
      <trkpt lat="49.04017" lon="1.9554">
        <ele>85.1</ele>
        <time>2022-03-27T09:17:02Z</time>
      </trkpt>
      <trkpt lat="49.04017" lon="1.9553">
        <ele>85.3</ele>
        <time>2022-03-27T09:17:07Z</time>
      </trkpt>
      <trkpt lat="49.04017" lon="1.95522">
        <ele>85</ele>
        <time>2022-03-27T09:17:12Z</time>
      </trkpt>
      <trkpt lat="49.04019" lon="1.95515">
        <ele>84.7</ele>
        <time>2022-03-27T09:17:17Z</time>
      </trkpt>
      <trkpt lat="49.04017" lon="1.95522">
        <ele>84.7</ele>
        <time>2022-03-27T09:18:44Z</time>
      </trkpt>
      <trkpt lat="49.04021" lon="1.95518">
        <ele>82</ele>
        <time>2022-03-27T09:21:49Z</time>
      </trkpt>
      <trkpt lat="49.04027" lon="1.95519">
        <ele>83.8</ele>
        <time>2022-03-27T09:21:54Z</time>
      </trkpt>
      <trkpt lat="49.04032" lon="1.95518">
        <ele>84.6</ele>
        <time>2022-03-27T09:21:59Z</time>
      </trkpt>
      <trkpt lat="49.04037" lon="1.95518">
        <ele>83.9</ele>
        <time>2022-03-27T09:22:05Z</time>
      </trkpt>
      <trkpt lat="49.04042" lon="1.95517">
        <ele>82.6</ele>
        <time>2022-03-27T09:22:10Z</time>
      </trkpt>
      <trkpt lat="49.04046" lon="1.95519">
        <ele>81.5</ele>
        <time>2022-03-27T09:22:15Z</time>
      </trkpt>
      <trkpt lat="49.04051" lon="1.9552">
        <ele>80.1</ele>
        <time>2022-03-27T09:22:21Z</time>
      </trkpt>
      <trkpt lat="49.04056" lon="1.9552">
        <ele>78.3</ele>
        <time>2022-03-27T09:22:27Z</time>
      </trkpt>
      <trkpt lat="49.04061" lon="1.95521">
        <ele>77.7</ele>
        <time>2022-03-27T09:22:32Z</time>
      </trkpt>
      <trkpt lat="49.04066" lon="1.95521">
        <ele>77.2</ele>
        <time>2022-03-27T09:22:37Z</time>
      </trkpt>
      <trkpt lat="49.04071" lon="1.9552">
        <ele>76.3</ele>
        <time>2022-03-27T09:22:43Z</time>
      </trkpt>
      <trkpt lat="49.04077" lon="1.95519">
        <ele>75.3</ele>
        <time>2022-03-27T09:22:48Z</time>
      </trkpt>
      <trkpt lat="49.04082" lon="1.95518">
        <ele>73.7</ele>
        <time>2022-03-27T09:22:53Z</time>
      </trkpt>
      <trkpt lat="49.04086" lon="1.95516">
        <ele>73</ele>
        <time>2022-03-27T09:22:57Z</time>
      </trkpt>
      <trkpt lat="49.04091" lon="1.95511">
        <ele>73.7</ele>
        <time>2022-03-27T09:23:01Z</time>
      </trkpt>
      <trkpt lat="49.04095" lon="1.95507">
        <ele>74.5</ele>
        <time>2022-03-27T09:23:04Z</time>
      </trkpt>
      <trkpt lat="49.04097" lon="1.95501">
        <ele>75.3</ele>
        <time>2022-03-27T09:23:08Z</time>
      </trkpt>
      <trkpt lat="49.041" lon="1.95495">
        <ele>76</ele>
        <time>2022-03-27T09:23:11Z</time>
      </trkpt>
      <trkpt lat="49.04102" lon="1.95488">
        <ele>76.4</ele>
        <time>2022-03-27T09:23:14Z</time>
      </trkpt>
      <trkpt lat="49.04103" lon="1.9548">
        <ele>76.1</ele>
        <time>2022-03-27T09:23:18Z</time>
      </trkpt>
      <trkpt lat="49.04104" lon="1.95472">
        <ele>74.9</ele>
        <time>2022-03-27T09:23:22Z</time>
      </trkpt>
      <trkpt lat="49.04105" lon="1.95463">
        <ele>73.5</ele>
        <time>2022-03-27T09:23:26Z</time>
      </trkpt>
      <trkpt lat="49.04107" lon="1.95455">
        <ele>73.9</ele>
        <time>2022-03-27T09:23:31Z</time>
      </trkpt>
      <trkpt lat="49.04108" lon="1.95448">
        <ele>75.1</ele>
        <time>2022-03-27T09:23:35Z</time>
      </trkpt>
      <trkpt lat="49.04111" lon="1.95439">
        <ele>75.1</ele>
        <time>2022-03-27T09:23:39Z</time>
      </trkpt>
      <trkpt lat="49.04113" lon="1.95432">
        <ele>74.5</ele>
        <time>2022-03-27T09:23:43Z</time>
      </trkpt>
      <trkpt lat="49.04114" lon="1.95423">
        <ele>75.8</ele>
        <time>2022-03-27T09:23:48Z</time>
      </trkpt>
      <trkpt lat="49.04117" lon="1.95416">
        <ele>77.3</ele>
        <time>2022-03-27T09:23:53Z</time>
      </trkpt>
      <trkpt lat="49.04121" lon="1.9541">
        <ele>77</ele>
        <time>2022-03-27T09:23:57Z</time>
      </trkpt>
      <trkpt lat="49.04125" lon="1.95405">
        <ele>76.2</ele>
        <time>2022-03-27T09:24:02Z</time>
      </trkpt>
      <trkpt lat="49.0413" lon="1.95401">
        <ele>74.9</ele>
        <time>2022-03-27T09:24:06Z</time>
      </trkpt>
      <trkpt lat="49.04134" lon="1.95398">
        <ele>73.7</ele>
        <time>2022-03-27T09:24:10Z</time>
      </trkpt>
      <trkpt lat="49.04138" lon="1.95394">
        <ele>73.7</ele>
        <time>2022-03-27T09:24:15Z</time>
      </trkpt>
      <trkpt lat="49.04143" lon="1.95391">
        <ele>74.6</ele>
        <time>2022-03-27T09:24:19Z</time>
      </trkpt>
      <trkpt lat="49.04147" lon="1.95387">
        <ele>75.1</ele>
        <time>2022-03-27T09:24:24Z</time>
      </trkpt>
      <trkpt lat="49.0415" lon="1.95382">
        <ele>74.2</ele>
        <time>2022-03-27T09:24:29Z</time>
      </trkpt>
      <trkpt lat="49.04154" lon="1.95378">
        <ele>72.6</ele>
        <time>2022-03-27T09:24:33Z</time>
      </trkpt>
      <trkpt lat="49.04158" lon="1.95375">
        <ele>71.9</ele>
        <time>2022-03-27T09:24:38Z</time>
      </trkpt>
      <trkpt lat="49.04163" lon="1.95372">
        <ele>72.3</ele>
        <time>2022-03-27T09:24:43Z</time>
      </trkpt>
      <trkpt lat="49.04168" lon="1.95373">
        <ele>71.8</ele>
        <time>2022-03-27T09:24:49Z</time>
      </trkpt>
      <trkpt lat="49.04173" lon="1.95372">
        <ele>70.8</ele>
        <time>2022-03-27T09:24:54Z</time>
      </trkpt>
      <trkpt lat="49.04178" lon="1.9537">
        <ele>68.8</ele>
        <time>2022-03-27T09:24:59Z</time>
      </trkpt>
      <trkpt lat="49.04183" lon="1.95368">
        <ele>65.5</ele>
        <time>2022-03-27T09:25:05Z</time>
      </trkpt>
      <trkpt lat="49.04188" lon="1.95364">
        <ele>62.5</ele>
        <time>2022-03-27T09:25:09Z</time>
      </trkpt>
      <trkpt lat="49.04192" lon="1.95356">
        <ele>59.2</ele>
        <time>2022-03-27T09:25:14Z</time>
      </trkpt>
      <trkpt lat="49.04196" lon="1.9535">
        <ele>56.3</ele>
        <time>2022-03-27T09:25:18Z</time>
      </trkpt>
      <trkpt lat="49.042" lon="1.95345">
        <ele>54.8</ele>
        <time>2022-03-27T09:25:23Z</time>
      </trkpt>
      <trkpt lat="49.04204" lon="1.95341">
        <ele>54.6</ele>
        <time>2022-03-27T09:25:27Z</time>
      </trkpt>
      <trkpt lat="49.04208" lon="1.95338">
        <ele>54.5</ele>
        <time>2022-03-27T09:25:31Z</time>
      </trkpt>
      <trkpt lat="49.04213" lon="1.95336">
        <ele>54.2</ele>
        <time>2022-03-27T09:25:35Z</time>
      </trkpt>
      <trkpt lat="49.04217" lon="1.95332">
        <ele>53.7</ele>
        <time>2022-03-27T09:25:40Z</time>
      </trkpt>
      <trkpt lat="49.04222" lon="1.95329">
        <ele>53.2</ele>
        <time>2022-03-27T09:25:44Z</time>
      </trkpt>
      <trkpt lat="49.04227" lon="1.95325">
        <ele>52.5</ele>
        <time>2022-03-27T09:25:48Z</time>
      </trkpt>
      <trkpt lat="49.04232" lon="1.9532">
        <ele>51.5</ele>
        <time>2022-03-27T09:25:53Z</time>
      </trkpt>
      <trkpt lat="49.04236" lon="1.95317">
        <ele>50.8</ele>
        <time>2022-03-27T09:25:57Z</time>
      </trkpt>
      <trkpt lat="49.0424" lon="1.95314">
        <ele>50.1</ele>
        <time>2022-03-27T09:26:00Z</time>
      </trkpt>
      <trkpt lat="49.04246" lon="1.9531">
        <ele>49.4</ele>
        <time>2022-03-27T09:26:05Z</time>
      </trkpt>
      <trkpt lat="49.04251" lon="1.95305">
        <ele>48.9</ele>
        <time>2022-03-27T09:26:09Z</time>
      </trkpt>
      <trkpt lat="49.04255" lon="1.95302">
        <ele>48.5</ele>
        <time>2022-03-27T09:26:13Z</time>
      </trkpt>
      <trkpt lat="49.0426" lon="1.95298">
        <ele>48.3</ele>
        <time>2022-03-27T09:26:17Z</time>
      </trkpt>
      <trkpt lat="49.04264" lon="1.95295">
        <ele>47.8</ele>
        <time>2022-03-27T09:26:21Z</time>
      </trkpt>
      <trkpt lat="49.04269" lon="1.95292">
        <ele>47</ele>
        <time>2022-03-27T09:26:25Z</time>
      </trkpt>
      <trkpt lat="49.04274" lon="1.95289">
        <ele>46.4</ele>
        <time>2022-03-27T09:26:29Z</time>
      </trkpt>
      <trkpt lat="49.04278" lon="1.95287">
        <ele>45.9</ele>
        <time>2022-03-27T09:26:33Z</time>
      </trkpt>
      <trkpt lat="49.04283" lon="1.95282">
        <ele>45.7</ele>
        <time>2022-03-27T09:26:37Z</time>
      </trkpt>
      <trkpt lat="49.04287" lon="1.95277">
        <ele>45.3</ele>
        <time>2022-03-27T09:26:41Z</time>
      </trkpt>
      <trkpt lat="49.0429" lon="1.95271">
        <ele>44.5</ele>
        <time>2022-03-27T09:26:46Z</time>
      </trkpt>
      <trkpt lat="49.04287" lon="1.95265">
        <ele>44.4</ele>
        <time>2022-03-27T09:26:49Z</time>
      </trkpt>
      <trkpt lat="49.04283" lon="1.9526">
        <ele>44.8</ele>
        <time>2022-03-27T09:26:53Z</time>
      </trkpt>
      <trkpt lat="49.0428" lon="1.95254">
        <ele>45.6</ele>
        <time>2022-03-27T09:26:57Z</time>
      </trkpt>
      <trkpt lat="49.04277" lon="1.95248">
        <ele>45.9</ele>
        <time>2022-03-27T09:27:01Z</time>
      </trkpt>
      <trkpt lat="49.04274" lon="1.95242">
        <ele>45.7</ele>
        <time>2022-03-27T09:27:05Z</time>
      </trkpt>
      <trkpt lat="49.04272" lon="1.95236">
        <ele>45.5</ele>
        <time>2022-03-27T09:27:09Z</time>
      </trkpt>
      <trkpt lat="49.04269" lon="1.95229">
        <ele>45.4</ele>
        <time>2022-03-27T09:27:13Z</time>
      </trkpt>
      <trkpt lat="49.04266" lon="1.95224">
        <ele>45.4</ele>
        <time>2022-03-27T09:27:16Z</time>
      </trkpt>
      <trkpt lat="49.04262" lon="1.95217">
        <ele>45.6</ele>
        <time>2022-03-27T09:27:21Z</time>
      </trkpt>
      <trkpt lat="49.0426" lon="1.9521">
        <ele>45.7</ele>
        <time>2022-03-27T09:27:25Z</time>
      </trkpt>
      <trkpt lat="49.04257" lon="1.95204">
        <ele>45.8</ele>
        <time>2022-03-27T09:27:28Z</time>
      </trkpt>
      <trkpt lat="49.04254" lon="1.95199">
        <ele>45.7</ele>
        <time>2022-03-27T09:27:34Z</time>
      </trkpt>
      <trkpt lat="49.04252" lon="1.9519">
        <ele>45.8</ele>
        <time>2022-03-27T09:27:37Z</time>
      </trkpt>
      <trkpt lat="49.04251" lon="1.95182">
        <ele>45.9</ele>
        <time>2022-03-27T09:27:41Z</time>
      </trkpt>
      <trkpt lat="49.04248" lon="1.95173">
        <ele>46</ele>
        <time>2022-03-27T09:27:44Z</time>
      </trkpt>
      <trkpt lat="49.04245" lon="1.95167">
        <ele>46</ele>
        <time>2022-03-27T09:27:48Z</time>
      </trkpt>
      <trkpt lat="49.04242" lon="1.9516">
        <ele>45.9</ele>
        <time>2022-03-27T09:27:51Z</time>
      </trkpt>
      <trkpt lat="49.04239" lon="1.95153">
        <ele>45.8</ele>
        <time>2022-03-27T09:27:55Z</time>
      </trkpt>
      <trkpt lat="49.04236" lon="1.95145">
        <ele>45.9</ele>
        <time>2022-03-27T09:27:59Z</time>
      </trkpt>
      <trkpt lat="49.04234" lon="1.95139">
        <ele>46</ele>
        <time>2022-03-27T09:28:03Z</time>
      </trkpt>
      <trkpt lat="49.04234" lon="1.95131">
        <ele>46</ele>
        <time>2022-03-27T09:28:07Z</time>
      </trkpt>
      <trkpt lat="49.04234" lon="1.95124">
        <ele>45.5</ele>
        <time>2022-03-27T09:28:11Z</time>
      </trkpt>
      <trkpt lat="49.04233" lon="1.95117">
        <ele>45.1</ele>
        <time>2022-03-27T09:28:15Z</time>
      </trkpt>
      <trkpt lat="49.04231" lon="1.95109">
        <ele>44.4</ele>
        <time>2022-03-27T09:28:19Z</time>
      </trkpt>
      <trkpt lat="49.04228" lon="1.95103">
        <ele>44.2</ele>
        <time>2022-03-27T09:28:23Z</time>
      </trkpt>
      <trkpt lat="49.04224" lon="1.95107">
        <ele>44.1</ele>
        <time>2022-03-27T09:28:34Z</time>
      </trkpt>
      <trkpt lat="49.04223" lon="1.95099">
        <ele>43.9</ele>
        <time>2022-03-27T09:28:39Z</time>
      </trkpt>
      <trkpt lat="49.04227" lon="1.95095">
        <ele>43.8</ele>
        <time>2022-03-27T09:28:42Z</time>
      </trkpt>
      <trkpt lat="49.04232" lon="1.95094">
        <ele>43.9</ele>
        <time>2022-03-27T09:28:46Z</time>
      </trkpt>
      <trkpt lat="49.04227" lon="1.95097">
        <ele>47.4</ele>
        <time>2022-03-27T09:28:59Z</time>
      </trkpt>
      <trkpt lat="49.04232" lon="1.95098">
        <ele>44.7</ele>
        <time>2022-03-27T09:31:19Z</time>
      </trkpt>
      <trkpt lat="49.04238" lon="1.95097">
        <ele>44.2</ele>
        <time>2022-03-27T09:31:24Z</time>
      </trkpt>
      <trkpt lat="49.04242" lon="1.95089">
        <ele>43.7</ele>
        <time>2022-03-27T09:31:28Z</time>
      </trkpt>
      <trkpt lat="49.04245" lon="1.95083">
        <ele>43.6</ele>
        <time>2022-03-27T09:31:31Z</time>
      </trkpt>
      <trkpt lat="49.04248" lon="1.95076">
        <ele>44.5</ele>
        <time>2022-03-27T09:31:36Z</time>
      </trkpt>
      <trkpt lat="49.04253" lon="1.95078">
        <ele>42.6</ele>
        <time>2022-03-27T09:31:54Z</time>
      </trkpt>
      <trkpt lat="49.04259" lon="1.95081">
        <ele>42.2</ele>
        <time>2022-03-27T09:31:57Z</time>
      </trkpt>
      <trkpt lat="49.04263" lon="1.95084">
        <ele>42</ele>
        <time>2022-03-27T09:31:59Z</time>
      </trkpt>
      <trkpt lat="49.04268" lon="1.95086">
        <ele>42.6</ele>
        <time>2022-03-27T09:32:03Z</time>
      </trkpt>
      <trkpt lat="49.04273" lon="1.95088">
        <ele>43.4</ele>
        <time>2022-03-27T09:32:07Z</time>
      </trkpt>
      <trkpt lat="49.04278" lon="1.95088">
        <ele>43.6</ele>
        <time>2022-03-27T09:32:11Z</time>
      </trkpt>
      <trkpt lat="49.04283" lon="1.9509">
        <ele>43.6</ele>
        <time>2022-03-27T09:32:15Z</time>
      </trkpt>
      <trkpt lat="49.04288" lon="1.9509">
        <ele>43.5</ele>
        <time>2022-03-27T09:32:20Z</time>
      </trkpt>
      <trkpt lat="49.04294" lon="1.95089">
        <ele>43.7</ele>
        <time>2022-03-27T09:32:24Z</time>
      </trkpt>
      <trkpt lat="49.04299" lon="1.95088">
        <ele>44.2</ele>
        <time>2022-03-27T09:32:28Z</time>
      </trkpt>
      <trkpt lat="49.04303" lon="1.95087">
        <ele>44.4</ele>
        <time>2022-03-27T09:32:31Z</time>
      </trkpt>
      <trkpt lat="49.04309" lon="1.95085">
        <ele>44.3</ele>
        <time>2022-03-27T09:32:35Z</time>
      </trkpt>
      <trkpt lat="49.04316" lon="1.95084">
        <ele>44.3</ele>
        <time>2022-03-27T09:32:40Z</time>
      </trkpt>
      <trkpt lat="49.04321" lon="1.95082">
        <ele>44.2</ele>
        <time>2022-03-27T09:32:44Z</time>
      </trkpt>
      <trkpt lat="49.04326" lon="1.95081">
        <ele>44.2</ele>
        <time>2022-03-27T09:32:48Z</time>
      </trkpt>
      <trkpt lat="49.04331" lon="1.9508">
        <ele>44.3</ele>
        <time>2022-03-27T09:32:53Z</time>
      </trkpt>
      <trkpt lat="49.04337" lon="1.95079">
        <ele>44.5</ele>
        <time>2022-03-27T09:32:57Z</time>
      </trkpt>
      <trkpt lat="49.04342" lon="1.95079">
        <ele>44.5</ele>
        <time>2022-03-27T09:33:02Z</time>
      </trkpt>
      <trkpt lat="49.04349" lon="1.95079">
        <ele>44.5</ele>
        <time>2022-03-27T09:33:07Z</time>
      </trkpt>
      <trkpt lat="49.04353" lon="1.95079">
        <ele>44.4</ele>
        <time>2022-03-27T09:33:11Z</time>
      </trkpt>
      <trkpt lat="49.04359" lon="1.95078">
        <ele>44.3</ele>
        <time>2022-03-27T09:33:15Z</time>
      </trkpt>
      <trkpt lat="49.04363" lon="1.95079">
        <ele>44.2</ele>
        <time>2022-03-27T09:33:19Z</time>
      </trkpt>
      <trkpt lat="49.04368" lon="1.9508">
        <ele>44</ele>
        <time>2022-03-27T09:33:23Z</time>
      </trkpt>
      <trkpt lat="49.04373" lon="1.95082">
        <ele>43.6</ele>
        <time>2022-03-27T09:33:27Z</time>
      </trkpt>
      <trkpt lat="49.04378" lon="1.95083">
        <ele>43.1</ele>
        <time>2022-03-27T09:33:32Z</time>
      </trkpt>
      <trkpt lat="49.04383" lon="1.95083">
        <ele>42.8</ele>
        <time>2022-03-27T09:33:36Z</time>
      </trkpt>
      <trkpt lat="49.04388" lon="1.95084">
        <ele>42.5</ele>
        <time>2022-03-27T09:33:40Z</time>
      </trkpt>
      <trkpt lat="49.04393" lon="1.95086">
        <ele>42</ele>
        <time>2022-03-27T09:33:45Z</time>
      </trkpt>
      <trkpt lat="49.04398" lon="1.95088">
        <ele>42</ele>
        <time>2022-03-27T09:33:50Z</time>
      </trkpt>
      <trkpt lat="49.04403" lon="1.95089">
        <ele>42.3</ele>
        <time>2022-03-27T09:33:54Z</time>
      </trkpt>
      <trkpt lat="49.04408" lon="1.95089">
        <ele>42.2</ele>
        <time>2022-03-27T09:33:58Z</time>
      </trkpt>
      <trkpt lat="49.04413" lon="1.95089">
        <ele>41.8</ele>
        <time>2022-03-27T09:34:02Z</time>
      </trkpt>
      <trkpt lat="49.04418" lon="1.95088">
        <ele>42.3</ele>
        <time>2022-03-27T09:34:07Z</time>
      </trkpt>
      <trkpt lat="49.04424" lon="1.9509">
        <ele>42.9</ele>
        <time>2022-03-27T09:34:12Z</time>
      </trkpt>
      <trkpt lat="49.0443" lon="1.95091">
        <ele>43.5</ele>
        <time>2022-03-27T09:34:16Z</time>
      </trkpt>
      <trkpt lat="49.04435" lon="1.95092">
        <ele>43.9</ele>
        <time>2022-03-27T09:34:20Z</time>
      </trkpt>
      <trkpt lat="49.04441" lon="1.95094">
        <ele>44.1</ele>
        <time>2022-03-27T09:34:24Z</time>
      </trkpt>
      <trkpt lat="49.04446" lon="1.95096">
        <ele>44.5</ele>
        <time>2022-03-27T09:34:28Z</time>
      </trkpt>
      <trkpt lat="49.04451" lon="1.95099">
        <ele>45</ele>
        <time>2022-03-27T09:34:32Z</time>
      </trkpt>
      <trkpt lat="49.04457" lon="1.95099">
        <ele>44.8</ele>
        <time>2022-03-27T09:34:37Z</time>
      </trkpt>
      <trkpt lat="49.04462" lon="1.951">
        <ele>44.8</ele>
        <time>2022-03-27T09:34:41Z</time>
      </trkpt>
      <trkpt lat="49.04467" lon="1.95101">
        <ele>44.5</ele>
        <time>2022-03-27T09:34:45Z</time>
      </trkpt>
      <trkpt lat="49.04472" lon="1.95103">
        <ele>44.7</ele>
        <time>2022-03-27T09:34:49Z</time>
      </trkpt>
      <trkpt lat="49.04477" lon="1.95104">
        <ele>44.6</ele>
        <time>2022-03-27T09:34:53Z</time>
      </trkpt>
      <trkpt lat="49.04482" lon="1.95105">
        <ele>44.5</ele>
        <time>2022-03-27T09:34:58Z</time>
      </trkpt>
      <trkpt lat="49.04487" lon="1.95108">
        <ele>43.8</ele>
        <time>2022-03-27T09:35:02Z</time>
      </trkpt>
      <trkpt lat="49.04492" lon="1.9511">
        <ele>43.8</ele>
        <time>2022-03-27T09:35:06Z</time>
      </trkpt>
      <trkpt lat="49.04497" lon="1.95112">
        <ele>43.2</ele>
        <time>2022-03-27T09:35:11Z</time>
      </trkpt>
      <trkpt lat="49.04501" lon="1.95113">
        <ele>42.2</ele>
        <time>2022-03-27T09:35:16Z</time>
      </trkpt>
      <trkpt lat="49.04506" lon="1.95115">
        <ele>41.9</ele>
        <time>2022-03-27T09:35:19Z</time>
      </trkpt>
      <trkpt lat="49.04511" lon="1.95118">
        <ele>42.7</ele>
        <time>2022-03-27T09:35:24Z</time>
      </trkpt>
      <trkpt lat="49.04517" lon="1.9512">
        <ele>44</ele>
        <time>2022-03-27T09:35:29Z</time>
      </trkpt>
      <trkpt lat="49.04522" lon="1.95123">
        <ele>44.4</ele>
        <time>2022-03-27T09:35:34Z</time>
      </trkpt>
      <trkpt lat="49.04526" lon="1.95124">
        <ele>44.9</ele>
        <time>2022-03-27T09:35:38Z</time>
      </trkpt>
      <trkpt lat="49.04531" lon="1.95125">
        <ele>45.1</ele>
        <time>2022-03-27T09:35:42Z</time>
      </trkpt>
      <trkpt lat="49.04536" lon="1.95127">
        <ele>44.8</ele>
        <time>2022-03-27T09:35:46Z</time>
      </trkpt>
      <trkpt lat="49.04541" lon="1.95127">
        <ele>44.3</ele>
        <time>2022-03-27T09:35:52Z</time>
      </trkpt>
      <trkpt lat="49.04546" lon="1.95129">
        <ele>44.8</ele>
        <time>2022-03-27T09:35:56Z</time>
      </trkpt>
      <trkpt lat="49.04552" lon="1.95133">
        <ele>45.5</ele>
        <time>2022-03-27T09:36:00Z</time>
      </trkpt>
      <trkpt lat="49.04557" lon="1.95135">
        <ele>46</ele>
        <time>2022-03-27T09:36:04Z</time>
      </trkpt>
      <trkpt lat="49.04562" lon="1.95137">
        <ele>46.1</ele>
        <time>2022-03-27T09:36:08Z</time>
      </trkpt>
      <trkpt lat="49.04566" lon="1.95138">
        <ele>46.1</ele>
        <time>2022-03-27T09:36:12Z</time>
      </trkpt>
      <trkpt lat="49.04572" lon="1.9514">
        <ele>46.3</ele>
        <time>2022-03-27T09:36:17Z</time>
      </trkpt>
      <trkpt lat="49.04577" lon="1.95143">
        <ele>46.6</ele>
        <time>2022-03-27T09:36:21Z</time>
      </trkpt>
      <trkpt lat="49.04582" lon="1.95145">
        <ele>46.8</ele>
        <time>2022-03-27T09:36:25Z</time>
      </trkpt>
      <trkpt lat="49.04587" lon="1.95146">
        <ele>47.2</ele>
        <time>2022-03-27T09:36:29Z</time>
      </trkpt>
      <trkpt lat="49.04592" lon="1.95149">
        <ele>47.9</ele>
        <time>2022-03-27T09:36:33Z</time>
      </trkpt>
      <trkpt lat="49.04597" lon="1.95152">
        <ele>48.8</ele>
        <time>2022-03-27T09:36:37Z</time>
      </trkpt>
      <trkpt lat="49.04602" lon="1.95158">
        <ele>48.7</ele>
        <time>2022-03-27T09:36:42Z</time>
      </trkpt>
      <trkpt lat="49.04605" lon="1.95162">
        <ele>48.1</ele>
        <time>2022-03-27T09:36:46Z</time>
      </trkpt>
      <trkpt lat="49.0461" lon="1.95166">
        <ele>48</ele>
        <time>2022-03-27T09:36:51Z</time>
      </trkpt>
      <trkpt lat="49.04614" lon="1.95172">
        <ele>47.7</ele>
        <time>2022-03-27T09:36:56Z</time>
      </trkpt>
      <trkpt lat="49.04618" lon="1.95175">
        <ele>47.2</ele>
        <time>2022-03-27T09:37:01Z</time>
      </trkpt>
      <trkpt lat="49.04622" lon="1.9518">
        <ele>47</ele>
        <time>2022-03-27T09:37:05Z</time>
      </trkpt>
      <trkpt lat="49.04624" lon="1.95186">
        <ele>46.9</ele>
        <time>2022-03-27T09:37:09Z</time>
      </trkpt>
      <trkpt lat="49.04627" lon="1.95194">
        <ele>46.7</ele>
        <time>2022-03-27T09:37:14Z</time>
      </trkpt>
      <trkpt lat="49.04631" lon="1.952">
        <ele>46.6</ele>
        <time>2022-03-27T09:37:19Z</time>
      </trkpt>
      <trkpt lat="49.04635" lon="1.95206">
        <ele>46.2</ele>
        <time>2022-03-27T09:37:23Z</time>
      </trkpt>
      <trkpt lat="49.04637" lon="1.95212">
        <ele>45.5</ele>
        <time>2022-03-27T09:37:27Z</time>
      </trkpt>
      <trkpt lat="49.0464" lon="1.95218">
        <ele>44.7</ele>
        <time>2022-03-27T09:37:32Z</time>
      </trkpt>
      <trkpt lat="49.04644" lon="1.95224">
        <ele>44.2</ele>
        <time>2022-03-27T09:37:36Z</time>
      </trkpt>
      <trkpt lat="49.04647" lon="1.9523">
        <ele>44</ele>
        <time>2022-03-27T09:37:40Z</time>
      </trkpt>
      <trkpt lat="49.0465" lon="1.95236">
        <ele>43.7</ele>
        <time>2022-03-27T09:37:44Z</time>
      </trkpt>
      <trkpt lat="49.04655" lon="1.95242">
        <ele>43.7</ele>
        <time>2022-03-27T09:37:49Z</time>
      </trkpt>
      <trkpt lat="49.0466" lon="1.95245">
        <ele>43.8</ele>
        <time>2022-03-27T09:37:54Z</time>
      </trkpt>
      <trkpt lat="49.04665" lon="1.95248">
        <ele>43.9</ele>
        <time>2022-03-27T09:37:57Z</time>
      </trkpt>
      <trkpt lat="49.0467" lon="1.9525">
        <ele>44.3</ele>
        <time>2022-03-27T09:38:01Z</time>
      </trkpt>
      <trkpt lat="49.04675" lon="1.95252">
        <ele>44.4</ele>
        <time>2022-03-27T09:38:05Z</time>
      </trkpt>
      <trkpt lat="49.04679" lon="1.95256">
        <ele>44.1</ele>
        <time>2022-03-27T09:38:09Z</time>
      </trkpt>
      <trkpt lat="49.04684" lon="1.95258">
        <ele>43.6</ele>
        <time>2022-03-27T09:38:13Z</time>
      </trkpt>
      <trkpt lat="49.04689" lon="1.95259">
        <ele>43.2</ele>
        <time>2022-03-27T09:38:17Z</time>
      </trkpt>
      <trkpt lat="49.04694" lon="1.9526">
        <ele>43</ele>
        <time>2022-03-27T09:38:21Z</time>
      </trkpt>
      <trkpt lat="49.04699" lon="1.95262">
        <ele>43.2</ele>
        <time>2022-03-27T09:38:25Z</time>
      </trkpt>
      <trkpt lat="49.04704" lon="1.95263">
        <ele>43.4</ele>
        <time>2022-03-27T09:38:28Z</time>
      </trkpt>
      <trkpt lat="49.04709" lon="1.95264">
        <ele>43.8</ele>
        <time>2022-03-27T09:38:32Z</time>
      </trkpt>
      <trkpt lat="49.04714" lon="1.95265">
        <ele>43.7</ele>
        <time>2022-03-27T09:38:36Z</time>
      </trkpt>
      <trkpt lat="49.04719" lon="1.95267">
        <ele>42.8</ele>
        <time>2022-03-27T09:38:40Z</time>
      </trkpt>
      <trkpt lat="49.04725" lon="1.95269">
        <ele>41.7</ele>
        <time>2022-03-27T09:38:45Z</time>
      </trkpt>
      <trkpt lat="49.04729" lon="1.9527">
        <ele>41.1</ele>
        <time>2022-03-27T09:38:49Z</time>
      </trkpt>
      <trkpt lat="49.04735" lon="1.95272">
        <ele>40.9</ele>
        <time>2022-03-27T09:38:54Z</time>
      </trkpt>
      <trkpt lat="49.0474" lon="1.95275">
        <ele>40.5</ele>
        <time>2022-03-27T09:38:59Z</time>
      </trkpt>
      <trkpt lat="49.04745" lon="1.95276">
        <ele>39.7</ele>
        <time>2022-03-27T09:39:04Z</time>
      </trkpt>
      <trkpt lat="49.0475" lon="1.95276">
        <ele>39.4</ele>
        <time>2022-03-27T09:39:08Z</time>
      </trkpt>
      <trkpt lat="49.04755" lon="1.95278">
        <ele>39.4</ele>
        <time>2022-03-27T09:39:12Z</time>
      </trkpt>
      <trkpt lat="49.0476" lon="1.95279">
        <ele>39.3</ele>
        <time>2022-03-27T09:39:16Z</time>
      </trkpt>
      <trkpt lat="49.04765" lon="1.9528">
        <ele>39.5</ele>
        <time>2022-03-27T09:39:20Z</time>
      </trkpt>
      <trkpt lat="49.0477" lon="1.95281">
        <ele>39.8</ele>
        <time>2022-03-27T09:39:24Z</time>
      </trkpt>
      <trkpt lat="49.04776" lon="1.95282">
        <ele>40.4</ele>
        <time>2022-03-27T09:39:29Z</time>
      </trkpt>
      <trkpt lat="49.04781" lon="1.95281">
        <ele>40.9</ele>
        <time>2022-03-27T09:39:34Z</time>
      </trkpt>
      <trkpt lat="49.04786" lon="1.95279">
        <ele>41.2</ele>
        <time>2022-03-27T09:39:39Z</time>
      </trkpt>
      <trkpt lat="49.04791" lon="1.95279">
        <ele>41.6</ele>
        <time>2022-03-27T09:39:43Z</time>
      </trkpt>
      <trkpt lat="49.04798" lon="1.95281">
        <ele>42.2</ele>
        <time>2022-03-27T09:39:48Z</time>
      </trkpt>
      <trkpt lat="49.04802" lon="1.95279">
        <ele>42.8</ele>
        <time>2022-03-27T09:39:54Z</time>
      </trkpt>
      <trkpt lat="49.04807" lon="1.95279">
        <ele>42.9</ele>
        <time>2022-03-27T09:39:57Z</time>
      </trkpt>
      <trkpt lat="49.04813" lon="1.95277">
        <ele>42.8</ele>
        <time>2022-03-27T09:40:01Z</time>
      </trkpt>
      <trkpt lat="49.04818" lon="1.95275">
        <ele>42.9</ele>
        <time>2022-03-27T09:40:05Z</time>
      </trkpt>
      <trkpt lat="49.04824" lon="1.95273">
        <ele>43</ele>
        <time>2022-03-27T09:40:09Z</time>
      </trkpt>
      <trkpt lat="49.04828" lon="1.95271">
        <ele>43.3</ele>
        <time>2022-03-27T09:40:13Z</time>
      </trkpt>
      <trkpt lat="49.04833" lon="1.95268">
        <ele>43.5</ele>
        <time>2022-03-27T09:40:18Z</time>
      </trkpt>
      <trkpt lat="49.04836" lon="1.95261">
        <ele>43.6</ele>
        <time>2022-03-27T09:40:26Z</time>
      </trkpt>
      <trkpt lat="49.0484" lon="1.95255">
        <ele>43.8</ele>
        <time>2022-03-27T09:40:29Z</time>
      </trkpt>
      <trkpt lat="49.04841" lon="1.95247">
        <ele>43.6</ele>
        <time>2022-03-27T09:40:33Z</time>
      </trkpt>
      <trkpt lat="49.04839" lon="1.95238">
        <ele>43.2</ele>
        <time>2022-03-27T09:40:37Z</time>
      </trkpt>
      <trkpt lat="49.04836" lon="1.95231">
        <ele>42.6</ele>
        <time>2022-03-27T09:40:41Z</time>
      </trkpt>
      <trkpt lat="49.04834" lon="1.95225">
        <ele>43</ele>
        <time>2022-03-27T09:40:45Z</time>
      </trkpt>
      <trkpt lat="49.04833" lon="1.95217">
        <ele>43.9</ele>
        <time>2022-03-27T09:40:50Z</time>
      </trkpt>
      <trkpt lat="49.04835" lon="1.95211">
        <ele>44.1</ele>
        <time>2022-03-27T09:40:54Z</time>
      </trkpt>
      <trkpt lat="49.04837" lon="1.95204">
        <ele>44.4</ele>
        <time>2022-03-27T09:40:58Z</time>
      </trkpt>
      <trkpt lat="49.0484" lon="1.95198">
        <ele>44.4</ele>
        <time>2022-03-27T09:41:02Z</time>
      </trkpt>
      <trkpt lat="49.04841" lon="1.9519">
        <ele>44.2</ele>
        <time>2022-03-27T09:41:06Z</time>
      </trkpt>
      <trkpt lat="49.04843" lon="1.95182">
        <ele>43.9</ele>
        <time>2022-03-27T09:41:10Z</time>
      </trkpt>
      <trkpt lat="49.04844" lon="1.95173">
        <ele>43.6</ele>
        <time>2022-03-27T09:41:15Z</time>
      </trkpt>
      <trkpt lat="49.04844" lon="1.95165">
        <ele>43.2</ele>
        <time>2022-03-27T09:41:19Z</time>
      </trkpt>
      <trkpt lat="49.04844" lon="1.95157">
        <ele>42.6</ele>
        <time>2022-03-27T09:41:23Z</time>
      </trkpt>
      <trkpt lat="49.04843" lon="1.9515">
        <ele>42.1</ele>
        <time>2022-03-27T09:41:27Z</time>
      </trkpt>
      <trkpt lat="49.04843" lon="1.95143">
        <ele>42.1</ele>
        <time>2022-03-27T09:41:31Z</time>
      </trkpt>
      <trkpt lat="49.04842" lon="1.95135">
        <ele>42.3</ele>
        <time>2022-03-27T09:41:35Z</time>
      </trkpt>
      <trkpt lat="49.0484" lon="1.95128">
        <ele>42.7</ele>
        <time>2022-03-27T09:41:39Z</time>
      </trkpt>
      <trkpt lat="49.04839" lon="1.95121">
        <ele>42.8</ele>
        <time>2022-03-27T09:41:43Z</time>
      </trkpt>
      <trkpt lat="49.04837" lon="1.95114">
        <ele>42.7</ele>
        <time>2022-03-27T09:41:47Z</time>
      </trkpt>
      <trkpt lat="49.04835" lon="1.95108">
        <ele>42.6</ele>
        <time>2022-03-27T09:41:51Z</time>
      </trkpt>
      <trkpt lat="49.04834" lon="1.95101">
        <ele>42.1</ele>
        <time>2022-03-27T09:41:55Z</time>
      </trkpt>
      <trkpt lat="49.04836" lon="1.95094">
        <ele>41.5</ele>
        <time>2022-03-27T09:42:00Z</time>
      </trkpt>
      <trkpt lat="49.04842" lon="1.95092">
        <ele>41.2</ele>
        <time>2022-03-27T09:42:05Z</time>
      </trkpt>
      <trkpt lat="49.04847" lon="1.95089">
        <ele>40.8</ele>
        <time>2022-03-27T09:42:09Z</time>
      </trkpt>
      <trkpt lat="49.04853" lon="1.95084">
        <ele>40.9</ele>
        <time>2022-03-27T09:42:14Z</time>
      </trkpt>
      <trkpt lat="49.04856" lon="1.9508">
        <ele>41</ele>
        <time>2022-03-27T09:42:18Z</time>
      </trkpt>
      <trkpt lat="49.0486" lon="1.95074">
        <ele>41.1</ele>
        <time>2022-03-27T09:42:22Z</time>
      </trkpt>
      <trkpt lat="49.04865" lon="1.95068">
        <ele>41.2</ele>
        <time>2022-03-27T09:42:27Z</time>
      </trkpt>
      <trkpt lat="49.04869" lon="1.95063">
        <ele>41.5</ele>
        <time>2022-03-27T09:42:31Z</time>
      </trkpt>
      <trkpt lat="49.04873" lon="1.95058">
        <ele>41.4</ele>
        <time>2022-03-27T09:42:35Z</time>
      </trkpt>
      <trkpt lat="49.04877" lon="1.95053">
        <ele>41.3</ele>
        <time>2022-03-27T09:42:40Z</time>
      </trkpt>
      <trkpt lat="49.04881" lon="1.95048">
        <ele>41.2</ele>
        <time>2022-03-27T09:42:44Z</time>
      </trkpt>
      <trkpt lat="49.04885" lon="1.95044">
        <ele>41.1</ele>
        <time>2022-03-27T09:42:48Z</time>
      </trkpt>
      <trkpt lat="49.04891" lon="1.95037">
        <ele>41.1</ele>
        <time>2022-03-27T09:42:53Z</time>
      </trkpt>
      <trkpt lat="49.04894" lon="1.95032">
        <ele>41.2</ele>
        <time>2022-03-27T09:42:57Z</time>
      </trkpt>
      <trkpt lat="49.04898" lon="1.95027">
        <ele>41.4</ele>
        <time>2022-03-27T09:43:01Z</time>
      </trkpt>
      <trkpt lat="49.04903" lon="1.95022">
        <ele>41.3</ele>
        <time>2022-03-27T09:43:06Z</time>
      </trkpt>
      <trkpt lat="49.04907" lon="1.95017">
        <ele>41.4</ele>
        <time>2022-03-27T09:43:10Z</time>
      </trkpt>
      <trkpt lat="49.04911" lon="1.95011">
        <ele>41.2</ele>
        <time>2022-03-27T09:43:15Z</time>
      </trkpt>
      <trkpt lat="49.04915" lon="1.95007">
        <ele>40.8</ele>
        <time>2022-03-27T09:43:19Z</time>
      </trkpt>
      <trkpt lat="49.04919" lon="1.95003">
        <ele>40.5</ele>
        <time>2022-03-27T09:43:23Z</time>
      </trkpt>
      <trkpt lat="49.04923" lon="1.94998">
        <ele>40.5</ele>
        <time>2022-03-27T09:43:27Z</time>
      </trkpt>
      <trkpt lat="49.04927" lon="1.94992">
        <ele>40.5</ele>
        <time>2022-03-27T09:43:32Z</time>
      </trkpt>
      <trkpt lat="49.04932" lon="1.94988">
        <ele>40.3</ele>
        <time>2022-03-27T09:43:36Z</time>
      </trkpt>
      <trkpt lat="49.04936" lon="1.94984">
        <ele>39.5</ele>
        <time>2022-03-27T09:43:41Z</time>
      </trkpt>
      <trkpt lat="49.0494" lon="1.94979">
        <ele>39</ele>
        <time>2022-03-27T09:43:45Z</time>
      </trkpt>
      <trkpt lat="49.04944" lon="1.94972">
        <ele>39.2</ele>
        <time>2022-03-27T09:43:50Z</time>
      </trkpt>
      <trkpt lat="49.04946" lon="1.94965">
        <ele>39.6</ele>
        <time>2022-03-27T09:43:55Z</time>
      </trkpt>
      <trkpt lat="49.0495" lon="1.94959">
        <ele>39.3</ele>
        <time>2022-03-27T09:44:01Z</time>
      </trkpt>
      <trkpt lat="49.04954" lon="1.9496">
        <ele>39.1</ele>
        <time>2022-03-27T09:44:05Z</time>
      </trkpt>
      <trkpt lat="49.0496" lon="1.94955">
        <ele>38.8</ele>
        <time>2022-03-27T09:44:10Z</time>
      </trkpt>
      <trkpt lat="49.04964" lon="1.94948">
        <ele>38.8</ele>
        <time>2022-03-27T09:44:13Z</time>
      </trkpt>
      <trkpt lat="49.04967" lon="1.94943">
        <ele>39.1</ele>
        <time>2022-03-27T09:44:16Z</time>
      </trkpt>
      <trkpt lat="49.04971" lon="1.94938">
        <ele>40.6</ele>
        <time>2022-03-27T09:44:19Z</time>
      </trkpt>
      <trkpt lat="49.04974" lon="1.94932">
        <ele>43.2</ele>
        <time>2022-03-27T09:44:22Z</time>
      </trkpt>
      <trkpt lat="49.04979" lon="1.94928">
        <ele>44</ele>
        <time>2022-03-27T09:44:28Z</time>
      </trkpt>
      <trkpt lat="49.04983" lon="1.94924">
        <ele>43.7</ele>
        <time>2022-03-27T09:44:33Z</time>
      </trkpt>
      <trkpt lat="49.04988" lon="1.94922">
        <ele>44.1</ele>
        <time>2022-03-27T09:44:38Z</time>
      </trkpt>
      <trkpt lat="49.04988" lon="1.94914">
        <ele>41.3</ele>
        <time>2022-03-27T09:44:56Z</time>
      </trkpt>
      <trkpt lat="49.04993" lon="1.94911">
        <ele>41.8</ele>
        <time>2022-03-27T09:45:01Z</time>
      </trkpt>
      <trkpt lat="49.04998" lon="1.94908">
        <ele>42.1</ele>
        <time>2022-03-27T09:45:05Z</time>
      </trkpt>
      <trkpt lat="49.05002" lon="1.94906">
        <ele>41.7</ele>
        <time>2022-03-27T09:45:11Z</time>
      </trkpt>
      <trkpt lat="49.05006" lon="1.94902">
        <ele>40.4</ele>
        <time>2022-03-27T09:45:17Z</time>
      </trkpt>
      <trkpt lat="49.0501" lon="1.94896">
        <ele>40.2</ele>
        <time>2022-03-27T09:45:23Z</time>
      </trkpt>
      <trkpt lat="49.05014" lon="1.94892">
        <ele>40.8</ele>
        <time>2022-03-27T09:45:28Z</time>
      </trkpt>
      <trkpt lat="49.05019" lon="1.94889">
        <ele>41.2</ele>
        <time>2022-03-27T09:45:32Z</time>
      </trkpt>
      <trkpt lat="49.05024" lon="1.94887">
        <ele>40.2</ele>
        <time>2022-03-27T09:45:36Z</time>
      </trkpt>
      <trkpt lat="49.05028" lon="1.94884">
        <ele>39.1</ele>
        <time>2022-03-27T09:45:40Z</time>
      </trkpt>
      <trkpt lat="49.05034" lon="1.9488">
        <ele>38.8</ele>
        <time>2022-03-27T09:45:45Z</time>
      </trkpt>
      <trkpt lat="49.05038" lon="1.94875">
        <ele>38.8</ele>
        <time>2022-03-27T09:45:50Z</time>
      </trkpt>
      <trkpt lat="49.05042" lon="1.94871">
        <ele>39.3</ele>
        <time>2022-03-27T09:45:54Z</time>
      </trkpt>
      <trkpt lat="49.05046" lon="1.94867">
        <ele>40</ele>
        <time>2022-03-27T09:45:58Z</time>
      </trkpt>
      <trkpt lat="49.05051" lon="1.94863">
        <ele>40.6</ele>
        <time>2022-03-27T09:46:03Z</time>
      </trkpt>
      <trkpt lat="49.05056" lon="1.9486">
        <ele>40.6</ele>
        <time>2022-03-27T09:46:07Z</time>
      </trkpt>
      <trkpt lat="49.0506" lon="1.94855">
        <ele>42.4</ele>
        <time>2022-03-27T09:46:14Z</time>
      </trkpt>
      <trkpt lat="49.05065" lon="1.94857">
        <ele>42.8</ele>
        <time>2022-03-27T09:46:28Z</time>
      </trkpt>
      <trkpt lat="49.05068" lon="1.94862">
        <ele>43.1</ele>
        <time>2022-03-27T09:46:32Z</time>
      </trkpt>
      <trkpt lat="49.05072" lon="1.94868">
        <ele>43.4</ele>
        <time>2022-03-27T09:46:37Z</time>
      </trkpt>
      <trkpt lat="49.05074" lon="1.94873">
        <ele>43.3</ele>
        <time>2022-03-27T09:46:41Z</time>
      </trkpt>
      <trkpt lat="49.05078" lon="1.94878">
        <ele>42.9</ele>
        <time>2022-03-27T09:46:46Z</time>
      </trkpt>
      <trkpt lat="49.05083" lon="1.9488">
        <ele>42.5</ele>
        <time>2022-03-27T09:46:51Z</time>
      </trkpt>
      <trkpt lat="49.05087" lon="1.94876">
        <ele>42.4</ele>
        <time>2022-03-27T09:46:56Z</time>
      </trkpt>
      <trkpt lat="49.05088" lon="1.94868">
        <ele>42.4</ele>
        <time>2022-03-27T09:47:01Z</time>
      </trkpt>
      <trkpt lat="49.05093" lon="1.94863">
        <ele>42.5</ele>
        <time>2022-03-27T09:47:06Z</time>
      </trkpt>
      <trkpt lat="49.05097" lon="1.94859">
        <ele>42</ele>
        <time>2022-03-27T09:47:10Z</time>
      </trkpt>
      <trkpt lat="49.05101" lon="1.94853">
        <ele>42</ele>
        <time>2022-03-27T09:47:14Z</time>
      </trkpt>
      <trkpt lat="49.05105" lon="1.94847">
        <ele>41.6</ele>
        <time>2022-03-27T09:47:18Z</time>
      </trkpt>
      <trkpt lat="49.0511" lon="1.94841">
        <ele>40.8</ele>
        <time>2022-03-27T09:47:22Z</time>
      </trkpt>
      <trkpt lat="49.05108" lon="1.94832">
        <ele>40.5</ele>
        <time>2022-03-27T09:47:29Z</time>
      </trkpt>
      <trkpt lat="49.05109" lon="1.94824">
        <ele>40.8</ele>
        <time>2022-03-27T09:47:32Z</time>
      </trkpt>
      <trkpt lat="49.05112" lon="1.94818">
        <ele>41.1</ele>
        <time>2022-03-27T09:47:36Z</time>
      </trkpt>
      <trkpt lat="49.05119" lon="1.94813">
        <ele>41.1</ele>
        <time>2022-03-27T09:47:39Z</time>
      </trkpt>
      <trkpt lat="49.05124" lon="1.9481">
        <ele>40.7</ele>
        <time>2022-03-27T09:47:43Z</time>
      </trkpt>
      <trkpt lat="49.05128" lon="1.94806">
        <ele>39.8</ele>
        <time>2022-03-27T09:47:47Z</time>
      </trkpt>
      <trkpt lat="49.05132" lon="1.94801">
        <ele>39.1</ele>
        <time>2022-03-27T09:47:51Z</time>
      </trkpt>
      <trkpt lat="49.05136" lon="1.94795">
        <ele>39</ele>
        <time>2022-03-27T09:47:56Z</time>
      </trkpt>
      <trkpt lat="49.05139" lon="1.94791">
        <ele>38.9</ele>
        <time>2022-03-27T09:47:59Z</time>
      </trkpt>
      <trkpt lat="49.05144" lon="1.94786">
        <ele>38.3</ele>
        <time>2022-03-27T09:48:04Z</time>
      </trkpt>
      <trkpt lat="49.05149" lon="1.94781">
        <ele>38.3</ele>
        <time>2022-03-27T09:48:08Z</time>
      </trkpt>
      <trkpt lat="49.05154" lon="1.94776">
        <ele>39.4</ele>
        <time>2022-03-27T09:48:13Z</time>
      </trkpt>
      <trkpt lat="49.05158" lon="1.9477">
        <ele>40.6</ele>
        <time>2022-03-27T09:48:17Z</time>
      </trkpt>
      <trkpt lat="49.05162" lon="1.94765">
        <ele>41.6</ele>
        <time>2022-03-27T09:48:21Z</time>
      </trkpt>
      <trkpt lat="49.05167" lon="1.94762">
        <ele>42.2</ele>
        <time>2022-03-27T09:48:25Z</time>
      </trkpt>
      <trkpt lat="49.05171" lon="1.94758">
        <ele>42.5</ele>
        <time>2022-03-27T09:48:29Z</time>
      </trkpt>
      <trkpt lat="49.05176" lon="1.94755">
        <ele>43.1</ele>
        <time>2022-03-27T09:48:33Z</time>
      </trkpt>
      <trkpt lat="49.05181" lon="1.94752">
        <ele>44</ele>
        <time>2022-03-27T09:48:36Z</time>
      </trkpt>
      <trkpt lat="49.05186" lon="1.94748">
        <ele>45.5</ele>
        <time>2022-03-27T09:48:40Z</time>
      </trkpt>
      <trkpt lat="49.0519" lon="1.94743">
        <ele>45.7</ele>
        <time>2022-03-27T09:48:44Z</time>
      </trkpt>
      <trkpt lat="49.05194" lon="1.94737">
        <ele>44.1</ele>
        <time>2022-03-27T09:48:48Z</time>
      </trkpt>
      <trkpt lat="49.05198" lon="1.94731">
        <ele>42.3</ele>
        <time>2022-03-27T09:48:52Z</time>
      </trkpt>
      <trkpt lat="49.05201" lon="1.94726">
        <ele>42.5</ele>
        <time>2022-03-27T09:48:56Z</time>
      </trkpt>
      <trkpt lat="49.05205" lon="1.9472">
        <ele>42.7</ele>
        <time>2022-03-27T09:49:00Z</time>
      </trkpt>
      <trkpt lat="49.05209" lon="1.94715">
        <ele>42.3</ele>
        <time>2022-03-27T09:49:04Z</time>
      </trkpt>
      <trkpt lat="49.05213" lon="1.9471">
        <ele>42.2</ele>
        <time>2022-03-27T09:49:08Z</time>
      </trkpt>
      <trkpt lat="49.05215" lon="1.94701">
        <ele>42.4</ele>
        <time>2022-03-27T09:49:16Z</time>
      </trkpt>
      <trkpt lat="49.05219" lon="1.94694">
        <ele>42.3</ele>
        <time>2022-03-27T09:49:19Z</time>
      </trkpt>
      <trkpt lat="49.05222" lon="1.94686">
        <ele>41.9</ele>
        <time>2022-03-27T09:49:23Z</time>
      </trkpt>
      <trkpt lat="49.05224" lon="1.94678">
        <ele>41.5</ele>
        <time>2022-03-27T09:49:27Z</time>
      </trkpt>
      <trkpt lat="49.05228" lon="1.94673">
        <ele>41.4</ele>
        <time>2022-03-27T09:49:31Z</time>
      </trkpt>
      <trkpt lat="49.05231" lon="1.94666">
        <ele>41.5</ele>
        <time>2022-03-27T09:49:35Z</time>
      </trkpt>
      <trkpt lat="49.05234" lon="1.94658">
        <ele>41.6</ele>
        <time>2022-03-27T09:49:40Z</time>
      </trkpt>
      <trkpt lat="49.05237" lon="1.9465">
        <ele>41.5</ele>
        <time>2022-03-27T09:49:44Z</time>
      </trkpt>
      <trkpt lat="49.05239" lon="1.94644">
        <ele>41.5</ele>
        <time>2022-03-27T09:49:48Z</time>
      </trkpt>
      <trkpt lat="49.05243" lon="1.94637">
        <ele>41.5</ele>
        <time>2022-03-27T09:49:52Z</time>
      </trkpt>
      <trkpt lat="49.05246" lon="1.94631">
        <ele>41.3</ele>
        <time>2022-03-27T09:49:56Z</time>
      </trkpt>
      <trkpt lat="49.05249" lon="1.94625">
        <ele>40.9</ele>
        <time>2022-03-27T09:50:00Z</time>
      </trkpt>
      <trkpt lat="49.05251" lon="1.94618">
        <ele>40.5</ele>
        <time>2022-03-27T09:50:04Z</time>
      </trkpt>
      <trkpt lat="49.05254" lon="1.94612">
        <ele>40.1</ele>
        <time>2022-03-27T09:50:09Z</time>
      </trkpt>
      <trkpt lat="49.05257" lon="1.94607">
        <ele>40.1</ele>
        <time>2022-03-27T09:50:13Z</time>
      </trkpt>
      <trkpt lat="49.05261" lon="1.946">
        <ele>40</ele>
        <time>2022-03-27T09:50:17Z</time>
      </trkpt>
      <trkpt lat="49.05262" lon="1.94593">
        <ele>40.1</ele>
        <time>2022-03-27T09:50:21Z</time>
      </trkpt>
      <trkpt lat="49.05264" lon="1.94587">
        <ele>39.8</ele>
        <time>2022-03-27T09:50:25Z</time>
      </trkpt>
      <trkpt lat="49.05269" lon="1.94587">
        <ele>39.2</ele>
        <time>2022-03-27T09:50:30Z</time>
      </trkpt>
      <trkpt lat="49.05272" lon="1.94581">
        <ele>39.2</ele>
        <time>2022-03-27T09:50:35Z</time>
      </trkpt>
      <trkpt lat="49.05275" lon="1.94573">
        <ele>39.2</ele>
        <time>2022-03-27T09:50:39Z</time>
      </trkpt>
      <trkpt lat="49.05277" lon="1.94568">
        <ele>39.6</ele>
        <time>2022-03-27T09:50:43Z</time>
      </trkpt>
      <trkpt lat="49.05281" lon="1.94561">
        <ele>39.8</ele>
        <time>2022-03-27T09:50:47Z</time>
      </trkpt>
      <trkpt lat="49.05284" lon="1.94554">
        <ele>40.1</ele>
        <time>2022-03-27T09:50:51Z</time>
      </trkpt>
      <trkpt lat="49.05287" lon="1.94547">
        <ele>40.7</ele>
        <time>2022-03-27T09:50:55Z</time>
      </trkpt>
      <trkpt lat="49.05289" lon="1.94541">
        <ele>40.4</ele>
        <time>2022-03-27T09:50:59Z</time>
      </trkpt>
      <trkpt lat="49.05292" lon="1.94534">
        <ele>39.5</ele>
        <time>2022-03-27T09:51:03Z</time>
      </trkpt>
      <trkpt lat="49.05295" lon="1.94528">
        <ele>38.8</ele>
        <time>2022-03-27T09:51:07Z</time>
      </trkpt>
      <trkpt lat="49.05298" lon="1.94522">
        <ele>39.1</ele>
        <time>2022-03-27T09:51:11Z</time>
      </trkpt>
      <trkpt lat="49.053" lon="1.94514">
        <ele>40.2</ele>
        <time>2022-03-27T09:51:16Z</time>
      </trkpt>
      <trkpt lat="49.05304" lon="1.94509">
        <ele>40.6</ele>
        <time>2022-03-27T09:51:20Z</time>
      </trkpt>
      <trkpt lat="49.05307" lon="1.94503">
        <ele>40.7</ele>
        <time>2022-03-27T09:51:23Z</time>
      </trkpt>
      <trkpt lat="49.05311" lon="1.94496">
        <ele>40.8</ele>
        <time>2022-03-27T09:51:27Z</time>
      </trkpt>
      <trkpt lat="49.05314" lon="1.94489">
        <ele>40.7</ele>
        <time>2022-03-27T09:51:31Z</time>
      </trkpt>
      <trkpt lat="49.05317" lon="1.94483">
        <ele>41</ele>
        <time>2022-03-27T09:51:35Z</time>
      </trkpt>
      <trkpt lat="49.05321" lon="1.94476">
        <ele>41.5</ele>
        <time>2022-03-27T09:51:39Z</time>
      </trkpt>
      <trkpt lat="49.05325" lon="1.9447">
        <ele>41.5</ele>
        <time>2022-03-27T09:51:43Z</time>
      </trkpt>
      <trkpt lat="49.05327" lon="1.94463">
        <ele>41.7</ele>
        <time>2022-03-27T09:51:48Z</time>
      </trkpt>
      <trkpt lat="49.05331" lon="1.94456">
        <ele>42.1</ele>
        <time>2022-03-27T09:51:52Z</time>
      </trkpt>
      <trkpt lat="49.05333" lon="1.9445">
        <ele>42.3</ele>
        <time>2022-03-27T09:51:56Z</time>
      </trkpt>
      <trkpt lat="49.05336" lon="1.94444">
        <ele>42.4</ele>
        <time>2022-03-27T09:51:59Z</time>
      </trkpt>
      <trkpt lat="49.05338" lon="1.94437">
        <ele>42.2</ele>
        <time>2022-03-27T09:52:03Z</time>
      </trkpt>
      <trkpt lat="49.05341" lon="1.94431">
        <ele>41.7</ele>
        <time>2022-03-27T09:52:07Z</time>
      </trkpt>
      <trkpt lat="49.05345" lon="1.94424">
        <ele>41.6</ele>
        <time>2022-03-27T09:52:12Z</time>
      </trkpt>
      <trkpt lat="49.05347" lon="1.94418">
        <ele>41.7</ele>
        <time>2022-03-27T09:52:15Z</time>
      </trkpt>
      <trkpt lat="49.0535" lon="1.94412">
        <ele>41.7</ele>
        <time>2022-03-27T09:52:18Z</time>
      </trkpt>
      <trkpt lat="49.05353" lon="1.94406">
        <ele>41.7</ele>
        <time>2022-03-27T09:52:22Z</time>
      </trkpt>
      <trkpt lat="49.05355" lon="1.944">
        <ele>41.6</ele>
        <time>2022-03-27T09:52:26Z</time>
      </trkpt>
      <trkpt lat="49.05358" lon="1.94392">
        <ele>41.2</ele>
        <time>2022-03-27T09:52:31Z</time>
      </trkpt>
      <trkpt lat="49.05361" lon="1.94385">
        <ele>40.8</ele>
        <time>2022-03-27T09:52:34Z</time>
      </trkpt>
      <trkpt lat="49.05363" lon="1.94377">
        <ele>40.6</ele>
        <time>2022-03-27T09:52:39Z</time>
      </trkpt>
      <trkpt lat="49.05365" lon="1.9437">
        <ele>40.9</ele>
        <time>2022-03-27T09:52:43Z</time>
      </trkpt>
      <trkpt lat="49.05367" lon="1.94363">
        <ele>41.4</ele>
        <time>2022-03-27T09:52:47Z</time>
      </trkpt>
      <trkpt lat="49.05369" lon="1.94356">
        <ele>42</ele>
        <time>2022-03-27T09:52:50Z</time>
      </trkpt>
      <trkpt lat="49.0537" lon="1.94348">
        <ele>42.7</ele>
        <time>2022-03-27T09:52:54Z</time>
      </trkpt>
      <trkpt lat="49.05371" lon="1.94341">
        <ele>43</ele>
        <time>2022-03-27T09:52:57Z</time>
      </trkpt>
      <trkpt lat="49.05373" lon="1.94333">
        <ele>43.4</ele>
        <time>2022-03-27T09:53:01Z</time>
      </trkpt>
      <trkpt lat="49.05374" lon="1.94325">
        <ele>44</ele>
        <time>2022-03-27T09:53:06Z</time>
      </trkpt>
      <trkpt lat="49.05376" lon="1.94318">
        <ele>44.4</ele>
        <time>2022-03-27T09:53:09Z</time>
      </trkpt>
      <trkpt lat="49.05378" lon="1.94311">
        <ele>44.8</ele>
        <time>2022-03-27T09:53:13Z</time>
      </trkpt>
      <trkpt lat="49.0538" lon="1.94304">
        <ele>45.1</ele>
        <time>2022-03-27T09:53:17Z</time>
      </trkpt>
      <trkpt lat="49.05382" lon="1.94297">
        <ele>45.3</ele>
        <time>2022-03-27T09:53:21Z</time>
      </trkpt>
      <trkpt lat="49.05382" lon="1.94289">
        <ele>45.2</ele>
        <time>2022-03-27T09:53:25Z</time>
      </trkpt>
      <trkpt lat="49.05384" lon="1.94281">
        <ele>44.6</ele>
        <time>2022-03-27T09:53:29Z</time>
      </trkpt>
      <trkpt lat="49.05385" lon="1.94274">
        <ele>43.9</ele>
        <time>2022-03-27T09:53:33Z</time>
      </trkpt>
      <trkpt lat="49.05387" lon="1.94266">
        <ele>43.5</ele>
        <time>2022-03-27T09:53:37Z</time>
      </trkpt>
      <trkpt lat="49.05387" lon="1.94259">
        <ele>43</ele>
        <time>2022-03-27T09:53:41Z</time>
      </trkpt>
      <trkpt lat="49.05388" lon="1.94251">
        <ele>42.7</ele>
        <time>2022-03-27T09:53:45Z</time>
      </trkpt>
      <trkpt lat="49.0539" lon="1.94244">
        <ele>42.2</ele>
        <time>2022-03-27T09:53:49Z</time>
      </trkpt>
      <trkpt lat="49.0539" lon="1.94235">
        <ele>41.5</ele>
        <time>2022-03-27T09:53:53Z</time>
      </trkpt>
      <trkpt lat="49.0539" lon="1.94225">
        <ele>40.6</ele>
        <time>2022-03-27T09:53:58Z</time>
      </trkpt>
      <trkpt lat="49.05391" lon="1.94218">
        <ele>39.9</ele>
        <time>2022-03-27T09:54:01Z</time>
      </trkpt>
      <trkpt lat="49.05393" lon="1.94211">
        <ele>39.7</ele>
        <time>2022-03-27T09:54:05Z</time>
      </trkpt>
      <trkpt lat="49.05396" lon="1.94204">
        <ele>40.7</ele>
        <time>2022-03-27T09:54:09Z</time>
      </trkpt>
      <trkpt lat="49.05397" lon="1.94197">
        <ele>41.4</ele>
        <time>2022-03-27T09:54:13Z</time>
      </trkpt>
      <trkpt lat="49.05399" lon="1.9419">
        <ele>41.8</ele>
        <time>2022-03-27T09:54:16Z</time>
      </trkpt>
      <trkpt lat="49.05401" lon="1.94184">
        <ele>41.9</ele>
        <time>2022-03-27T09:54:19Z</time>
      </trkpt>
      <trkpt lat="49.05402" lon="1.94176">
        <ele>41.6</ele>
        <time>2022-03-27T09:54:23Z</time>
      </trkpt>
      <trkpt lat="49.05404" lon="1.94168">
        <ele>40.9</ele>
        <time>2022-03-27T09:54:28Z</time>
      </trkpt>
      <trkpt lat="49.05406" lon="1.94159">
        <ele>40.9</ele>
        <time>2022-03-27T09:54:34Z</time>
      </trkpt>
      <trkpt lat="49.05407" lon="1.94152">
        <ele>41.4</ele>
        <time>2022-03-27T09:54:37Z</time>
      </trkpt>
      <trkpt lat="49.05408" lon="1.94144">
        <ele>43.5</ele>
        <time>2022-03-27T09:54:42Z</time>
      </trkpt>
      <trkpt lat="49.05411" lon="1.94135">
        <ele>45.5</ele>
        <time>2022-03-27T09:54:46Z</time>
      </trkpt>
      <trkpt lat="49.05413" lon="1.94129">
        <ele>45.8</ele>
        <time>2022-03-27T09:54:50Z</time>
      </trkpt>
      <trkpt lat="49.05416" lon="1.94121">
        <ele>46</ele>
        <time>2022-03-27T09:54:55Z</time>
      </trkpt>
      <trkpt lat="49.05418" lon="1.94113">
        <ele>46.1</ele>
        <time>2022-03-27T09:55:00Z</time>
      </trkpt>
      <trkpt lat="49.05419" lon="1.94106">
        <ele>46.5</ele>
        <time>2022-03-27T09:55:04Z</time>
      </trkpt>
      <trkpt lat="49.05421" lon="1.94098">
        <ele>46.3</ele>
        <time>2022-03-27T09:55:09Z</time>
      </trkpt>
      <trkpt lat="49.05424" lon="1.94092">
        <ele>45.9</ele>
        <time>2022-03-27T09:55:13Z</time>
      </trkpt>
      <trkpt lat="49.05426" lon="1.94085">
        <ele>45.5</ele>
        <time>2022-03-27T09:55:16Z</time>
      </trkpt>
      <trkpt lat="49.05428" lon="1.94077">
        <ele>45</ele>
        <time>2022-03-27T09:55:22Z</time>
      </trkpt>
      <trkpt lat="49.0543" lon="1.9407">
        <ele>44.1</ele>
        <time>2022-03-27T09:55:26Z</time>
      </trkpt>
      <trkpt lat="49.05433" lon="1.94061">
        <ele>43.4</ele>
        <time>2022-03-27T09:55:31Z</time>
      </trkpt>
      <trkpt lat="49.05436" lon="1.94054">
        <ele>43.1</ele>
        <time>2022-03-27T09:55:35Z</time>
      </trkpt>
      <trkpt lat="49.05438" lon="1.94047">
        <ele>43.1</ele>
        <time>2022-03-27T09:55:40Z</time>
      </trkpt>
      <trkpt lat="49.0544" lon="1.94041">
        <ele>43.2</ele>
        <time>2022-03-27T09:55:43Z</time>
      </trkpt>
      <trkpt lat="49.05443" lon="1.94034">
        <ele>43.3</ele>
        <time>2022-03-27T09:55:47Z</time>
      </trkpt>
      <trkpt lat="49.05446" lon="1.94028">
        <ele>43.5</ele>
        <time>2022-03-27T09:55:51Z</time>
      </trkpt>
      <trkpt lat="49.05449" lon="1.94022">
        <ele>43.6</ele>
        <time>2022-03-27T09:55:55Z</time>
      </trkpt>
      <trkpt lat="49.05451" lon="1.94015">
        <ele>43.4</ele>
        <time>2022-03-27T09:55:59Z</time>
      </trkpt>
      <trkpt lat="49.05453" lon="1.94008">
        <ele>42.5</ele>
        <time>2022-03-27T09:56:03Z</time>
      </trkpt>
      <trkpt lat="49.05456" lon="1.94001">
        <ele>41.5</ele>
        <time>2022-03-27T09:56:07Z</time>
      </trkpt>
      <trkpt lat="49.05459" lon="1.93995">
        <ele>41.3</ele>
        <time>2022-03-27T09:56:11Z</time>
      </trkpt>
      <trkpt lat="49.05461" lon="1.93987">
        <ele>41.6</ele>
        <time>2022-03-27T09:56:16Z</time>
      </trkpt>
      <trkpt lat="49.05463" lon="1.9398">
        <ele>42.2</ele>
        <time>2022-03-27T09:56:20Z</time>
      </trkpt>
      <trkpt lat="49.05465" lon="1.93974">
        <ele>42.8</ele>
        <time>2022-03-27T09:56:23Z</time>
      </trkpt>
      <trkpt lat="49.05468" lon="1.93968">
        <ele>43.3</ele>
        <time>2022-03-27T09:56:27Z</time>
      </trkpt>
      <trkpt lat="49.05472" lon="1.93961">
        <ele>43.4</ele>
        <time>2022-03-27T09:56:31Z</time>
      </trkpt>
      <trkpt lat="49.05475" lon="1.93955">
        <ele>43.2</ele>
        <time>2022-03-27T09:56:35Z</time>
      </trkpt>
      <trkpt lat="49.05478" lon="1.93949">
        <ele>42.5</ele>
        <time>2022-03-27T09:56:39Z</time>
      </trkpt>
      <trkpt lat="49.05481" lon="1.93943">
        <ele>42.2</ele>
        <time>2022-03-27T09:56:43Z</time>
      </trkpt>
      <trkpt lat="49.05483" lon="1.93936">
        <ele>42</ele>
        <time>2022-03-27T09:56:47Z</time>
      </trkpt>
      <trkpt lat="49.05485" lon="1.93929">
        <ele>42</ele>
        <time>2022-03-27T09:56:51Z</time>
      </trkpt>
      <trkpt lat="49.05489" lon="1.93922">
        <ele>42.4</ele>
        <time>2022-03-27T09:56:55Z</time>
      </trkpt>
      <trkpt lat="49.05491" lon="1.93915">
        <ele>43.3</ele>
        <time>2022-03-27T09:56:59Z</time>
      </trkpt>
      <trkpt lat="49.05493" lon="1.93908">
        <ele>43.5</ele>
        <time>2022-03-27T09:57:03Z</time>
      </trkpt>
      <trkpt lat="49.05496" lon="1.93902">
        <ele>43.7</ele>
        <time>2022-03-27T09:57:07Z</time>
      </trkpt>
      <trkpt lat="49.055" lon="1.93896">
        <ele>44.7</ele>
        <time>2022-03-27T09:57:11Z</time>
      </trkpt>
      <trkpt lat="49.05503" lon="1.9389">
        <ele>45.6</ele>
        <time>2022-03-27T09:57:15Z</time>
      </trkpt>
      <trkpt lat="49.05505" lon="1.93882">
        <ele>45.5</ele>
        <time>2022-03-27T09:57:19Z</time>
      </trkpt>
      <trkpt lat="49.05507" lon="1.93875">
        <ele>45</ele>
        <time>2022-03-27T09:57:23Z</time>
      </trkpt>
      <trkpt lat="49.0551" lon="1.93869">
        <ele>44.8</ele>
        <time>2022-03-27T09:57:27Z</time>
      </trkpt>
      <trkpt lat="49.05512" lon="1.93863">
        <ele>44.6</ele>
        <time>2022-03-27T09:57:30Z</time>
      </trkpt>
      <trkpt lat="49.05516" lon="1.93856">
        <ele>44.4</ele>
        <time>2022-03-27T09:57:35Z</time>
      </trkpt>
      <trkpt lat="49.05519" lon="1.93849">
        <ele>43.9</ele>
        <time>2022-03-27T09:57:39Z</time>
      </trkpt>
      <trkpt lat="49.05522" lon="1.93843">
        <ele>44</ele>
        <time>2022-03-27T09:57:43Z</time>
      </trkpt>
      <trkpt lat="49.05525" lon="1.93837">
        <ele>44.4</ele>
        <time>2022-03-27T09:57:48Z</time>
      </trkpt>
      <trkpt lat="49.05527" lon="1.93829">
        <ele>44.8</ele>
        <time>2022-03-27T09:57:53Z</time>
      </trkpt>
      <trkpt lat="49.0553" lon="1.93822">
        <ele>44.7</ele>
        <time>2022-03-27T09:57:57Z</time>
      </trkpt>
      <trkpt lat="49.05533" lon="1.93816">
        <ele>43.7</ele>
        <time>2022-03-27T09:58:01Z</time>
      </trkpt>
      <trkpt lat="49.05536" lon="1.93809">
        <ele>42.7</ele>
        <time>2022-03-27T09:58:05Z</time>
      </trkpt>
      <trkpt lat="49.05539" lon="1.93803">
        <ele>42.8</ele>
        <time>2022-03-27T09:58:09Z</time>
      </trkpt>
      <trkpt lat="49.05543" lon="1.93798">
        <ele>43.1</ele>
        <time>2022-03-27T09:58:13Z</time>
      </trkpt>
      <trkpt lat="49.05546" lon="1.93791">
        <ele>43.2</ele>
        <time>2022-03-27T09:58:17Z</time>
      </trkpt>
      <trkpt lat="49.05549" lon="1.93785">
        <ele>43</ele>
        <time>2022-03-27T09:58:21Z</time>
      </trkpt>
      <trkpt lat="49.05552" lon="1.93778">
        <ele>43.4</ele>
        <time>2022-03-27T09:58:25Z</time>
      </trkpt>
      <trkpt lat="49.05555" lon="1.93772">
        <ele>43.3</ele>
        <time>2022-03-27T09:58:29Z</time>
      </trkpt>
      <trkpt lat="49.05559" lon="1.93766">
        <ele>42.8</ele>
        <time>2022-03-27T09:58:33Z</time>
      </trkpt>
      <trkpt lat="49.05562" lon="1.9376">
        <ele>42.5</ele>
        <time>2022-03-27T09:58:37Z</time>
      </trkpt>
      <trkpt lat="49.05565" lon="1.93754">
        <ele>43.1</ele>
        <time>2022-03-27T09:58:41Z</time>
      </trkpt>
      <trkpt lat="49.05569" lon="1.93748">
        <ele>44.4</ele>
        <time>2022-03-27T09:58:45Z</time>
      </trkpt>
      <trkpt lat="49.05573" lon="1.93743">
        <ele>45.1</ele>
        <time>2022-03-27T09:58:49Z</time>
      </trkpt>
      <trkpt lat="49.05576" lon="1.93737">
        <ele>45</ele>
        <time>2022-03-27T09:58:53Z</time>
      </trkpt>
      <trkpt lat="49.05579" lon="1.9373">
        <ele>44</ele>
        <time>2022-03-27T09:58:57Z</time>
      </trkpt>
      <trkpt lat="49.05582" lon="1.93723">
        <ele>43.4</ele>
        <time>2022-03-27T09:59:01Z</time>
      </trkpt>
      <trkpt lat="49.05586" lon="1.93719">
        <ele>43.4</ele>
        <time>2022-03-27T09:59:05Z</time>
      </trkpt>
      <trkpt lat="49.0559" lon="1.93715">
        <ele>43.7</ele>
        <time>2022-03-27T09:59:09Z</time>
      </trkpt>
      <trkpt lat="49.05594" lon="1.9371">
        <ele>43.9</ele>
        <time>2022-03-27T09:59:13Z</time>
      </trkpt>
      <trkpt lat="49.05598" lon="1.93705">
        <ele>43.9</ele>
        <time>2022-03-27T09:59:17Z</time>
      </trkpt>
      <trkpt lat="49.05602" lon="1.93699">
        <ele>43.9</ele>
        <time>2022-03-27T09:59:21Z</time>
      </trkpt>
      <trkpt lat="49.05605" lon="1.93693">
        <ele>44</ele>
        <time>2022-03-27T09:59:25Z</time>
      </trkpt>
      <trkpt lat="49.05608" lon="1.93687">
        <ele>44.6</ele>
        <time>2022-03-27T09:59:29Z</time>
      </trkpt>
      <trkpt lat="49.05612" lon="1.93681">
        <ele>45.1</ele>
        <time>2022-03-27T09:59:33Z</time>
      </trkpt>
      <trkpt lat="49.05616" lon="1.93675">
        <ele>45.1</ele>
        <time>2022-03-27T09:59:38Z</time>
      </trkpt>
      <trkpt lat="49.05621" lon="1.9367">
        <ele>45.3</ele>
        <time>2022-03-27T09:59:42Z</time>
      </trkpt>
      <trkpt lat="49.05624" lon="1.93664">
        <ele>45.6</ele>
        <time>2022-03-27T09:59:46Z</time>
      </trkpt>
      <trkpt lat="49.05628" lon="1.93659">
        <ele>45.9</ele>
        <time>2022-03-27T09:59:50Z</time>
      </trkpt>
      <trkpt lat="49.05632" lon="1.93653">
        <ele>45.4</ele>
        <time>2022-03-27T09:59:55Z</time>
      </trkpt>
      <trkpt lat="49.05636" lon="1.93648">
        <ele>45.2</ele>
        <time>2022-03-27T09:59:58Z</time>
      </trkpt>
      <trkpt lat="49.0564" lon="1.93642">
        <ele>44.4</ele>
        <time>2022-03-27T10:00:03Z</time>
      </trkpt>
      <trkpt lat="49.05644" lon="1.93637">
        <ele>43.8</ele>
        <time>2022-03-27T10:00:07Z</time>
      </trkpt>
      <trkpt lat="49.05648" lon="1.93634">
        <ele>43.8</ele>
        <time>2022-03-27T10:00:11Z</time>
      </trkpt>
      <trkpt lat="49.05652" lon="1.93629">
        <ele>44.1</ele>
        <time>2022-03-27T10:00:15Z</time>
      </trkpt>
      <trkpt lat="49.05657" lon="1.93626">
        <ele>45.1</ele>
        <time>2022-03-27T10:00:19Z</time>
      </trkpt>
      <trkpt lat="49.05661" lon="1.93621">
        <ele>46.8</ele>
        <time>2022-03-27T10:00:23Z</time>
      </trkpt>
      <trkpt lat="49.05665" lon="1.93617">
        <ele>47.5</ele>
        <time>2022-03-27T10:00:27Z</time>
      </trkpt>
      <trkpt lat="49.05669" lon="1.93612">
        <ele>47</ele>
        <time>2022-03-27T10:00:31Z</time>
      </trkpt>
      <trkpt lat="49.05673" lon="1.93608">
        <ele>45.9</ele>
        <time>2022-03-27T10:00:35Z</time>
      </trkpt>
      <trkpt lat="49.05677" lon="1.93603">
        <ele>45.1</ele>
        <time>2022-03-27T10:00:39Z</time>
      </trkpt>
      <trkpt lat="49.05681" lon="1.93599">
        <ele>44.2</ele>
        <time>2022-03-27T10:00:43Z</time>
      </trkpt>
      <trkpt lat="49.05686" lon="1.93595">
        <ele>44.2</ele>
        <time>2022-03-27T10:00:47Z</time>
      </trkpt>
      <trkpt lat="49.0569" lon="1.93591">
        <ele>44</ele>
        <time>2022-03-27T10:00:51Z</time>
      </trkpt>
      <trkpt lat="49.05695" lon="1.93586">
        <ele>43.7</ele>
        <time>2022-03-27T10:00:55Z</time>
      </trkpt>
      <trkpt lat="49.05699" lon="1.93583">
        <ele>42.7</ele>
        <time>2022-03-27T10:00:59Z</time>
      </trkpt>
      <trkpt lat="49.05704" lon="1.93579">
        <ele>42.2</ele>
        <time>2022-03-27T10:01:03Z</time>
      </trkpt>
      <trkpt lat="49.05709" lon="1.93575">
        <ele>42.8</ele>
        <time>2022-03-27T10:01:07Z</time>
      </trkpt>
      <trkpt lat="49.05708" lon="1.93566">
        <ele>43.7</ele>
        <time>2022-03-27T10:01:11Z</time>
      </trkpt>
      <trkpt lat="49.05708" lon="1.93559">
        <ele>44.8</ele>
        <time>2022-03-27T10:01:17Z</time>
      </trkpt>
      <trkpt lat="49.05713" lon="1.93559">
        <ele>44.8</ele>
        <time>2022-03-27T10:01:21Z</time>
      </trkpt>
      <trkpt lat="49.05719" lon="1.93557">
        <ele>44.2</ele>
        <time>2022-03-27T10:01:25Z</time>
      </trkpt>
      <trkpt lat="49.05724" lon="1.93554">
        <ele>43.7</ele>
        <time>2022-03-27T10:01:29Z</time>
      </trkpt>
      <trkpt lat="49.05728" lon="1.93552">
        <ele>42.4</ele>
        <time>2022-03-27T10:01:33Z</time>
      </trkpt>
      <trkpt lat="49.05733" lon="1.93548">
        <ele>41</ele>
        <time>2022-03-27T10:01:37Z</time>
      </trkpt>
      <trkpt lat="49.05736" lon="1.93542">
        <ele>40.5</ele>
        <time>2022-03-27T10:01:41Z</time>
      </trkpt>
      <trkpt lat="49.05741" lon="1.93537">
        <ele>40.6</ele>
        <time>2022-03-27T10:01:45Z</time>
      </trkpt>
      <trkpt lat="49.05746" lon="1.93534">
        <ele>40.7</ele>
        <time>2022-03-27T10:01:49Z</time>
      </trkpt>
      <trkpt lat="49.0575" lon="1.93529">
        <ele>41.2</ele>
        <time>2022-03-27T10:01:53Z</time>
      </trkpt>
      <trkpt lat="49.05755" lon="1.93525">
        <ele>41.8</ele>
        <time>2022-03-27T10:01:57Z</time>
      </trkpt>
      <trkpt lat="49.0576" lon="1.93521">
        <ele>41.6</ele>
        <time>2022-03-27T10:02:01Z</time>
      </trkpt>
      <trkpt lat="49.05764" lon="1.93517">
        <ele>40.7</ele>
        <time>2022-03-27T10:02:05Z</time>
      </trkpt>
      <trkpt lat="49.05768" lon="1.93512">
        <ele>40.7</ele>
        <time>2022-03-27T10:02:09Z</time>
      </trkpt>
      <trkpt lat="49.05773" lon="1.93507">
        <ele>41.4</ele>
        <time>2022-03-27T10:02:14Z</time>
      </trkpt>
      <trkpt lat="49.05778" lon="1.93503">
        <ele>42</ele>
        <time>2022-03-27T10:02:18Z</time>
      </trkpt>
      <trkpt lat="49.05783" lon="1.93499">
        <ele>42.5</ele>
        <time>2022-03-27T10:02:22Z</time>
      </trkpt>
      <trkpt lat="49.05787" lon="1.93495">
        <ele>41.8</ele>
        <time>2022-03-27T10:02:26Z</time>
      </trkpt>
      <trkpt lat="49.05792" lon="1.93492">
        <ele>41.4</ele>
        <time>2022-03-27T10:02:30Z</time>
      </trkpt>
      <trkpt lat="49.05797" lon="1.9349">
        <ele>40.8</ele>
        <time>2022-03-27T10:02:35Z</time>
      </trkpt>
      <trkpt lat="49.05802" lon="1.93487">
        <ele>40.2</ele>
        <time>2022-03-27T10:02:39Z</time>
      </trkpt>
      <trkpt lat="49.05806" lon="1.93484">
        <ele>40.2</ele>
        <time>2022-03-27T10:02:42Z</time>
      </trkpt>
      <trkpt lat="49.05811" lon="1.9348">
        <ele>40.6</ele>
        <time>2022-03-27T10:02:46Z</time>
      </trkpt>
      <trkpt lat="49.05816" lon="1.93477">
        <ele>42.2</ele>
        <time>2022-03-27T10:02:50Z</time>
      </trkpt>
      <trkpt lat="49.05821" lon="1.93474">
        <ele>43.4</ele>
        <time>2022-03-27T10:02:54Z</time>
      </trkpt>
      <trkpt lat="49.05825" lon="1.93471">
        <ele>43.7</ele>
        <time>2022-03-27T10:02:58Z</time>
      </trkpt>
      <trkpt lat="49.0583" lon="1.93468">
        <ele>44</ele>
        <time>2022-03-27T10:03:02Z</time>
      </trkpt>
      <trkpt lat="49.05836" lon="1.93466">
        <ele>44.3</ele>
        <time>2022-03-27T10:03:06Z</time>
      </trkpt>
      <trkpt lat="49.05842" lon="1.93461">
        <ele>43.4</ele>
        <time>2022-03-27T10:03:11Z</time>
      </trkpt>
      <trkpt lat="49.05847" lon="1.93456">
        <ele>41.8</ele>
        <time>2022-03-27T10:03:16Z</time>
      </trkpt>
      <trkpt lat="49.05851" lon="1.93454">
        <ele>42</ele>
        <time>2022-03-27T10:03:19Z</time>
      </trkpt>
      <trkpt lat="49.05856" lon="1.93451">
        <ele>42.4</ele>
        <time>2022-03-27T10:03:23Z</time>
      </trkpt>
      <trkpt lat="49.0586" lon="1.93449">
        <ele>42.1</ele>
        <time>2022-03-27T10:03:27Z</time>
      </trkpt>
      <trkpt lat="49.05865" lon="1.93446">
        <ele>42.1</ele>
        <time>2022-03-27T10:03:31Z</time>
      </trkpt>
      <trkpt lat="49.0587" lon="1.93442">
        <ele>43.2</ele>
        <time>2022-03-27T10:03:35Z</time>
      </trkpt>
      <trkpt lat="49.05875" lon="1.9344">
        <ele>43.1</ele>
        <time>2022-03-27T10:03:39Z</time>
      </trkpt>
      <trkpt lat="49.0588" lon="1.93437">
        <ele>42.4</ele>
        <time>2022-03-27T10:03:43Z</time>
      </trkpt>
      <trkpt lat="49.05885" lon="1.93435">
        <ele>42.2</ele>
        <time>2022-03-27T10:03:47Z</time>
      </trkpt>
      <trkpt lat="49.0589" lon="1.93432">
        <ele>42.4</ele>
        <time>2022-03-27T10:03:51Z</time>
      </trkpt>
      <trkpt lat="49.05894" lon="1.93427">
        <ele>43.3</ele>
        <time>2022-03-27T10:03:59Z</time>
      </trkpt>
      <trkpt lat="49.05899" lon="1.93426">
        <ele>43.7</ele>
        <time>2022-03-27T10:04:02Z</time>
      </trkpt>
      <trkpt lat="49.05905" lon="1.93426">
        <ele>43.7</ele>
        <time>2022-03-27T10:04:06Z</time>
      </trkpt>
      <trkpt lat="49.0591" lon="1.93425">
        <ele>43.5</ele>
        <time>2022-03-27T10:04:10Z</time>
      </trkpt>
      <trkpt lat="49.05915" lon="1.93423">
        <ele>43.2</ele>
        <time>2022-03-27T10:04:14Z</time>
      </trkpt>
      <trkpt lat="49.05919" lon="1.93421">
        <ele>43.2</ele>
        <time>2022-03-27T10:04:19Z</time>
      </trkpt>
      <trkpt lat="49.05925" lon="1.93419">
        <ele>43.6</ele>
        <time>2022-03-27T10:04:23Z</time>
      </trkpt>
      <trkpt lat="49.05928" lon="1.93413">
        <ele>44.4</ele>
        <time>2022-03-27T10:04:27Z</time>
      </trkpt>
      <trkpt lat="49.05933" lon="1.93412">
        <ele>45.1</ele>
        <time>2022-03-27T10:04:32Z</time>
      </trkpt>
      <trkpt lat="49.05938" lon="1.93411">
        <ele>45.1</ele>
        <time>2022-03-27T10:04:37Z</time>
      </trkpt>
      <trkpt lat="49.05943" lon="1.93411">
        <ele>45.4</ele>
        <time>2022-03-27T10:04:41Z</time>
      </trkpt>
      <trkpt lat="49.05949" lon="1.93408">
        <ele>46.1</ele>
        <time>2022-03-27T10:04:47Z</time>
      </trkpt>
      <trkpt lat="49.05953" lon="1.93406">
        <ele>46.3</ele>
        <time>2022-03-27T10:04:51Z</time>
      </trkpt>
      <trkpt lat="49.05958" lon="1.93405">
        <ele>46</ele>
        <time>2022-03-27T10:04:56Z</time>
      </trkpt>
      <trkpt lat="49.05962" lon="1.93401">
        <ele>46.4</ele>
        <time>2022-03-27T10:05:02Z</time>
      </trkpt>
      <trkpt lat="49.05965" lon="1.93394">
        <ele>46.9</ele>
        <time>2022-03-27T10:05:24Z</time>
      </trkpt>
      <trkpt lat="49.05968" lon="1.93387">
        <ele>46.3</ele>
        <time>2022-03-27T10:05:29Z</time>
      </trkpt>
      <trkpt lat="49.05968" lon="1.93379">
        <ele>46.9</ele>
        <time>2022-03-27T10:05:34Z</time>
      </trkpt>
      <trkpt lat="49.05968" lon="1.93371">
        <ele>46.7</ele>
        <time>2022-03-27T10:05:39Z</time>
      </trkpt>
      <trkpt lat="49.05969" lon="1.93361">
        <ele>46</ele>
        <time>2022-03-27T10:05:45Z</time>
      </trkpt>
      <trkpt lat="49.05969" lon="1.93354">
        <ele>45.3</ele>
        <time>2022-03-27T10:05:51Z</time>
      </trkpt>
      <trkpt lat="49.05967" lon="1.93346">
        <ele>44.5</ele>
        <time>2022-03-27T10:05:57Z</time>
      </trkpt>
      <trkpt lat="49.05965" lon="1.93353">
        <ele>43.8</ele>
        <time>2022-03-27T10:06:12Z</time>
      </trkpt>
      <trkpt lat="49.0597" lon="1.93351">
        <ele>44.5</ele>
        <time>2022-03-27T10:06:44Z</time>
      </trkpt>
      <trkpt lat="49.05971" lon="1.93345">
        <ele>45.1</ele>
        <time>2022-03-27T10:06:50Z</time>
      </trkpt>
      <trkpt lat="49.05973" lon="1.93338">
        <ele>46</ele>
        <time>2022-03-27T10:06:57Z</time>
      </trkpt>
      <trkpt lat="49.05972" lon="1.93331">
        <ele>45.5</ele>
        <time>2022-03-27T10:07:16Z</time>
      </trkpt>
      <trkpt lat="49.05972" lon="1.93323">
        <ele>45.5</ele>
        <time>2022-03-27T10:07:30Z</time>
      </trkpt>
      <trkpt lat="49.05972" lon="1.93315">
        <ele>45.4</ele>
        <time>2022-03-27T10:07:37Z</time>
      </trkpt>
      <trkpt lat="49.05973" lon="1.93309">
        <ele>45.2</ele>
        <time>2022-03-27T10:07:42Z</time>
      </trkpt>
      <trkpt lat="49.05974" lon="1.93301">
        <ele>45.3</ele>
        <time>2022-03-27T10:07:47Z</time>
      </trkpt>
      <trkpt lat="49.05975" lon="1.93294">
        <ele>45.5</ele>
        <time>2022-03-27T10:07:52Z</time>
      </trkpt>
      <trkpt lat="49.05976" lon="1.93286">
        <ele>45.5</ele>
        <time>2022-03-27T10:07:57Z</time>
      </trkpt>
      <trkpt lat="49.05976" lon="1.93278">
        <ele>45.4</ele>
        <time>2022-03-27T10:08:02Z</time>
      </trkpt>
      <trkpt lat="49.05976" lon="1.9327">
        <ele>45.5</ele>
        <time>2022-03-27T10:08:07Z</time>
      </trkpt>
      <trkpt lat="49.05976" lon="1.93262">
        <ele>46</ele>
        <time>2022-03-27T10:08:12Z</time>
      </trkpt>
      <trkpt lat="49.05975" lon="1.93255">
        <ele>46.4</ele>
        <time>2022-03-27T10:08:17Z</time>
      </trkpt>
      <trkpt lat="49.05973" lon="1.93248">
        <ele>46.5</ele>
        <time>2022-03-27T10:08:23Z</time>
      </trkpt>
      <trkpt lat="49.05971" lon="1.9324">
        <ele>46.5</ele>
        <time>2022-03-27T10:08:28Z</time>
      </trkpt>
      <trkpt lat="49.05972" lon="1.93232">
        <ele>46.8</ele>
        <time>2022-03-27T10:08:35Z</time>
      </trkpt>
      <trkpt lat="49.05971" lon="1.93223">
        <ele>46.8</ele>
        <time>2022-03-27T10:08:39Z</time>
      </trkpt>
      <trkpt lat="49.0597" lon="1.93216">
        <ele>47</ele>
        <time>2022-03-27T10:08:43Z</time>
      </trkpt>
      <trkpt lat="49.0597" lon="1.93208">
        <ele>47.2</ele>
        <time>2022-03-27T10:08:47Z</time>
      </trkpt>
      <trkpt lat="49.05969" lon="1.93201">
        <ele>47.5</ele>
        <time>2022-03-27T10:08:51Z</time>
      </trkpt>
      <trkpt lat="49.05968" lon="1.93194">
        <ele>47.3</ele>
        <time>2022-03-27T10:08:56Z</time>
      </trkpt>
      <trkpt lat="49.05965" lon="1.93188">
        <ele>43</ele>
        <time>2022-03-27T10:09:06Z</time>
      </trkpt>
      <trkpt lat="49.05968" lon="1.93182">
        <ele>43.7</ele>
        <time>2022-03-27T10:09:15Z</time>
      </trkpt>
      <trkpt lat="49.05968" lon="1.93173">
        <ele>44.9</ele>
        <time>2022-03-27T10:09:22Z</time>
      </trkpt>
      <trkpt lat="49.05966" lon="1.93166">
        <ele>44.3</ele>
        <time>2022-03-27T10:09:26Z</time>
      </trkpt>
      <trkpt lat="49.05964" lon="1.93159">
        <ele>43.1</ele>
        <time>2022-03-27T10:09:31Z</time>
      </trkpt>
      <trkpt lat="49.05963" lon="1.93151">
        <ele>41.1</ele>
        <time>2022-03-27T10:09:37Z</time>
      </trkpt>
      <trkpt lat="49.05963" lon="1.93143">
        <ele>40.7</ele>
        <time>2022-03-27T10:09:41Z</time>
      </trkpt>
      <trkpt lat="49.05962" lon="1.93134">
        <ele>41.5</ele>
        <time>2022-03-27T10:09:45Z</time>
      </trkpt>
      <trkpt lat="49.05965" lon="1.93128">
        <ele>42</ele>
        <time>2022-03-27T10:09:49Z</time>
      </trkpt>
      <trkpt lat="49.05969" lon="1.93126">
        <ele>42.4</ele>
        <time>2022-03-27T10:09:53Z</time>
      </trkpt>
      <trkpt lat="49.05974" lon="1.93125">
        <ele>42.9</ele>
        <time>2022-03-27T10:09:58Z</time>
      </trkpt>
      <trkpt lat="49.0598" lon="1.93124">
        <ele>43</ele>
        <time>2022-03-27T10:10:04Z</time>
      </trkpt>
      <trkpt lat="49.05985" lon="1.93119">
        <ele>44.3</ele>
        <time>2022-03-27T10:10:09Z</time>
      </trkpt>
      <trkpt lat="49.05989" lon="1.93115">
        <ele>45.4</ele>
        <time>2022-03-27T10:10:14Z</time>
      </trkpt>
      <trkpt lat="49.05994" lon="1.93113">
        <ele>47.6</ele>
        <time>2022-03-27T10:10:20Z</time>
      </trkpt>
      <trkpt lat="49.06" lon="1.93114">
        <ele>49</ele>
        <time>2022-03-27T10:10:24Z</time>
      </trkpt>
      <trkpt lat="49.06005" lon="1.93113">
        <ele>49.7</ele>
        <time>2022-03-27T10:10:27Z</time>
      </trkpt>
      <trkpt lat="49.0601" lon="1.93113">
        <ele>49.9</ele>
        <time>2022-03-27T10:10:30Z</time>
      </trkpt>
      <trkpt lat="49.06015" lon="1.93113">
        <ele>49.6</ele>
        <time>2022-03-27T10:10:34Z</time>
      </trkpt>
      <trkpt lat="49.0602" lon="1.93114">
        <ele>49.4</ele>
        <time>2022-03-27T10:10:38Z</time>
      </trkpt>
      <trkpt lat="49.06025" lon="1.93119">
        <ele>49.3</ele>
        <time>2022-03-27T10:10:42Z</time>
      </trkpt>
      <trkpt lat="49.06029" lon="1.93123">
        <ele>48.9</ele>
        <time>2022-03-27T10:10:46Z</time>
      </trkpt>
    </trkseg>
  </trk>
</gpx>